<?xml version="1.0"?>
<gpx xmlns="http://www.topografix.com/GPX/1/1" xmlns:xsi="http://www.w3.org/2001/XMLSchema-instance" version="1.1" creator="GPX RubyGem 1.0.0 -- http://dougfales.github.io/gpx/" xsi:schemaLocation="http://www.topografix.com/GPX/1/1 http://www.topografix.com/GPX/1/1/gpx.xsd">
  <metadata>
    <name/>
    <time>2026-05-08T17:25:26+00:00</time>
    <bound minlat="90.0" minlon="180.0" maxlat="-90.0" maxlon="-180.0"/>
  </metadata>
  <trk>
    <name/>
    <trkseg>
      <trkpt lat="44.8595233" lon="5.5584083">
        <time>1970-01-01T00:00:00+00:00</time>
        <ele>1098.0</ele>
      </trkpt>
      <trkpt lat="44.8595233" lon="5.5584083">
        <time>1970-01-01T00:00:00+00:00</time>
        <ele>1098.0</ele>
      </trkpt>
      <trkpt lat="44.859455" lon="5.5583367">
        <time>1970-01-01T00:00:00+00:00</time>
        <ele>1098.0</ele>
      </trkpt>
      <trkpt lat="44.859455" lon="5.5583367">
        <time>1970-01-01T00:00:00+00:00</time>
        <ele>1098.0</ele>
      </trkpt>
      <trkpt lat="44.8593933" lon="5.5582567">
        <time>1970-01-01T00:00:00+00:00</time>
        <ele>1099.0</ele>
      </trkpt>
      <trkpt lat="44.8593933" lon="5.5582567">
        <time>1970-01-01T00:00:00+00:00</time>
        <ele>1099.0</ele>
      </trkpt>
      <trkpt lat="44.8593483" lon="5.558155">
        <time>1970-01-01T00:00:00+00:00</time>
        <ele>1100.0</ele>
      </trkpt>
      <trkpt lat="44.8593483" lon="5.558155">
        <time>1970-01-01T00:00:00+00:00</time>
        <ele>1100.0</ele>
      </trkpt>
      <trkpt lat="44.8593183" lon="5.5580933">
        <time>1970-01-01T00:00:00+00:00</time>
        <ele>1101.0</ele>
      </trkpt>
      <trkpt lat="44.8593183" lon="5.5580933">
        <time>1970-01-01T00:00:00+00:00</time>
        <ele>1101.0</ele>
      </trkpt>
      <trkpt lat="44.8592917" lon="5.5579817">
        <time>1970-01-01T00:00:00+00:00</time>
        <ele>1103.0</ele>
      </trkpt>
      <trkpt lat="44.8592917" lon="5.5579817">
        <time>1970-01-01T00:00:00+00:00</time>
        <ele>1103.0</ele>
      </trkpt>
      <trkpt lat="44.8592683" lon="5.5578483">
        <time>1970-01-01T00:00:00+00:00</time>
        <ele>1104.0</ele>
      </trkpt>
      <trkpt lat="44.8592683" lon="5.5578483">
        <time>1970-01-01T00:00:00+00:00</time>
        <ele>1104.0</ele>
      </trkpt>
      <trkpt lat="44.8592483" lon="5.5577233">
        <time>1970-01-01T00:00:00+00:00</time>
        <ele>1106.0</ele>
      </trkpt>
      <trkpt lat="44.8592483" lon="5.5577233">
        <time>1970-01-01T00:00:00+00:00</time>
        <ele>1106.0</ele>
      </trkpt>
      <trkpt lat="44.8592217" lon="5.5575933">
        <time>1970-01-01T00:00:00+00:00</time>
        <ele>1107.0</ele>
      </trkpt>
      <trkpt lat="44.8592217" lon="5.5575933">
        <time>1970-01-01T00:00:00+00:00</time>
        <ele>1107.0</ele>
      </trkpt>
      <trkpt lat="44.859185" lon="5.55747">
        <time>1970-01-01T00:00:00+00:00</time>
        <ele>1108.0</ele>
      </trkpt>
      <trkpt lat="44.859185" lon="5.55747">
        <time>1970-01-01T00:00:00+00:00</time>
        <ele>1108.0</ele>
      </trkpt>
      <trkpt lat="44.8591317" lon="5.5573583">
        <time>1970-01-01T00:00:00+00:00</time>
        <ele>1110.0</ele>
      </trkpt>
      <trkpt lat="44.8591317" lon="5.5573583">
        <time>1970-01-01T00:00:00+00:00</time>
        <ele>1110.0</ele>
      </trkpt>
      <trkpt lat="44.8590883" lon="5.557245">
        <time>1970-01-01T00:00:00+00:00</time>
        <ele>1112.0</ele>
      </trkpt>
      <trkpt lat="44.8590883" lon="5.557245">
        <time>1970-01-01T00:00:00+00:00</time>
        <ele>1112.0</ele>
      </trkpt>
      <trkpt lat="44.85907" lon="5.5571217">
        <time>1970-01-01T00:00:00+00:00</time>
        <ele>1113.0</ele>
      </trkpt>
      <trkpt lat="44.85907" lon="5.5571217">
        <time>1970-01-01T00:00:00+00:00</time>
        <ele>1113.0</ele>
      </trkpt>
      <trkpt lat="44.8590883" lon="5.5569933">
        <time>1970-01-01T00:00:00+00:00</time>
        <ele>1114.0</ele>
      </trkpt>
      <trkpt lat="44.8590883" lon="5.5569933">
        <time>1970-01-01T00:00:00+00:00</time>
        <ele>1114.0</ele>
      </trkpt>
      <trkpt lat="44.8590967" lon="5.5568667">
        <time>1970-01-01T00:00:00+00:00</time>
        <ele>1114.0</ele>
      </trkpt>
      <trkpt lat="44.8590967" lon="5.5568667">
        <time>1970-01-01T00:00:00+00:00</time>
        <ele>1114.0</ele>
      </trkpt>
      <trkpt lat="44.85905" lon="5.5567433">
        <time>1970-01-01T00:00:00+00:00</time>
        <ele>1115.0</ele>
      </trkpt>
      <trkpt lat="44.85905" lon="5.5567433">
        <time>1970-01-01T00:00:00+00:00</time>
        <ele>1115.0</ele>
      </trkpt>
      <trkpt lat="44.8589633" lon="5.5566933">
        <time>1970-01-01T00:00:00+00:00</time>
        <ele>1117.0</ele>
      </trkpt>
      <trkpt lat="44.8589633" lon="5.5566933">
        <time>1970-01-01T00:00:00+00:00</time>
        <ele>1117.0</ele>
      </trkpt>
      <trkpt lat="44.8588717" lon="5.5567133">
        <time>1970-01-01T00:00:00+00:00</time>
        <ele>1119.0</ele>
      </trkpt>
      <trkpt lat="44.8588717" lon="5.5567133">
        <time>1970-01-01T00:00:00+00:00</time>
        <ele>1119.0</ele>
      </trkpt>
      <trkpt lat="44.8587883" lon="5.5567667">
        <time>1970-01-01T00:00:00+00:00</time>
        <ele>1121.0</ele>
      </trkpt>
      <trkpt lat="44.8587883" lon="5.5567667">
        <time>1970-01-01T00:00:00+00:00</time>
        <ele>1121.0</ele>
      </trkpt>
      <trkpt lat="44.8587183" lon="5.5568483">
        <time>1970-01-01T00:00:00+00:00</time>
        <ele>1122.0</ele>
      </trkpt>
      <trkpt lat="44.8587183" lon="5.5568483">
        <time>1970-01-01T00:00:00+00:00</time>
        <ele>1122.0</ele>
      </trkpt>
      <trkpt lat="44.8586583" lon="5.5569583">
        <time>1970-01-01T00:00:00+00:00</time>
        <ele>1122.0</ele>
      </trkpt>
      <trkpt lat="44.8586583" lon="5.5569583">
        <time>1970-01-01T00:00:00+00:00</time>
        <ele>1122.0</ele>
      </trkpt>
      <trkpt lat="44.8586317" lon="5.55708">
        <time>1970-01-01T00:00:00+00:00</time>
        <ele>1122.0</ele>
      </trkpt>
      <trkpt lat="44.8586317" lon="5.55708">
        <time>1970-01-01T00:00:00+00:00</time>
        <ele>1122.0</ele>
      </trkpt>
      <trkpt lat="44.8585933" lon="5.557185">
        <time>1970-01-01T00:00:00+00:00</time>
        <ele>1121.0</ele>
      </trkpt>
      <trkpt lat="44.8585933" lon="5.557185">
        <time>1970-01-01T00:00:00+00:00</time>
        <ele>1121.0</ele>
      </trkpt>
      <trkpt lat="44.8585667" lon="5.5573083">
        <time>1970-01-01T00:00:00+00:00</time>
        <ele>1119.0</ele>
      </trkpt>
      <trkpt lat="44.8585667" lon="5.5573083">
        <time>1970-01-01T00:00:00+00:00</time>
        <ele>1119.0</ele>
      </trkpt>
      <trkpt lat="44.8585133" lon="5.557415">
        <time>1970-01-01T00:00:00+00:00</time>
        <ele>1119.0</ele>
      </trkpt>
      <trkpt lat="44.8585133" lon="5.557415">
        <time>1970-01-01T00:00:00+00:00</time>
        <ele>1119.0</ele>
      </trkpt>
      <trkpt lat="44.8584283" lon="5.5574967">
        <time>1970-01-01T00:00:00+00:00</time>
        <ele>1118.0</ele>
      </trkpt>
      <trkpt lat="44.8584283" lon="5.5574967">
        <time>1970-01-01T00:00:00+00:00</time>
        <ele>1118.0</ele>
      </trkpt>
      <trkpt lat="44.8583333" lon="5.5575383">
        <time>1970-01-01T00:00:00+00:00</time>
        <ele>1119.0</ele>
      </trkpt>
      <trkpt lat="44.8583333" lon="5.5575383">
        <time>1970-01-01T00:00:00+00:00</time>
        <ele>1119.0</ele>
      </trkpt>
      <trkpt lat="44.8582417" lon="5.55754">
        <time>1970-01-01T00:00:00+00:00</time>
        <ele>1120.0</ele>
      </trkpt>
      <trkpt lat="44.8582417" lon="5.55754">
        <time>1970-01-01T00:00:00+00:00</time>
        <ele>1120.0</ele>
      </trkpt>
      <trkpt lat="44.85815" lon="5.55751">
        <time>1970-01-01T00:00:00+00:00</time>
        <ele>1121.0</ele>
      </trkpt>
      <trkpt lat="44.85815" lon="5.55751">
        <time>1970-01-01T00:00:00+00:00</time>
        <ele>1121.0</ele>
      </trkpt>
      <trkpt lat="44.858075" lon="5.5574533">
        <time>1970-01-01T00:00:00+00:00</time>
        <ele>1123.0</ele>
      </trkpt>
      <trkpt lat="44.858075" lon="5.5574533">
        <time>1970-01-01T00:00:00+00:00</time>
        <ele>1123.0</ele>
      </trkpt>
      <trkpt lat="44.8580167" lon="5.5573667">
        <time>1970-01-01T00:00:00+00:00</time>
        <ele>1125.0</ele>
      </trkpt>
      <trkpt lat="44.8580167" lon="5.5573667">
        <time>1970-01-01T00:00:00+00:00</time>
        <ele>1125.0</ele>
      </trkpt>
      <trkpt lat="44.8579833" lon="5.557255">
        <time>1970-01-01T00:00:00+00:00</time>
        <ele>1127.0</ele>
      </trkpt>
      <trkpt lat="44.8579833" lon="5.557255">
        <time>1970-01-01T00:00:00+00:00</time>
        <ele>1127.0</ele>
      </trkpt>
      <trkpt lat="44.8579717" lon="5.5571333">
        <time>1970-01-01T00:00:00+00:00</time>
        <ele>1129.0</ele>
      </trkpt>
      <trkpt lat="44.8579717" lon="5.5571333">
        <time>1970-01-01T00:00:00+00:00</time>
        <ele>1129.0</ele>
      </trkpt>
      <trkpt lat="44.8579567" lon="5.5570083">
        <time>1970-01-01T00:00:00+00:00</time>
        <ele>1132.0</ele>
      </trkpt>
      <trkpt lat="44.8579567" lon="5.5570083">
        <time>1970-01-01T00:00:00+00:00</time>
        <ele>1132.0</ele>
      </trkpt>
      <trkpt lat="44.85793" lon="5.5568867">
        <time>1970-01-01T00:00:00+00:00</time>
        <ele>1134.0</ele>
      </trkpt>
      <trkpt lat="44.85793" lon="5.5568867">
        <time>1970-01-01T00:00:00+00:00</time>
        <ele>1134.0</ele>
      </trkpt>
      <trkpt lat="44.8578917" lon="5.556775">
        <time>1970-01-01T00:00:00+00:00</time>
        <ele>1136.0</ele>
      </trkpt>
      <trkpt lat="44.8578917" lon="5.556775">
        <time>1970-01-01T00:00:00+00:00</time>
        <ele>1136.0</ele>
      </trkpt>
      <trkpt lat="44.8578533" lon="5.5566717">
        <time>1970-01-01T00:00:00+00:00</time>
        <ele>1137.0</ele>
      </trkpt>
      <trkpt lat="44.8578533" lon="5.5566717">
        <time>1970-01-01T00:00:00+00:00</time>
        <ele>1137.0</ele>
      </trkpt>
      <trkpt lat="44.8578033" lon="5.556575">
        <time>1970-01-01T00:00:00+00:00</time>
        <ele>1138.0</ele>
      </trkpt>
      <trkpt lat="44.8578033" lon="5.556575">
        <time>1970-01-01T00:00:00+00:00</time>
        <ele>1138.0</ele>
      </trkpt>
      <trkpt lat="44.85775" lon="5.5564717">
        <time>1970-01-01T00:00:00+00:00</time>
        <ele>1140.0</ele>
      </trkpt>
      <trkpt lat="44.85775" lon="5.5564717">
        <time>1970-01-01T00:00:00+00:00</time>
        <ele>1140.0</ele>
      </trkpt>
      <trkpt lat="44.8576967" lon="5.55637">
        <time>1970-01-01T00:00:00+00:00</time>
        <ele>1141.0</ele>
      </trkpt>
      <trkpt lat="44.8576967" lon="5.55637">
        <time>1970-01-01T00:00:00+00:00</time>
        <ele>1141.0</ele>
      </trkpt>
      <trkpt lat="44.8576583" lon="5.5562567">
        <time>1970-01-01T00:00:00+00:00</time>
        <ele>1141.0</ele>
      </trkpt>
      <trkpt lat="44.8576583" lon="5.5562567">
        <time>1970-01-01T00:00:00+00:00</time>
        <ele>1141.0</ele>
      </trkpt>
      <trkpt lat="44.857605" lon="5.5561633">
        <time>1970-01-01T00:00:00+00:00</time>
        <ele>1142.0</ele>
      </trkpt>
      <trkpt lat="44.857605" lon="5.5561633">
        <time>1970-01-01T00:00:00+00:00</time>
        <ele>1142.0</ele>
      </trkpt>
      <trkpt lat="44.857575" lon="5.5560433">
        <time>1970-01-01T00:00:00+00:00</time>
        <ele>1144.0</ele>
      </trkpt>
      <trkpt lat="44.857575" lon="5.5560433">
        <time>1970-01-01T00:00:00+00:00</time>
        <ele>1144.0</ele>
      </trkpt>
      <trkpt lat="44.85754" lon="5.555925">
        <time>1970-01-01T00:00:00+00:00</time>
        <ele>1145.0</ele>
      </trkpt>
      <trkpt lat="44.85754" lon="5.555925">
        <time>1970-01-01T00:00:00+00:00</time>
        <ele>1145.0</ele>
      </trkpt>
      <trkpt lat="44.857505" lon="5.5558067">
        <time>1970-01-01T00:00:00+00:00</time>
        <ele>1146.0</ele>
      </trkpt>
      <trkpt lat="44.857505" lon="5.5558067">
        <time>1970-01-01T00:00:00+00:00</time>
        <ele>1146.0</ele>
      </trkpt>
      <trkpt lat="44.8574833" lon="5.55568">
        <time>1970-01-01T00:00:00+00:00</time>
        <ele>1146.0</ele>
      </trkpt>
      <trkpt lat="44.8574833" lon="5.55568">
        <time>1970-01-01T00:00:00+00:00</time>
        <ele>1146.0</ele>
      </trkpt>
      <trkpt lat="44.8574567" lon="5.5555567">
        <time>1970-01-01T00:00:00+00:00</time>
        <ele>1148.0</ele>
      </trkpt>
      <trkpt lat="44.8574567" lon="5.5555567">
        <time>1970-01-01T00:00:00+00:00</time>
        <ele>1148.0</ele>
      </trkpt>
      <trkpt lat="44.8574333" lon="5.555425">
        <time>1970-01-01T00:00:00+00:00</time>
        <ele>1149.0</ele>
      </trkpt>
      <trkpt lat="44.8574333" lon="5.555425">
        <time>1970-01-01T00:00:00+00:00</time>
        <ele>1149.0</ele>
      </trkpt>
      <trkpt lat="44.857415" lon="5.5553017">
        <time>1970-01-01T00:00:00+00:00</time>
        <ele>1150.0</ele>
      </trkpt>
      <trkpt lat="44.857415" lon="5.5553017">
        <time>1970-01-01T00:00:00+00:00</time>
        <ele>1150.0</ele>
      </trkpt>
      <trkpt lat="44.8574067" lon="5.5551717">
        <time>1970-01-01T00:00:00+00:00</time>
        <ele>1151.0</ele>
      </trkpt>
      <trkpt lat="44.8574067" lon="5.5551717">
        <time>1970-01-01T00:00:00+00:00</time>
        <ele>1151.0</ele>
      </trkpt>
      <trkpt lat="44.8574033" lon="5.555045">
        <time>1970-01-01T00:00:00+00:00</time>
        <ele>1152.0</ele>
      </trkpt>
      <trkpt lat="44.8574033" lon="5.555045">
        <time>1970-01-01T00:00:00+00:00</time>
        <ele>1152.0</ele>
      </trkpt>
      <trkpt lat="44.8573917" lon="5.554925">
        <time>1970-01-01T00:00:00+00:00</time>
        <ele>1153.0</ele>
      </trkpt>
      <trkpt lat="44.8573917" lon="5.554925">
        <time>1970-01-01T00:00:00+00:00</time>
        <ele>1153.0</ele>
      </trkpt>
      <trkpt lat="44.8573683" lon="5.55481">
        <time>1970-01-01T00:00:00+00:00</time>
        <ele>1155.0</ele>
      </trkpt>
      <trkpt lat="44.8573683" lon="5.55481">
        <time>1970-01-01T00:00:00+00:00</time>
        <ele>1155.0</ele>
      </trkpt>
      <trkpt lat="44.857345" lon="5.5546983">
        <time>1970-01-01T00:00:00+00:00</time>
        <ele>1156.0</ele>
      </trkpt>
      <trkpt lat="44.857345" lon="5.5546983">
        <time>1970-01-01T00:00:00+00:00</time>
        <ele>1156.0</ele>
      </trkpt>
      <trkpt lat="44.8573067" lon="5.5546">
        <time>1970-01-01T00:00:00+00:00</time>
        <ele>1158.0</ele>
      </trkpt>
      <trkpt lat="44.8573067" lon="5.5546">
        <time>1970-01-01T00:00:00+00:00</time>
        <ele>1158.0</ele>
      </trkpt>
      <trkpt lat="44.8573233" lon="5.5545333">
        <time>1970-01-01T00:00:00+00:00</time>
        <ele>1158.0</ele>
      </trkpt>
      <trkpt lat="44.8573233" lon="5.5545333">
        <time>1970-01-01T00:00:00+00:00</time>
        <ele>1158.0</ele>
      </trkpt>
      <trkpt lat="44.8572733" lon="5.554495">
        <time>1970-01-01T00:00:00+00:00</time>
        <ele>1159.0</ele>
      </trkpt>
      <trkpt lat="44.8572733" lon="5.554495">
        <time>1970-01-01T00:00:00+00:00</time>
        <ele>1159.0</ele>
      </trkpt>
      <trkpt lat="44.8572317" lon="5.5544367">
        <time>1970-01-01T00:00:00+00:00</time>
        <ele>1160.0</ele>
      </trkpt>
      <trkpt lat="44.8572317" lon="5.5544367">
        <time>1970-01-01T00:00:00+00:00</time>
        <ele>1160.0</ele>
      </trkpt>
      <trkpt lat="44.8571617" lon="5.554365">
        <time>1970-01-01T00:00:00+00:00</time>
        <ele>1162.0</ele>
      </trkpt>
      <trkpt lat="44.8571617" lon="5.554365">
        <time>1970-01-01T00:00:00+00:00</time>
        <ele>1162.0</ele>
      </trkpt>
      <trkpt lat="44.8571083" lon="5.554315">
        <time>1970-01-01T00:00:00+00:00</time>
        <ele>1163.0</ele>
      </trkpt>
      <trkpt lat="44.8571083" lon="5.554315">
        <time>1970-01-01T00:00:00+00:00</time>
        <ele>1163.0</ele>
      </trkpt>
      <trkpt lat="44.8570483" lon="5.5542567">
        <time>1970-01-01T00:00:00+00:00</time>
        <ele>1165.0</ele>
      </trkpt>
      <trkpt lat="44.8570483" lon="5.5542567">
        <time>1970-01-01T00:00:00+00:00</time>
        <ele>1165.0</ele>
      </trkpt>
      <trkpt lat="44.85699" lon="5.55419">
        <time>1970-01-01T00:00:00+00:00</time>
        <ele>1167.0</ele>
      </trkpt>
      <trkpt lat="44.85699" lon="5.55419">
        <time>1970-01-01T00:00:00+00:00</time>
        <ele>1167.0</ele>
      </trkpt>
      <trkpt lat="44.8569333" lon="5.554115">
        <time>1970-01-01T00:00:00+00:00</time>
        <ele>1168.0</ele>
      </trkpt>
      <trkpt lat="44.8569333" lon="5.554115">
        <time>1970-01-01T00:00:00+00:00</time>
        <ele>1168.0</ele>
      </trkpt>
      <trkpt lat="44.85688" lon="5.5540467">
        <time>1970-01-01T00:00:00+00:00</time>
        <ele>1170.0</ele>
      </trkpt>
      <trkpt lat="44.85688" lon="5.5540467">
        <time>1970-01-01T00:00:00+00:00</time>
        <ele>1170.0</ele>
      </trkpt>
      <trkpt lat="44.85683" lon="5.5539767">
        <time>1970-01-01T00:00:00+00:00</time>
        <ele>1171.0</ele>
      </trkpt>
      <trkpt lat="44.85683" lon="5.5539767">
        <time>1970-01-01T00:00:00+00:00</time>
        <ele>1171.0</ele>
      </trkpt>
      <trkpt lat="44.8567817" lon="5.55391">
        <time>1970-01-01T00:00:00+00:00</time>
        <ele>1172.0</ele>
      </trkpt>
      <trkpt lat="44.8567817" lon="5.55391">
        <time>1970-01-01T00:00:00+00:00</time>
        <ele>1172.0</ele>
      </trkpt>
      <trkpt lat="44.856735" lon="5.5538317">
        <time>1970-01-01T00:00:00+00:00</time>
        <ele>1174.0</ele>
      </trkpt>
      <trkpt lat="44.856735" lon="5.5538317">
        <time>1970-01-01T00:00:00+00:00</time>
        <ele>1174.0</ele>
      </trkpt>
      <trkpt lat="44.8566967" lon="5.5537483">
        <time>1970-01-01T00:00:00+00:00</time>
        <ele>1175.0</ele>
      </trkpt>
      <trkpt lat="44.8566967" lon="5.5537483">
        <time>1970-01-01T00:00:00+00:00</time>
        <ele>1175.0</ele>
      </trkpt>
      <trkpt lat="44.856655" lon="5.5536567">
        <time>1970-01-01T00:00:00+00:00</time>
        <ele>1176.0</ele>
      </trkpt>
      <trkpt lat="44.856655" lon="5.5536567">
        <time>1970-01-01T00:00:00+00:00</time>
        <ele>1176.0</ele>
      </trkpt>
      <trkpt lat="44.8566167" lon="5.553565">
        <time>1970-01-01T00:00:00+00:00</time>
        <ele>1177.0</ele>
      </trkpt>
      <trkpt lat="44.8566167" lon="5.553565">
        <time>1970-01-01T00:00:00+00:00</time>
        <ele>1177.0</ele>
      </trkpt>
      <trkpt lat="44.856575" lon="5.5534867">
        <time>1970-01-01T00:00:00+00:00</time>
        <ele>1178.0</ele>
      </trkpt>
      <trkpt lat="44.856575" lon="5.5534867">
        <time>1970-01-01T00:00:00+00:00</time>
        <ele>1178.0</ele>
      </trkpt>
      <trkpt lat="44.85653" lon="5.553405">
        <time>1970-01-01T00:00:00+00:00</time>
        <ele>1179.0</ele>
      </trkpt>
      <trkpt lat="44.85653" lon="5.553405">
        <time>1970-01-01T00:00:00+00:00</time>
        <ele>1179.0</ele>
      </trkpt>
      <trkpt lat="44.8564833" lon="5.55332">
        <time>1970-01-01T00:00:00+00:00</time>
        <ele>1180.0</ele>
      </trkpt>
      <trkpt lat="44.8564833" lon="5.55332">
        <time>1970-01-01T00:00:00+00:00</time>
        <ele>1180.0</ele>
      </trkpt>
      <trkpt lat="44.8564483" lon="5.5532383">
        <time>1970-01-01T00:00:00+00:00</time>
        <ele>1181.0</ele>
      </trkpt>
      <trkpt lat="44.8564483" lon="5.5532383">
        <time>1970-01-01T00:00:00+00:00</time>
        <ele>1181.0</ele>
      </trkpt>
      <trkpt lat="44.856415" lon="5.5531567">
        <time>1970-01-01T00:00:00+00:00</time>
        <ele>1181.0</ele>
      </trkpt>
      <trkpt lat="44.856415" lon="5.5531567">
        <time>1970-01-01T00:00:00+00:00</time>
        <ele>1181.0</ele>
      </trkpt>
      <trkpt lat="44.856385" lon="5.5530383">
        <time>1970-01-01T00:00:00+00:00</time>
        <ele>1182.0</ele>
      </trkpt>
      <trkpt lat="44.856385" lon="5.5530383">
        <time>1970-01-01T00:00:00+00:00</time>
        <ele>1182.0</ele>
      </trkpt>
      <trkpt lat="44.85635" lon="5.5529267">
        <time>1970-01-01T00:00:00+00:00</time>
        <ele>1183.0</ele>
      </trkpt>
      <trkpt lat="44.85635" lon="5.5529267">
        <time>1970-01-01T00:00:00+00:00</time>
        <ele>1183.0</ele>
      </trkpt>
      <trkpt lat="44.8563117" lon="5.55281">
        <time>1970-01-01T00:00:00+00:00</time>
        <ele>1184.0</ele>
      </trkpt>
      <trkpt lat="44.8563117" lon="5.55281">
        <time>1970-01-01T00:00:00+00:00</time>
        <ele>1184.0</ele>
      </trkpt>
      <trkpt lat="44.8562733" lon="5.552695">
        <time>1970-01-01T00:00:00+00:00</time>
        <ele>1185.0</ele>
      </trkpt>
      <trkpt lat="44.8562733" lon="5.552695">
        <time>1970-01-01T00:00:00+00:00</time>
        <ele>1185.0</ele>
      </trkpt>
      <trkpt lat="44.856235" lon="5.5525733">
        <time>1970-01-01T00:00:00+00:00</time>
        <ele>1186.0</ele>
      </trkpt>
      <trkpt lat="44.856235" lon="5.5525733">
        <time>1970-01-01T00:00:00+00:00</time>
        <ele>1186.0</ele>
      </trkpt>
      <trkpt lat="44.8562017" lon="5.5524533">
        <time>1970-01-01T00:00:00+00:00</time>
        <ele>1187.0</ele>
      </trkpt>
      <trkpt lat="44.8562017" lon="5.5524533">
        <time>1970-01-01T00:00:00+00:00</time>
        <ele>1187.0</ele>
      </trkpt>
      <trkpt lat="44.8561633" lon="5.5523317">
        <time>1970-01-01T00:00:00+00:00</time>
        <ele>1188.0</ele>
      </trkpt>
      <trkpt lat="44.8561633" lon="5.5523317">
        <time>1970-01-01T00:00:00+00:00</time>
        <ele>1188.0</ele>
      </trkpt>
      <trkpt lat="44.8561333" lon="5.5522217">
        <time>1970-01-01T00:00:00+00:00</time>
        <ele>1189.0</ele>
      </trkpt>
      <trkpt lat="44.8561333" lon="5.5522217">
        <time>1970-01-01T00:00:00+00:00</time>
        <ele>1189.0</ele>
      </trkpt>
      <trkpt lat="44.856105" lon="5.552105">
        <time>1970-01-01T00:00:00+00:00</time>
        <ele>1190.0</ele>
      </trkpt>
      <trkpt lat="44.856105" lon="5.552105">
        <time>1970-01-01T00:00:00+00:00</time>
        <ele>1190.0</ele>
      </trkpt>
      <trkpt lat="44.8560983" lon="5.5519867">
        <time>1970-01-01T00:00:00+00:00</time>
        <ele>1191.0</ele>
      </trkpt>
      <trkpt lat="44.8560983" lon="5.5519867">
        <time>1970-01-01T00:00:00+00:00</time>
        <ele>1191.0</ele>
      </trkpt>
      <trkpt lat="44.8560983" lon="5.55188">
        <time>1970-01-01T00:00:00+00:00</time>
        <ele>1191.0</ele>
      </trkpt>
      <trkpt lat="44.8560983" lon="5.55188">
        <time>1970-01-01T00:00:00+00:00</time>
        <ele>1191.0</ele>
      </trkpt>
      <trkpt lat="44.85611" lon="5.5517783">
        <time>1970-01-01T00:00:00+00:00</time>
        <ele>1192.0</ele>
      </trkpt>
      <trkpt lat="44.85611" lon="5.5517783">
        <time>1970-01-01T00:00:00+00:00</time>
        <ele>1192.0</ele>
      </trkpt>
      <trkpt lat="44.8561217" lon="5.5516633">
        <time>1970-01-01T00:00:00+00:00</time>
        <ele>1192.0</ele>
      </trkpt>
      <trkpt lat="44.8561217" lon="5.5516633">
        <time>1970-01-01T00:00:00+00:00</time>
        <ele>1192.0</ele>
      </trkpt>
      <trkpt lat="44.8561217" lon="5.551555">
        <time>1970-01-01T00:00:00+00:00</time>
        <ele>1193.0</ele>
      </trkpt>
      <trkpt lat="44.8561217" lon="5.551555">
        <time>1970-01-01T00:00:00+00:00</time>
        <ele>1193.0</ele>
      </trkpt>
      <trkpt lat="44.8561133" lon="5.55145">
        <time>1970-01-01T00:00:00+00:00</time>
        <ele>1194.0</ele>
      </trkpt>
      <trkpt lat="44.8561133" lon="5.55145">
        <time>1970-01-01T00:00:00+00:00</time>
        <ele>1194.0</ele>
      </trkpt>
      <trkpt lat="44.8561133" lon="5.5513167">
        <time>1970-01-01T00:00:00+00:00</time>
        <ele>1195.0</ele>
      </trkpt>
      <trkpt lat="44.8561133" lon="5.5513167">
        <time>1970-01-01T00:00:00+00:00</time>
        <ele>1195.0</ele>
      </trkpt>
      <trkpt lat="44.8561017" lon="5.551195">
        <time>1970-01-01T00:00:00+00:00</time>
        <ele>1196.0</ele>
      </trkpt>
      <trkpt lat="44.8561017" lon="5.551195">
        <time>1970-01-01T00:00:00+00:00</time>
        <ele>1196.0</ele>
      </trkpt>
      <trkpt lat="44.8561017" lon="5.5510533">
        <time>1970-01-01T00:00:00+00:00</time>
        <ele>1197.0</ele>
      </trkpt>
      <trkpt lat="44.8561017" lon="5.5510533">
        <time>1970-01-01T00:00:00+00:00</time>
        <ele>1197.0</ele>
      </trkpt>
      <trkpt lat="44.8560983" lon="5.550915">
        <time>1970-01-01T00:00:00+00:00</time>
        <ele>1198.0</ele>
      </trkpt>
      <trkpt lat="44.8560983" lon="5.550915">
        <time>1970-01-01T00:00:00+00:00</time>
        <ele>1198.0</ele>
      </trkpt>
      <trkpt lat="44.856095" lon="5.5507817">
        <time>1970-01-01T00:00:00+00:00</time>
        <ele>1199.0</ele>
      </trkpt>
      <trkpt lat="44.856095" lon="5.5507817">
        <time>1970-01-01T00:00:00+00:00</time>
        <ele>1199.0</ele>
      </trkpt>
      <trkpt lat="44.8560867" lon="5.5506567">
        <time>1970-01-01T00:00:00+00:00</time>
        <ele>1201.0</ele>
      </trkpt>
      <trkpt lat="44.8560867" lon="5.5506567">
        <time>1970-01-01T00:00:00+00:00</time>
        <ele>1201.0</ele>
      </trkpt>
      <trkpt lat="44.85609" lon="5.55053">
        <time>1970-01-01T00:00:00+00:00</time>
        <ele>1202.0</ele>
      </trkpt>
      <trkpt lat="44.85609" lon="5.55053">
        <time>1970-01-01T00:00:00+00:00</time>
        <ele>1202.0</ele>
      </trkpt>
      <trkpt lat="44.856095" lon="5.5503967">
        <time>1970-01-01T00:00:00+00:00</time>
        <ele>1202.0</ele>
      </trkpt>
      <trkpt lat="44.856095" lon="5.5503967">
        <time>1970-01-01T00:00:00+00:00</time>
        <ele>1202.0</ele>
      </trkpt>
      <trkpt lat="44.8560983" lon="5.5502517">
        <time>1970-01-01T00:00:00+00:00</time>
        <ele>1202.0</ele>
      </trkpt>
      <trkpt lat="44.8560983" lon="5.5502517">
        <time>1970-01-01T00:00:00+00:00</time>
        <ele>1202.0</ele>
      </trkpt>
      <trkpt lat="44.8560983" lon="5.5501083">
        <time>1970-01-01T00:00:00+00:00</time>
        <ele>1203.0</ele>
      </trkpt>
      <trkpt lat="44.8560983" lon="5.5501083">
        <time>1970-01-01T00:00:00+00:00</time>
        <ele>1203.0</ele>
      </trkpt>
      <trkpt lat="44.85609" lon="5.5499717">
        <time>1970-01-01T00:00:00+00:00</time>
        <ele>1204.0</ele>
      </trkpt>
      <trkpt lat="44.85609" lon="5.5499717">
        <time>1970-01-01T00:00:00+00:00</time>
        <ele>1204.0</ele>
      </trkpt>
      <trkpt lat="44.8560833" lon="5.5498333">
        <time>1970-01-01T00:00:00+00:00</time>
        <ele>1205.0</ele>
      </trkpt>
      <trkpt lat="44.8560833" lon="5.5498333">
        <time>1970-01-01T00:00:00+00:00</time>
        <ele>1205.0</ele>
      </trkpt>
      <trkpt lat="44.8560783" lon="5.549675">
        <time>1970-01-01T00:00:00+00:00</time>
        <ele>1205.0</ele>
      </trkpt>
      <trkpt lat="44.8560783" lon="5.549675">
        <time>1970-01-01T00:00:00+00:00</time>
        <ele>1205.0</ele>
      </trkpt>
      <trkpt lat="44.8560683" lon="5.5495283">
        <time>1970-01-01T00:00:00+00:00</time>
        <ele>1206.0</ele>
      </trkpt>
      <trkpt lat="44.8560683" lon="5.5495283">
        <time>1970-01-01T00:00:00+00:00</time>
        <ele>1206.0</ele>
      </trkpt>
      <trkpt lat="44.8560717" lon="5.5494433">
        <time>1970-01-01T00:00:00+00:00</time>
        <ele>1206.0</ele>
      </trkpt>
      <trkpt lat="44.8560717" lon="5.5494433">
        <time>1970-01-01T00:00:00+00:00</time>
        <ele>1206.0</ele>
      </trkpt>
      <trkpt lat="44.8560783" lon="5.54936">
        <time>1970-01-01T00:00:00+00:00</time>
        <ele>1206.0</ele>
      </trkpt>
      <trkpt lat="44.8560783" lon="5.54936">
        <time>1970-01-01T00:00:00+00:00</time>
        <ele>1206.0</ele>
      </trkpt>
      <trkpt lat="44.8560833" lon="5.5492183">
        <time>1970-01-01T00:00:00+00:00</time>
        <ele>1207.0</ele>
      </trkpt>
      <trkpt lat="44.8560833" lon="5.5492183">
        <time>1970-01-01T00:00:00+00:00</time>
        <ele>1207.0</ele>
      </trkpt>
      <trkpt lat="44.8560783" lon="5.5490833">
        <time>1970-01-01T00:00:00+00:00</time>
        <ele>1207.0</ele>
      </trkpt>
      <trkpt lat="44.8560783" lon="5.5490833">
        <time>1970-01-01T00:00:00+00:00</time>
        <ele>1207.0</ele>
      </trkpt>
      <trkpt lat="44.8560683" lon="5.5489617">
        <time>1970-01-01T00:00:00+00:00</time>
        <ele>1207.0</ele>
      </trkpt>
      <trkpt lat="44.8560683" lon="5.5489617">
        <time>1970-01-01T00:00:00+00:00</time>
        <ele>1207.0</ele>
      </trkpt>
      <trkpt lat="44.8560517" lon="5.5488867">
        <time>1970-01-01T00:00:00+00:00</time>
        <ele>1207.0</ele>
      </trkpt>
      <trkpt lat="44.8560517" lon="5.5488867">
        <time>1970-01-01T00:00:00+00:00</time>
        <ele>1207.0</ele>
      </trkpt>
      <trkpt lat="44.85601" lon="5.5487717">
        <time>1970-01-01T00:00:00+00:00</time>
        <ele>1208.0</ele>
      </trkpt>
      <trkpt lat="44.85601" lon="5.5487717">
        <time>1970-01-01T00:00:00+00:00</time>
        <ele>1208.0</ele>
      </trkpt>
      <trkpt lat="44.8559617" lon="5.548655">
        <time>1970-01-01T00:00:00+00:00</time>
        <ele>1209.0</ele>
      </trkpt>
      <trkpt lat="44.8559617" lon="5.548655">
        <time>1970-01-01T00:00:00+00:00</time>
        <ele>1209.0</ele>
      </trkpt>
      <trkpt lat="44.8559033" lon="5.5485517">
        <time>1970-01-01T00:00:00+00:00</time>
        <ele>1210.0</ele>
      </trkpt>
      <trkpt lat="44.8559033" lon="5.5485517">
        <time>1970-01-01T00:00:00+00:00</time>
        <ele>1210.0</ele>
      </trkpt>
      <trkpt lat="44.85588" lon="5.5484283">
        <time>1970-01-01T00:00:00+00:00</time>
        <ele>1211.0</ele>
      </trkpt>
      <trkpt lat="44.85588" lon="5.5484283">
        <time>1970-01-01T00:00:00+00:00</time>
        <ele>1211.0</ele>
      </trkpt>
      <trkpt lat="44.85587" lon="5.548315">
        <time>1970-01-01T00:00:00+00:00</time>
        <ele>1211.0</ele>
      </trkpt>
      <trkpt lat="44.85587" lon="5.548315">
        <time>1970-01-01T00:00:00+00:00</time>
        <ele>1211.0</ele>
      </trkpt>
      <trkpt lat="44.85585" lon="5.548185">
        <time>1970-01-01T00:00:00+00:00</time>
        <ele>1211.0</ele>
      </trkpt>
      <trkpt lat="44.85585" lon="5.548185">
        <time>1970-01-01T00:00:00+00:00</time>
        <ele>1211.0</ele>
      </trkpt>
      <trkpt lat="44.8558317" lon="5.5480317">
        <time>1970-01-01T00:00:00+00:00</time>
        <ele>1212.0</ele>
      </trkpt>
      <trkpt lat="44.8558317" lon="5.5480317">
        <time>1970-01-01T00:00:00+00:00</time>
        <ele>1212.0</ele>
      </trkpt>
      <trkpt lat="44.8558117" lon="5.54795">
        <time>1970-01-01T00:00:00+00:00</time>
        <ele>1212.0</ele>
      </trkpt>
      <trkpt lat="44.8558117" lon="5.54795">
        <time>1970-01-01T00:00:00+00:00</time>
        <ele>1212.0</ele>
      </trkpt>
      <trkpt lat="44.8557733" lon="5.547815">
        <time>1970-01-01T00:00:00+00:00</time>
        <ele>1213.0</ele>
      </trkpt>
      <trkpt lat="44.8557733" lon="5.547815">
        <time>1970-01-01T00:00:00+00:00</time>
        <ele>1213.0</ele>
      </trkpt>
      <trkpt lat="44.855755" lon="5.5477417">
        <time>1970-01-01T00:00:00+00:00</time>
        <ele>1213.0</ele>
      </trkpt>
      <trkpt lat="44.855755" lon="5.5477417">
        <time>1970-01-01T00:00:00+00:00</time>
        <ele>1213.0</ele>
      </trkpt>
      <trkpt lat="44.8557083" lon="5.54762">
        <time>1970-01-01T00:00:00+00:00</time>
        <ele>1213.0</ele>
      </trkpt>
      <trkpt lat="44.8557083" lon="5.54762">
        <time>1970-01-01T00:00:00+00:00</time>
        <ele>1213.0</ele>
      </trkpt>
      <trkpt lat="44.85569" lon="5.5475467">
        <time>1970-01-01T00:00:00+00:00</time>
        <ele>1214.0</ele>
      </trkpt>
      <trkpt lat="44.85569" lon="5.5475467">
        <time>1970-01-01T00:00:00+00:00</time>
        <ele>1214.0</ele>
      </trkpt>
      <trkpt lat="44.855675" lon="5.54747">
        <time>1970-01-01T00:00:00+00:00</time>
        <ele>1214.0</ele>
      </trkpt>
      <trkpt lat="44.855675" lon="5.54747">
        <time>1970-01-01T00:00:00+00:00</time>
        <ele>1214.0</ele>
      </trkpt>
      <trkpt lat="44.85566" lon="5.547315">
        <time>1970-01-01T00:00:00+00:00</time>
        <ele>1214.0</ele>
      </trkpt>
      <trkpt lat="44.85566" lon="5.547315">
        <time>1970-01-01T00:00:00+00:00</time>
        <ele>1214.0</ele>
      </trkpt>
      <trkpt lat="44.85566" lon="5.54722">
        <time>1970-01-01T00:00:00+00:00</time>
        <ele>1214.0</ele>
      </trkpt>
      <trkpt lat="44.85566" lon="5.54722">
        <time>1970-01-01T00:00:00+00:00</time>
        <ele>1214.0</ele>
      </trkpt>
      <trkpt lat="44.85566" lon="5.5471417">
        <time>1970-01-01T00:00:00+00:00</time>
        <ele>1214.0</ele>
      </trkpt>
      <trkpt lat="44.85566" lon="5.5471417">
        <time>1970-01-01T00:00:00+00:00</time>
        <ele>1214.0</ele>
      </trkpt>
      <trkpt lat="44.8556483" lon="5.547035">
        <time>1970-01-01T00:00:00+00:00</time>
        <ele>1214.0</ele>
      </trkpt>
      <trkpt lat="44.8556483" lon="5.547035">
        <time>1970-01-01T00:00:00+00:00</time>
        <ele>1214.0</ele>
      </trkpt>
      <trkpt lat="44.8555867" lon="5.5469567">
        <time>1970-01-01T00:00:00+00:00</time>
        <ele>1214.0</ele>
      </trkpt>
      <trkpt lat="44.8555867" lon="5.5469567">
        <time>1970-01-01T00:00:00+00:00</time>
        <ele>1214.0</ele>
      </trkpt>
      <trkpt lat="44.8555567" lon="5.5468733">
        <time>1970-01-01T00:00:00+00:00</time>
        <ele>1215.0</ele>
      </trkpt>
      <trkpt lat="44.8555567" lon="5.5468733">
        <time>1970-01-01T00:00:00+00:00</time>
        <ele>1215.0</ele>
      </trkpt>
      <trkpt lat="44.8555" lon="5.546795">
        <time>1970-01-01T00:00:00+00:00</time>
        <ele>1216.0</ele>
      </trkpt>
      <trkpt lat="44.8555" lon="5.546795">
        <time>1970-01-01T00:00:00+00:00</time>
        <ele>1216.0</ele>
      </trkpt>
      <trkpt lat="44.8555" lon="5.5467083">
        <time>1970-01-01T00:00:00+00:00</time>
        <ele>1216.0</ele>
      </trkpt>
      <trkpt lat="44.8555" lon="5.5467083">
        <time>1970-01-01T00:00:00+00:00</time>
        <ele>1216.0</ele>
      </trkpt>
      <trkpt lat="44.855495" lon="5.5466233">
        <time>1970-01-01T00:00:00+00:00</time>
        <ele>1216.0</ele>
      </trkpt>
      <trkpt lat="44.855495" lon="5.5466233">
        <time>1970-01-01T00:00:00+00:00</time>
        <ele>1216.0</ele>
      </trkpt>
      <trkpt lat="44.855495" lon="5.546555">
        <time>1970-01-01T00:00:00+00:00</time>
        <ele>1216.0</ele>
      </trkpt>
      <trkpt lat="44.855495" lon="5.546555">
        <time>1970-01-01T00:00:00+00:00</time>
        <ele>1216.0</ele>
      </trkpt>
      <trkpt lat="44.8554917" lon="5.5464517">
        <time>1970-01-01T00:00:00+00:00</time>
        <ele>1216.0</ele>
      </trkpt>
      <trkpt lat="44.8554917" lon="5.5464517">
        <time>1970-01-01T00:00:00+00:00</time>
        <ele>1216.0</ele>
      </trkpt>
      <trkpt lat="44.8554917" lon="5.5463717">
        <time>1970-01-01T00:00:00+00:00</time>
        <ele>1217.0</ele>
      </trkpt>
      <trkpt lat="44.8554917" lon="5.5463717">
        <time>1970-01-01T00:00:00+00:00</time>
        <ele>1217.0</ele>
      </trkpt>
      <trkpt lat="44.8554767" lon="5.5462767">
        <time>1970-01-01T00:00:00+00:00</time>
        <ele>1217.0</ele>
      </trkpt>
      <trkpt lat="44.8554767" lon="5.5462767">
        <time>1970-01-01T00:00:00+00:00</time>
        <ele>1217.0</ele>
      </trkpt>
      <trkpt lat="44.8554467" lon="5.5462067">
        <time>1970-01-01T00:00:00+00:00</time>
        <ele>1218.0</ele>
      </trkpt>
      <trkpt lat="44.8554467" lon="5.5462067">
        <time>1970-01-01T00:00:00+00:00</time>
        <ele>1218.0</ele>
      </trkpt>
      <trkpt lat="44.8554233" lon="5.54612">
        <time>1970-01-01T00:00:00+00:00</time>
        <ele>1219.0</ele>
      </trkpt>
      <trkpt lat="44.8554233" lon="5.54612">
        <time>1970-01-01T00:00:00+00:00</time>
        <ele>1219.0</ele>
      </trkpt>
      <trkpt lat="44.8553883" lon="5.546015">
        <time>1970-01-01T00:00:00+00:00</time>
        <ele>1219.0</ele>
      </trkpt>
      <trkpt lat="44.8553883" lon="5.546015">
        <time>1970-01-01T00:00:00+00:00</time>
        <ele>1219.0</ele>
      </trkpt>
      <trkpt lat="44.855365" lon="5.5459367">
        <time>1970-01-01T00:00:00+00:00</time>
        <ele>1220.0</ele>
      </trkpt>
      <trkpt lat="44.855365" lon="5.5459367">
        <time>1970-01-01T00:00:00+00:00</time>
        <ele>1220.0</ele>
      </trkpt>
      <trkpt lat="44.85532" lon="5.5458367">
        <time>1970-01-01T00:00:00+00:00</time>
        <ele>1220.0</ele>
      </trkpt>
      <trkpt lat="44.85532" lon="5.5458367">
        <time>1970-01-01T00:00:00+00:00</time>
        <ele>1220.0</ele>
      </trkpt>
      <trkpt lat="44.8552667" lon="5.545745">
        <time>1970-01-01T00:00:00+00:00</time>
        <ele>1221.0</ele>
      </trkpt>
      <trkpt lat="44.8552667" lon="5.545745">
        <time>1970-01-01T00:00:00+00:00</time>
        <ele>1221.0</ele>
      </trkpt>
      <trkpt lat="44.85527" lon="5.54563">
        <time>1970-01-01T00:00:00+00:00</time>
        <ele>1222.0</ele>
      </trkpt>
      <trkpt lat="44.85527" lon="5.54563">
        <time>1970-01-01T00:00:00+00:00</time>
        <ele>1222.0</ele>
      </trkpt>
      <trkpt lat="44.8552517" lon="5.5455117">
        <time>1970-01-01T00:00:00+00:00</time>
        <ele>1222.0</ele>
      </trkpt>
      <trkpt lat="44.8552517" lon="5.5455117">
        <time>1970-01-01T00:00:00+00:00</time>
        <ele>1222.0</ele>
      </trkpt>
      <trkpt lat="44.8552433" lon="5.5454033">
        <time>1970-01-01T00:00:00+00:00</time>
        <ele>1223.0</ele>
      </trkpt>
      <trkpt lat="44.8552433" lon="5.5454033">
        <time>1970-01-01T00:00:00+00:00</time>
        <ele>1223.0</ele>
      </trkpt>
      <trkpt lat="44.85524" lon="5.5452917">
        <time>1970-01-01T00:00:00+00:00</time>
        <ele>1224.0</ele>
      </trkpt>
      <trkpt lat="44.85524" lon="5.5452917">
        <time>1970-01-01T00:00:00+00:00</time>
        <ele>1224.0</ele>
      </trkpt>
      <trkpt lat="44.85524" lon="5.54519">
        <time>1970-01-01T00:00:00+00:00</time>
        <ele>1224.0</ele>
      </trkpt>
      <trkpt lat="44.85524" lon="5.54519">
        <time>1970-01-01T00:00:00+00:00</time>
        <ele>1224.0</ele>
      </trkpt>
      <trkpt lat="44.8552633" lon="5.545075">
        <time>1970-01-01T00:00:00+00:00</time>
        <ele>1225.0</ele>
      </trkpt>
      <trkpt lat="44.8552633" lon="5.545075">
        <time>1970-01-01T00:00:00+00:00</time>
        <ele>1225.0</ele>
      </trkpt>
      <trkpt lat="44.8552783" lon="5.5449683">
        <time>1970-01-01T00:00:00+00:00</time>
        <ele>1226.0</ele>
      </trkpt>
      <trkpt lat="44.8552783" lon="5.5449683">
        <time>1970-01-01T00:00:00+00:00</time>
        <ele>1226.0</ele>
      </trkpt>
      <trkpt lat="44.855285" lon="5.5448867">
        <time>1970-01-01T00:00:00+00:00</time>
        <ele>1226.0</ele>
      </trkpt>
      <trkpt lat="44.855285" lon="5.5448867">
        <time>1970-01-01T00:00:00+00:00</time>
        <ele>1226.0</ele>
      </trkpt>
      <trkpt lat="44.855255" lon="5.5448117">
        <time>1970-01-01T00:00:00+00:00</time>
        <ele>1227.0</ele>
      </trkpt>
      <trkpt lat="44.855255" lon="5.5448117">
        <time>1970-01-01T00:00:00+00:00</time>
        <ele>1227.0</ele>
      </trkpt>
      <trkpt lat="44.855255" lon="5.5447017">
        <time>1970-01-01T00:00:00+00:00</time>
        <ele>1227.0</ele>
      </trkpt>
      <trkpt lat="44.855255" lon="5.5447017">
        <time>1970-01-01T00:00:00+00:00</time>
        <ele>1227.0</ele>
      </trkpt>
      <trkpt lat="44.85524" lon="5.5445883">
        <time>1970-01-01T00:00:00+00:00</time>
        <ele>1228.0</ele>
      </trkpt>
      <trkpt lat="44.85524" lon="5.5445883">
        <time>1970-01-01T00:00:00+00:00</time>
        <ele>1228.0</ele>
      </trkpt>
      <trkpt lat="44.8552167" lon="5.544485">
        <time>1970-01-01T00:00:00+00:00</time>
        <ele>1229.0</ele>
      </trkpt>
      <trkpt lat="44.8552167" lon="5.544485">
        <time>1970-01-01T00:00:00+00:00</time>
        <ele>1229.0</ele>
      </trkpt>
      <trkpt lat="44.8551933" lon="5.5443883">
        <time>1970-01-01T00:00:00+00:00</time>
        <ele>1230.0</ele>
      </trkpt>
      <trkpt lat="44.8551933" lon="5.5443883">
        <time>1970-01-01T00:00:00+00:00</time>
        <ele>1230.0</ele>
      </trkpt>
      <trkpt lat="44.85516" lon="5.5443133">
        <time>1970-01-01T00:00:00+00:00</time>
        <ele>1231.0</ele>
      </trkpt>
      <trkpt lat="44.85516" lon="5.5443133">
        <time>1970-01-01T00:00:00+00:00</time>
        <ele>1231.0</ele>
      </trkpt>
      <trkpt lat="44.8551517" lon="5.5442217">
        <time>1970-01-01T00:00:00+00:00</time>
        <ele>1232.0</ele>
      </trkpt>
      <trkpt lat="44.8551517" lon="5.5442217">
        <time>1970-01-01T00:00:00+00:00</time>
        <ele>1232.0</ele>
      </trkpt>
      <trkpt lat="44.855145" lon="5.54412">
        <time>1970-01-01T00:00:00+00:00</time>
        <ele>1233.0</ele>
      </trkpt>
      <trkpt lat="44.855145" lon="5.54412">
        <time>1970-01-01T00:00:00+00:00</time>
        <ele>1233.0</ele>
      </trkpt>
      <trkpt lat="44.85514" lon="5.5440067">
        <time>1970-01-01T00:00:00+00:00</time>
        <ele>1235.0</ele>
      </trkpt>
      <trkpt lat="44.85514" lon="5.5440067">
        <time>1970-01-01T00:00:00+00:00</time>
        <ele>1235.0</ele>
      </trkpt>
      <trkpt lat="44.8551517" lon="5.5438967">
        <time>1970-01-01T00:00:00+00:00</time>
        <ele>1236.0</ele>
      </trkpt>
      <trkpt lat="44.8551517" lon="5.5438967">
        <time>1970-01-01T00:00:00+00:00</time>
        <ele>1236.0</ele>
      </trkpt>
      <trkpt lat="44.8551833" lon="5.5438">
        <time>1970-01-01T00:00:00+00:00</time>
        <ele>1238.0</ele>
      </trkpt>
      <trkpt lat="44.8551833" lon="5.5438">
        <time>1970-01-01T00:00:00+00:00</time>
        <ele>1238.0</ele>
      </trkpt>
      <trkpt lat="44.85522" lon="5.54372">
        <time>1970-01-01T00:00:00+00:00</time>
        <ele>1238.0</ele>
      </trkpt>
      <trkpt lat="44.85522" lon="5.54372">
        <time>1970-01-01T00:00:00+00:00</time>
        <ele>1238.0</ele>
      </trkpt>
      <trkpt lat="44.855285" lon="5.5436883">
        <time>1970-01-01T00:00:00+00:00</time>
        <ele>1238.0</ele>
      </trkpt>
      <trkpt lat="44.855285" lon="5.5436883">
        <time>1970-01-01T00:00:00+00:00</time>
        <ele>1238.0</ele>
      </trkpt>
      <trkpt lat="44.8553433" lon="5.5436767">
        <time>1970-01-01T00:00:00+00:00</time>
        <ele>1238.0</ele>
      </trkpt>
      <trkpt lat="44.8553433" lon="5.5436767">
        <time>1970-01-01T00:00:00+00:00</time>
        <ele>1238.0</ele>
      </trkpt>
      <trkpt lat="44.855355" lon="5.5435533">
        <time>1970-01-01T00:00:00+00:00</time>
        <ele>1240.0</ele>
      </trkpt>
      <trkpt lat="44.855355" lon="5.5435533">
        <time>1970-01-01T00:00:00+00:00</time>
        <ele>1240.0</ele>
      </trkpt>
      <trkpt lat="44.855385" lon="5.5434583">
        <time>1970-01-01T00:00:00+00:00</time>
        <ele>1242.0</ele>
      </trkpt>
      <trkpt lat="44.855385" lon="5.5434583">
        <time>1970-01-01T00:00:00+00:00</time>
        <ele>1242.0</ele>
      </trkpt>
      <trkpt lat="44.8554467" lon="5.54342">
        <time>1970-01-01T00:00:00+00:00</time>
        <ele>1243.0</ele>
      </trkpt>
      <trkpt lat="44.8554467" lon="5.54342">
        <time>1970-01-01T00:00:00+00:00</time>
        <ele>1243.0</ele>
      </trkpt>
      <trkpt lat="44.85551" lon="5.543395">
        <time>1970-01-01T00:00:00+00:00</time>
        <ele>1243.0</ele>
      </trkpt>
      <trkpt lat="44.85551" lon="5.543395">
        <time>1970-01-01T00:00:00+00:00</time>
        <ele>1243.0</ele>
      </trkpt>
      <trkpt lat="44.8555633" lon="5.5433733">
        <time>1970-01-01T00:00:00+00:00</time>
        <ele>1244.0</ele>
      </trkpt>
      <trkpt lat="44.8555633" lon="5.5433733">
        <time>1970-01-01T00:00:00+00:00</time>
        <ele>1244.0</ele>
      </trkpt>
      <trkpt lat="44.8556517" lon="5.54332">
        <time>1970-01-01T00:00:00+00:00</time>
        <ele>1245.0</ele>
      </trkpt>
      <trkpt lat="44.8556517" lon="5.54332">
        <time>1970-01-01T00:00:00+00:00</time>
        <ele>1245.0</ele>
      </trkpt>
      <trkpt lat="44.8557083" lon="5.5432483">
        <time>1970-01-01T00:00:00+00:00</time>
        <ele>1247.0</ele>
      </trkpt>
      <trkpt lat="44.8557083" lon="5.5432483">
        <time>1970-01-01T00:00:00+00:00</time>
        <ele>1247.0</ele>
      </trkpt>
      <trkpt lat="44.8557733" lon="5.543215">
        <time>1970-01-01T00:00:00+00:00</time>
        <ele>1247.0</ele>
      </trkpt>
      <trkpt lat="44.8557733" lon="5.543215">
        <time>1970-01-01T00:00:00+00:00</time>
        <ele>1247.0</ele>
      </trkpt>
      <trkpt lat="44.85582" lon="5.5432083">
        <time>1970-01-01T00:00:00+00:00</time>
        <ele>1248.0</ele>
      </trkpt>
      <trkpt lat="44.85582" lon="5.5432083">
        <time>1970-01-01T00:00:00+00:00</time>
        <ele>1248.0</ele>
      </trkpt>
      <trkpt lat="44.855885" lon="5.54323">
        <time>1970-01-01T00:00:00+00:00</time>
        <ele>1248.0</ele>
      </trkpt>
      <trkpt lat="44.855885" lon="5.54323">
        <time>1970-01-01T00:00:00+00:00</time>
        <ele>1248.0</ele>
      </trkpt>
      <trkpt lat="44.85593" lon="5.5433133">
        <time>1970-01-01T00:00:00+00:00</time>
        <ele>1248.0</ele>
      </trkpt>
      <trkpt lat="44.85593" lon="5.5433133">
        <time>1970-01-01T00:00:00+00:00</time>
        <ele>1248.0</ele>
      </trkpt>
      <trkpt lat="44.8559833" lon="5.5433333">
        <time>1970-01-01T00:00:00+00:00</time>
        <ele>1249.0</ele>
      </trkpt>
      <trkpt lat="44.8559833" lon="5.5433333">
        <time>1970-01-01T00:00:00+00:00</time>
        <ele>1249.0</ele>
      </trkpt>
      <trkpt lat="44.856015" lon="5.5432667">
        <time>1970-01-01T00:00:00+00:00</time>
        <ele>1250.0</ele>
      </trkpt>
      <trkpt lat="44.856015" lon="5.5432667">
        <time>1970-01-01T00:00:00+00:00</time>
        <ele>1250.0</ele>
      </trkpt>
      <trkpt lat="44.8559983" lon="5.54318">
        <time>1970-01-01T00:00:00+00:00</time>
        <ele>1250.0</ele>
      </trkpt>
      <trkpt lat="44.8559983" lon="5.54318">
        <time>1970-01-01T00:00:00+00:00</time>
        <ele>1250.0</ele>
      </trkpt>
      <trkpt lat="44.8559917" lon="5.54307">
        <time>1970-01-01T00:00:00+00:00</time>
        <ele>1251.0</ele>
      </trkpt>
      <trkpt lat="44.8559917" lon="5.54307">
        <time>1970-01-01T00:00:00+00:00</time>
        <ele>1251.0</ele>
      </trkpt>
      <trkpt lat="44.8560067" lon="5.5429767">
        <time>1970-01-01T00:00:00+00:00</time>
        <ele>1252.0</ele>
      </trkpt>
      <trkpt lat="44.8560067" lon="5.5429767">
        <time>1970-01-01T00:00:00+00:00</time>
        <ele>1252.0</ele>
      </trkpt>
      <trkpt lat="44.8559833" lon="5.542895">
        <time>1970-01-01T00:00:00+00:00</time>
        <ele>1253.0</ele>
      </trkpt>
      <trkpt lat="44.8559833" lon="5.542895">
        <time>1970-01-01T00:00:00+00:00</time>
        <ele>1253.0</ele>
      </trkpt>
      <trkpt lat="44.8559717" lon="5.5427983">
        <time>1970-01-01T00:00:00+00:00</time>
        <ele>1254.0</ele>
      </trkpt>
      <trkpt lat="44.8559717" lon="5.5427983">
        <time>1970-01-01T00:00:00+00:00</time>
        <ele>1254.0</ele>
      </trkpt>
      <trkpt lat="44.8559617" lon="5.5427033">
        <time>1970-01-01T00:00:00+00:00</time>
        <ele>1255.0</ele>
      </trkpt>
      <trkpt lat="44.8559617" lon="5.5427033">
        <time>1970-01-01T00:00:00+00:00</time>
        <ele>1255.0</ele>
      </trkpt>
      <trkpt lat="44.855965" lon="5.542585">
        <time>1970-01-01T00:00:00+00:00</time>
        <ele>1255.0</ele>
      </trkpt>
      <trkpt lat="44.855965" lon="5.542585">
        <time>1970-01-01T00:00:00+00:00</time>
        <ele>1255.0</ele>
      </trkpt>
      <trkpt lat="44.85598" lon="5.5424833">
        <time>1970-01-01T00:00:00+00:00</time>
        <ele>1256.0</ele>
      </trkpt>
      <trkpt lat="44.85598" lon="5.5424833">
        <time>1970-01-01T00:00:00+00:00</time>
        <ele>1256.0</ele>
      </trkpt>
      <trkpt lat="44.8560067" lon="5.5424017">
        <time>1970-01-01T00:00:00+00:00</time>
        <ele>1256.0</ele>
      </trkpt>
      <trkpt lat="44.8560067" lon="5.5424017">
        <time>1970-01-01T00:00:00+00:00</time>
        <ele>1256.0</ele>
      </trkpt>
      <trkpt lat="44.8560517" lon="5.54232">
        <time>1970-01-01T00:00:00+00:00</time>
        <ele>1258.0</ele>
      </trkpt>
      <trkpt lat="44.8560517" lon="5.54232">
        <time>1970-01-01T00:00:00+00:00</time>
        <ele>1258.0</ele>
      </trkpt>
      <trkpt lat="44.8560867" lon="5.5422317">
        <time>1970-01-01T00:00:00+00:00</time>
        <ele>1259.0</ele>
      </trkpt>
      <trkpt lat="44.8560867" lon="5.5422317">
        <time>1970-01-01T00:00:00+00:00</time>
        <ele>1259.0</ele>
      </trkpt>
      <trkpt lat="44.8561167" lon="5.5421583">
        <time>1970-01-01T00:00:00+00:00</time>
        <ele>1260.0</ele>
      </trkpt>
      <trkpt lat="44.8561167" lon="5.5421583">
        <time>1970-01-01T00:00:00+00:00</time>
        <ele>1260.0</ele>
      </trkpt>
      <trkpt lat="44.856155" lon="5.5420917">
        <time>1970-01-01T00:00:00+00:00</time>
        <ele>1261.0</ele>
      </trkpt>
      <trkpt lat="44.856155" lon="5.5420917">
        <time>1970-01-01T00:00:00+00:00</time>
        <ele>1261.0</ele>
      </trkpt>
      <trkpt lat="44.8561967" lon="5.5419983">
        <time>1970-01-01T00:00:00+00:00</time>
        <ele>1263.0</ele>
      </trkpt>
      <trkpt lat="44.8561967" lon="5.5419983">
        <time>1970-01-01T00:00:00+00:00</time>
        <ele>1263.0</ele>
      </trkpt>
      <trkpt lat="44.8562233" lon="5.5419267">
        <time>1970-01-01T00:00:00+00:00</time>
        <ele>1264.0</ele>
      </trkpt>
      <trkpt lat="44.8562233" lon="5.5419267">
        <time>1970-01-01T00:00:00+00:00</time>
        <ele>1264.0</ele>
      </trkpt>
      <trkpt lat="44.856255" lon="5.5418417">
        <time>1970-01-01T00:00:00+00:00</time>
        <ele>1266.0</ele>
      </trkpt>
      <trkpt lat="44.856255" lon="5.5418417">
        <time>1970-01-01T00:00:00+00:00</time>
        <ele>1266.0</ele>
      </trkpt>
      <trkpt lat="44.85627" lon="5.54176">
        <time>1970-01-01T00:00:00+00:00</time>
        <ele>1267.0</ele>
      </trkpt>
      <trkpt lat="44.85627" lon="5.54176">
        <time>1970-01-01T00:00:00+00:00</time>
        <ele>1267.0</ele>
      </trkpt>
      <trkpt lat="44.8562933" lon="5.5416733">
        <time>1970-01-01T00:00:00+00:00</time>
        <ele>1269.0</ele>
      </trkpt>
      <trkpt lat="44.8562933" lon="5.5416733">
        <time>1970-01-01T00:00:00+00:00</time>
        <ele>1269.0</ele>
      </trkpt>
      <trkpt lat="44.85632" lon="5.541585">
        <time>1970-01-01T00:00:00+00:00</time>
        <ele>1271.0</ele>
      </trkpt>
      <trkpt lat="44.85632" lon="5.541585">
        <time>1970-01-01T00:00:00+00:00</time>
        <ele>1271.0</ele>
      </trkpt>
      <trkpt lat="44.85635" lon="5.541495">
        <time>1970-01-01T00:00:00+00:00</time>
        <ele>1274.0</ele>
      </trkpt>
      <trkpt lat="44.85635" lon="5.541495">
        <time>1970-01-01T00:00:00+00:00</time>
        <ele>1274.0</ele>
      </trkpt>
      <trkpt lat="44.8563767" lon="5.5414167">
        <time>1970-01-01T00:00:00+00:00</time>
        <ele>1276.0</ele>
      </trkpt>
      <trkpt lat="44.8563767" lon="5.5414167">
        <time>1970-01-01T00:00:00+00:00</time>
        <ele>1276.0</ele>
      </trkpt>
      <trkpt lat="44.8564033" lon="5.541325">
        <time>1970-01-01T00:00:00+00:00</time>
        <ele>1278.0</ele>
      </trkpt>
      <trkpt lat="44.8564033" lon="5.541325">
        <time>1970-01-01T00:00:00+00:00</time>
        <ele>1278.0</ele>
      </trkpt>
      <trkpt lat="44.8564217" lon="5.5412417">
        <time>1970-01-01T00:00:00+00:00</time>
        <ele>1280.0</ele>
      </trkpt>
      <trkpt lat="44.8564217" lon="5.5412417">
        <time>1970-01-01T00:00:00+00:00</time>
        <ele>1280.0</ele>
      </trkpt>
      <trkpt lat="44.856445" lon="5.5411533">
        <time>1970-01-01T00:00:00+00:00</time>
        <ele>1282.0</ele>
      </trkpt>
      <trkpt lat="44.856445" lon="5.5411533">
        <time>1970-01-01T00:00:00+00:00</time>
        <ele>1282.0</ele>
      </trkpt>
      <trkpt lat="44.85646" lon="5.5410717">
        <time>1970-01-01T00:00:00+00:00</time>
        <ele>1283.0</ele>
      </trkpt>
      <trkpt lat="44.85646" lon="5.5410717">
        <time>1970-01-01T00:00:00+00:00</time>
        <ele>1283.0</ele>
      </trkpt>
      <trkpt lat="44.8564917" lon="5.5409917">
        <time>1970-01-01T00:00:00+00:00</time>
        <ele>1285.0</ele>
      </trkpt>
      <trkpt lat="44.8564917" lon="5.5409917">
        <time>1970-01-01T00:00:00+00:00</time>
        <ele>1285.0</ele>
      </trkpt>
      <trkpt lat="44.85651" lon="5.540925">
        <time>1970-01-01T00:00:00+00:00</time>
        <ele>1286.0</ele>
      </trkpt>
      <trkpt lat="44.85651" lon="5.540925">
        <time>1970-01-01T00:00:00+00:00</time>
        <ele>1286.0</ele>
      </trkpt>
      <trkpt lat="44.85651" lon="5.5408567">
        <time>1970-01-01T00:00:00+00:00</time>
        <ele>1287.0</ele>
      </trkpt>
      <trkpt lat="44.85651" lon="5.5408567">
        <time>1970-01-01T00:00:00+00:00</time>
        <ele>1287.0</ele>
      </trkpt>
      <trkpt lat="44.8565483" lon="5.5407717">
        <time>1970-01-01T00:00:00+00:00</time>
        <ele>1289.0</ele>
      </trkpt>
      <trkpt lat="44.8565483" lon="5.5407717">
        <time>1970-01-01T00:00:00+00:00</time>
        <ele>1289.0</ele>
      </trkpt>
      <trkpt lat="44.8565667" lon="5.5406967">
        <time>1970-01-01T00:00:00+00:00</time>
        <ele>1290.0</ele>
      </trkpt>
      <trkpt lat="44.8565667" lon="5.5406967">
        <time>1970-01-01T00:00:00+00:00</time>
        <ele>1290.0</ele>
      </trkpt>
      <trkpt lat="44.8565933" lon="5.540615">
        <time>1970-01-01T00:00:00+00:00</time>
        <ele>1291.0</ele>
      </trkpt>
      <trkpt lat="44.8565933" lon="5.540615">
        <time>1970-01-01T00:00:00+00:00</time>
        <ele>1291.0</ele>
      </trkpt>
      <trkpt lat="44.8566367" lon="5.54053">
        <time>1970-01-01T00:00:00+00:00</time>
        <ele>1292.0</ele>
      </trkpt>
      <trkpt lat="44.8566367" lon="5.54053">
        <time>1970-01-01T00:00:00+00:00</time>
        <ele>1292.0</ele>
      </trkpt>
      <trkpt lat="44.8566967" lon="5.54045">
        <time>1970-01-01T00:00:00+00:00</time>
        <ele>1293.0</ele>
      </trkpt>
      <trkpt lat="44.8566967" lon="5.54045">
        <time>1970-01-01T00:00:00+00:00</time>
        <ele>1293.0</ele>
      </trkpt>
      <trkpt lat="44.856735" lon="5.5403583">
        <time>1970-01-01T00:00:00+00:00</time>
        <ele>1294.0</ele>
      </trkpt>
      <trkpt lat="44.856735" lon="5.5403583">
        <time>1970-01-01T00:00:00+00:00</time>
        <ele>1294.0</ele>
      </trkpt>
      <trkpt lat="44.85677" lon="5.540295">
        <time>1970-01-01T00:00:00+00:00</time>
        <ele>1295.0</ele>
      </trkpt>
      <trkpt lat="44.85677" lon="5.540295">
        <time>1970-01-01T00:00:00+00:00</time>
        <ele>1295.0</ele>
      </trkpt>
      <trkpt lat="44.8568183" lon="5.5401983">
        <time>1970-01-01T00:00:00+00:00</time>
        <ele>1297.0</ele>
      </trkpt>
      <trkpt lat="44.8568183" lon="5.5401983">
        <time>1970-01-01T00:00:00+00:00</time>
        <ele>1297.0</ele>
      </trkpt>
      <trkpt lat="44.8568683" lon="5.540145">
        <time>1970-01-01T00:00:00+00:00</time>
        <ele>1298.0</ele>
      </trkpt>
      <trkpt lat="44.8568683" lon="5.540145">
        <time>1970-01-01T00:00:00+00:00</time>
        <ele>1298.0</ele>
      </trkpt>
      <trkpt lat="44.8568883" lon="5.5400733">
        <time>1970-01-01T00:00:00+00:00</time>
        <ele>1299.0</ele>
      </trkpt>
      <trkpt lat="44.8568883" lon="5.5400733">
        <time>1970-01-01T00:00:00+00:00</time>
        <ele>1299.0</ele>
      </trkpt>
      <trkpt lat="44.8569417" lon="5.5399967">
        <time>1970-01-01T00:00:00+00:00</time>
        <ele>1300.0</ele>
      </trkpt>
      <trkpt lat="44.8569417" lon="5.5399967">
        <time>1970-01-01T00:00:00+00:00</time>
        <ele>1300.0</ele>
      </trkpt>
      <trkpt lat="44.856995" lon="5.5399633">
        <time>1970-01-01T00:00:00+00:00</time>
        <ele>1301.0</ele>
      </trkpt>
      <trkpt lat="44.856995" lon="5.5399633">
        <time>1970-01-01T00:00:00+00:00</time>
        <ele>1301.0</ele>
      </trkpt>
      <trkpt lat="44.857025" lon="5.539885">
        <time>1970-01-01T00:00:00+00:00</time>
        <ele>1302.0</ele>
      </trkpt>
      <trkpt lat="44.857025" lon="5.539885">
        <time>1970-01-01T00:00:00+00:00</time>
        <ele>1302.0</ele>
      </trkpt>
      <trkpt lat="44.8570783" lon="5.5398033">
        <time>1970-01-01T00:00:00+00:00</time>
        <ele>1304.0</ele>
      </trkpt>
      <trkpt lat="44.8570783" lon="5.5398033">
        <time>1970-01-01T00:00:00+00:00</time>
        <ele>1304.0</ele>
      </trkpt>
      <trkpt lat="44.8571317" lon="5.5397167">
        <time>1970-01-01T00:00:00+00:00</time>
        <ele>1306.0</ele>
      </trkpt>
      <trkpt lat="44.8571317" lon="5.5397167">
        <time>1970-01-01T00:00:00+00:00</time>
        <ele>1306.0</ele>
      </trkpt>
      <trkpt lat="44.8571817" lon="5.53965">
        <time>1970-01-01T00:00:00+00:00</time>
        <ele>1307.0</ele>
      </trkpt>
      <trkpt lat="44.8571817" lon="5.53965">
        <time>1970-01-01T00:00:00+00:00</time>
        <ele>1307.0</ele>
      </trkpt>
      <trkpt lat="44.8572383" lon="5.5396283">
        <time>1970-01-01T00:00:00+00:00</time>
        <ele>1308.0</ele>
      </trkpt>
      <trkpt lat="44.8572383" lon="5.5396283">
        <time>1970-01-01T00:00:00+00:00</time>
        <ele>1308.0</ele>
      </trkpt>
      <trkpt lat="44.8573" lon="5.539575">
        <time>1970-01-01T00:00:00+00:00</time>
        <ele>1309.0</ele>
      </trkpt>
      <trkpt lat="44.8573" lon="5.539575">
        <time>1970-01-01T00:00:00+00:00</time>
        <ele>1309.0</ele>
      </trkpt>
      <trkpt lat="44.8573533" lon="5.53951">
        <time>1970-01-01T00:00:00+00:00</time>
        <ele>1311.0</ele>
      </trkpt>
      <trkpt lat="44.8573533" lon="5.53951">
        <time>1970-01-01T00:00:00+00:00</time>
        <ele>1311.0</ele>
      </trkpt>
      <trkpt lat="44.85738" lon="5.5393933">
        <time>1970-01-01T00:00:00+00:00</time>
        <ele>1313.0</ele>
      </trkpt>
      <trkpt lat="44.85738" lon="5.5393933">
        <time>1970-01-01T00:00:00+00:00</time>
        <ele>1313.0</ele>
      </trkpt>
      <trkpt lat="44.8573883" lon="5.5393033">
        <time>1970-01-01T00:00:00+00:00</time>
        <ele>1315.0</ele>
      </trkpt>
      <trkpt lat="44.8573883" lon="5.5393033">
        <time>1970-01-01T00:00:00+00:00</time>
        <ele>1315.0</ele>
      </trkpt>
      <trkpt lat="44.8573983" lon="5.5392133">
        <time>1970-01-01T00:00:00+00:00</time>
        <ele>1317.0</ele>
      </trkpt>
      <trkpt lat="44.8573983" lon="5.5392133">
        <time>1970-01-01T00:00:00+00:00</time>
        <ele>1317.0</ele>
      </trkpt>
      <trkpt lat="44.85741" lon="5.5391033">
        <time>1970-01-01T00:00:00+00:00</time>
        <ele>1319.0</ele>
      </trkpt>
      <trkpt lat="44.85741" lon="5.5391033">
        <time>1970-01-01T00:00:00+00:00</time>
        <ele>1319.0</ele>
      </trkpt>
      <trkpt lat="44.8573767" lon="5.53902">
        <time>1970-01-01T00:00:00+00:00</time>
        <ele>1321.0</ele>
      </trkpt>
      <trkpt lat="44.8573767" lon="5.53902">
        <time>1970-01-01T00:00:00+00:00</time>
        <ele>1321.0</ele>
      </trkpt>
      <trkpt lat="44.8573183" lon="5.539">
        <time>1970-01-01T00:00:00+00:00</time>
        <ele>1321.0</ele>
      </trkpt>
      <trkpt lat="44.8573183" lon="5.539">
        <time>1970-01-01T00:00:00+00:00</time>
        <ele>1321.0</ele>
      </trkpt>
      <trkpt lat="44.8572533" lon="5.538985">
        <time>1970-01-01T00:00:00+00:00</time>
        <ele>1322.0</ele>
      </trkpt>
      <trkpt lat="44.8572533" lon="5.538985">
        <time>1970-01-01T00:00:00+00:00</time>
        <ele>1322.0</ele>
      </trkpt>
      <trkpt lat="44.857205" lon="5.53894">
        <time>1970-01-01T00:00:00+00:00</time>
        <ele>1322.0</ele>
      </trkpt>
      <trkpt lat="44.857205" lon="5.53894">
        <time>1970-01-01T00:00:00+00:00</time>
        <ele>1322.0</ele>
      </trkpt>
      <trkpt lat="44.8571517" lon="5.5389017">
        <time>1970-01-01T00:00:00+00:00</time>
        <ele>1323.0</ele>
      </trkpt>
      <trkpt lat="44.8571517" lon="5.5389017">
        <time>1970-01-01T00:00:00+00:00</time>
        <ele>1323.0</ele>
      </trkpt>
      <trkpt lat="44.8571017" lon="5.5388667">
        <time>1970-01-01T00:00:00+00:00</time>
        <ele>1323.0</ele>
      </trkpt>
      <trkpt lat="44.8571017" lon="5.5388667">
        <time>1970-01-01T00:00:00+00:00</time>
        <ele>1323.0</ele>
      </trkpt>
      <trkpt lat="44.857045" lon="5.5388083">
        <time>1970-01-01T00:00:00+00:00</time>
        <ele>1324.0</ele>
      </trkpt>
      <trkpt lat="44.857045" lon="5.5388083">
        <time>1970-01-01T00:00:00+00:00</time>
        <ele>1324.0</ele>
      </trkpt>
      <trkpt lat="44.856995" lon="5.5387517">
        <time>1970-01-01T00:00:00+00:00</time>
        <ele>1324.0</ele>
      </trkpt>
      <trkpt lat="44.856995" lon="5.5387517">
        <time>1970-01-01T00:00:00+00:00</time>
        <ele>1324.0</ele>
      </trkpt>
      <trkpt lat="44.8569533" lon="5.5386617">
        <time>1970-01-01T00:00:00+00:00</time>
        <ele>1326.0</ele>
      </trkpt>
      <trkpt lat="44.8569533" lon="5.5386617">
        <time>1970-01-01T00:00:00+00:00</time>
        <ele>1326.0</ele>
      </trkpt>
      <trkpt lat="44.8570217" lon="5.538605">
        <time>1970-01-01T00:00:00+00:00</time>
        <ele>1328.0</ele>
      </trkpt>
      <trkpt lat="44.8570217" lon="5.538605">
        <time>1970-01-01T00:00:00+00:00</time>
        <ele>1328.0</ele>
      </trkpt>
      <trkpt lat="44.85709" lon="5.5385917">
        <time>1970-01-01T00:00:00+00:00</time>
        <ele>1330.0</ele>
      </trkpt>
      <trkpt lat="44.85709" lon="5.5385917">
        <time>1970-01-01T00:00:00+00:00</time>
        <ele>1330.0</ele>
      </trkpt>
      <trkpt lat="44.857155" lon="5.5385967">
        <time>1970-01-01T00:00:00+00:00</time>
        <ele>1330.0</ele>
      </trkpt>
      <trkpt lat="44.857155" lon="5.5385967">
        <time>1970-01-01T00:00:00+00:00</time>
        <ele>1330.0</ele>
      </trkpt>
      <trkpt lat="44.8572233" lon="5.53859">
        <time>1970-01-01T00:00:00+00:00</time>
        <ele>1331.0</ele>
      </trkpt>
      <trkpt lat="44.8572233" lon="5.53859">
        <time>1970-01-01T00:00:00+00:00</time>
        <ele>1331.0</ele>
      </trkpt>
      <trkpt lat="44.8572883" lon="5.538595">
        <time>1970-01-01T00:00:00+00:00</time>
        <ele>1332.0</ele>
      </trkpt>
      <trkpt lat="44.8572883" lon="5.538595">
        <time>1970-01-01T00:00:00+00:00</time>
        <ele>1332.0</ele>
      </trkpt>
      <trkpt lat="44.85719" lon="5.5385233">
        <time>1970-01-01T00:00:00+00:00</time>
        <ele>1333.0</ele>
      </trkpt>
      <trkpt lat="44.85719" lon="5.5385233">
        <time>1970-01-01T00:00:00+00:00</time>
        <ele>1333.0</ele>
      </trkpt>
      <trkpt lat="44.8571317" lon="5.5384517">
        <time>1970-01-01T00:00:00+00:00</time>
        <ele>1334.0</ele>
      </trkpt>
      <trkpt lat="44.8571317" lon="5.5384517">
        <time>1970-01-01T00:00:00+00:00</time>
        <ele>1334.0</ele>
      </trkpt>
      <trkpt lat="44.85709" lon="5.5383783">
        <time>1970-01-01T00:00:00+00:00</time>
        <ele>1335.0</ele>
      </trkpt>
      <trkpt lat="44.85709" lon="5.5383783">
        <time>1970-01-01T00:00:00+00:00</time>
        <ele>1335.0</ele>
      </trkpt>
      <trkpt lat="44.8570517" lon="5.538275">
        <time>1970-01-01T00:00:00+00:00</time>
        <ele>1337.0</ele>
      </trkpt>
      <trkpt lat="44.8570517" lon="5.538275">
        <time>1970-01-01T00:00:00+00:00</time>
        <ele>1337.0</ele>
      </trkpt>
      <trkpt lat="44.85701" lon="5.538195">
        <time>1970-01-01T00:00:00+00:00</time>
        <ele>1339.0</ele>
      </trkpt>
      <trkpt lat="44.85701" lon="5.538195">
        <time>1970-01-01T00:00:00+00:00</time>
        <ele>1339.0</ele>
      </trkpt>
      <trkpt lat="44.85698" lon="5.5381133">
        <time>1970-01-01T00:00:00+00:00</time>
        <ele>1340.0</ele>
      </trkpt>
      <trkpt lat="44.85698" lon="5.5381133">
        <time>1970-01-01T00:00:00+00:00</time>
        <ele>1340.0</ele>
      </trkpt>
      <trkpt lat="44.8570667" lon="5.53817">
        <time>1970-01-01T00:00:00+00:00</time>
        <ele>1340.0</ele>
      </trkpt>
      <trkpt lat="44.8570667" lon="5.53817">
        <time>1970-01-01T00:00:00+00:00</time>
        <ele>1340.0</ele>
      </trkpt>
      <trkpt lat="44.8571317" lon="5.538205">
        <time>1970-01-01T00:00:00+00:00</time>
        <ele>1340.0</ele>
      </trkpt>
      <trkpt lat="44.8571317" lon="5.538205">
        <time>1970-01-01T00:00:00+00:00</time>
        <ele>1340.0</ele>
      </trkpt>
      <trkpt lat="44.8571967" lon="5.53821">
        <time>1970-01-01T00:00:00+00:00</time>
        <ele>1341.0</ele>
      </trkpt>
      <trkpt lat="44.8571967" lon="5.53821">
        <time>1970-01-01T00:00:00+00:00</time>
        <ele>1341.0</ele>
      </trkpt>
      <trkpt lat="44.8572617" lon="5.5382233">
        <time>1970-01-01T00:00:00+00:00</time>
        <ele>1342.0</ele>
      </trkpt>
      <trkpt lat="44.8572617" lon="5.5382233">
        <time>1970-01-01T00:00:00+00:00</time>
        <ele>1342.0</ele>
      </trkpt>
      <trkpt lat="44.8573383" lon="5.538215">
        <time>1970-01-01T00:00:00+00:00</time>
        <ele>1342.0</ele>
      </trkpt>
      <trkpt lat="44.8573383" lon="5.538215">
        <time>1970-01-01T00:00:00+00:00</time>
        <ele>1342.0</ele>
      </trkpt>
      <trkpt lat="44.8573033" lon="5.53817">
        <time>1970-01-01T00:00:00+00:00</time>
        <ele>1344.0</ele>
      </trkpt>
      <trkpt lat="44.8573033" lon="5.53817">
        <time>1970-01-01T00:00:00+00:00</time>
        <ele>1344.0</ele>
      </trkpt>
      <trkpt lat="44.8572533" lon="5.53811">
        <time>1970-01-01T00:00:00+00:00</time>
        <ele>1345.0</ele>
      </trkpt>
      <trkpt lat="44.8572533" lon="5.53811">
        <time>1970-01-01T00:00:00+00:00</time>
        <ele>1345.0</ele>
      </trkpt>
      <trkpt lat="44.8572267" lon="5.5380433">
        <time>1970-01-01T00:00:00+00:00</time>
        <ele>1346.0</ele>
      </trkpt>
      <trkpt lat="44.8572267" lon="5.5380433">
        <time>1970-01-01T00:00:00+00:00</time>
        <ele>1346.0</ele>
      </trkpt>
      <trkpt lat="44.857205" lon="5.5379717">
        <time>1970-01-01T00:00:00+00:00</time>
        <ele>1348.0</ele>
      </trkpt>
      <trkpt lat="44.857205" lon="5.5379717">
        <time>1970-01-01T00:00:00+00:00</time>
        <ele>1348.0</ele>
      </trkpt>
      <trkpt lat="44.8571667" lon="5.5379267">
        <time>1970-01-01T00:00:00+00:00</time>
        <ele>1349.0</ele>
      </trkpt>
      <trkpt lat="44.8571667" lon="5.5379267">
        <time>1970-01-01T00:00:00+00:00</time>
        <ele>1349.0</ele>
      </trkpt>
      <trkpt lat="44.857235" lon="5.537825">
        <time>1970-01-01T00:00:00+00:00</time>
        <ele>1352.0</ele>
      </trkpt>
      <trkpt lat="44.857235" lon="5.537825">
        <time>1970-01-01T00:00:00+00:00</time>
        <ele>1352.0</ele>
      </trkpt>
      <trkpt lat="44.8572233" lon="5.5377383">
        <time>1970-01-01T00:00:00+00:00</time>
        <ele>1355.0</ele>
      </trkpt>
      <trkpt lat="44.8572233" lon="5.5377383">
        <time>1970-01-01T00:00:00+00:00</time>
        <ele>1355.0</ele>
      </trkpt>
      <trkpt lat="44.857205" lon="5.537635">
        <time>1970-01-01T00:00:00+00:00</time>
        <ele>1358.0</ele>
      </trkpt>
      <trkpt lat="44.857205" lon="5.537635">
        <time>1970-01-01T00:00:00+00:00</time>
        <ele>1358.0</ele>
      </trkpt>
      <trkpt lat="44.8572167" lon="5.53755">
        <time>1970-01-01T00:00:00+00:00</time>
        <ele>1360.0</ele>
      </trkpt>
      <trkpt lat="44.8572167" lon="5.53755">
        <time>1970-01-01T00:00:00+00:00</time>
        <ele>1360.0</ele>
      </trkpt>
      <trkpt lat="44.8572083" lon="5.5374433">
        <time>1970-01-01T00:00:00+00:00</time>
        <ele>1363.0</ele>
      </trkpt>
      <trkpt lat="44.8572083" lon="5.5374433">
        <time>1970-01-01T00:00:00+00:00</time>
        <ele>1363.0</ele>
      </trkpt>
      <trkpt lat="44.85727" lon="5.5373817">
        <time>1970-01-01T00:00:00+00:00</time>
        <ele>1366.0</ele>
      </trkpt>
      <trkpt lat="44.85727" lon="5.5373817">
        <time>1970-01-01T00:00:00+00:00</time>
        <ele>1366.0</ele>
      </trkpt>
      <trkpt lat="44.8573333" lon="5.537395">
        <time>1970-01-01T00:00:00+00:00</time>
        <ele>1366.0</ele>
      </trkpt>
      <trkpt lat="44.8573333" lon="5.537395">
        <time>1970-01-01T00:00:00+00:00</time>
        <ele>1366.0</ele>
      </trkpt>
      <trkpt lat="44.8574033" lon="5.5373717">
        <time>1970-01-01T00:00:00+00:00</time>
        <ele>1367.0</ele>
      </trkpt>
      <trkpt lat="44.8574033" lon="5.5373717">
        <time>1970-01-01T00:00:00+00:00</time>
        <ele>1367.0</ele>
      </trkpt>
      <trkpt lat="44.8574683" lon="5.537295">
        <time>1970-01-01T00:00:00+00:00</time>
        <ele>1369.0</ele>
      </trkpt>
      <trkpt lat="44.8574683" lon="5.537295">
        <time>1970-01-01T00:00:00+00:00</time>
        <ele>1369.0</ele>
      </trkpt>
      <trkpt lat="44.8574333" lon="5.5371983">
        <time>1970-01-01T00:00:00+00:00</time>
        <ele>1371.0</ele>
      </trkpt>
      <trkpt lat="44.8574333" lon="5.5371983">
        <time>1970-01-01T00:00:00+00:00</time>
        <ele>1371.0</ele>
      </trkpt>
      <trkpt lat="44.857395" lon="5.537065">
        <time>1970-01-01T00:00:00+00:00</time>
        <ele>1373.0</ele>
      </trkpt>
      <trkpt lat="44.857395" lon="5.537065">
        <time>1970-01-01T00:00:00+00:00</time>
        <ele>1373.0</ele>
      </trkpt>
      <trkpt lat="44.8573267" lon="5.53694">
        <time>1970-01-01T00:00:00+00:00</time>
        <ele>1374.0</ele>
      </trkpt>
      <trkpt lat="44.8573267" lon="5.53694">
        <time>1970-01-01T00:00:00+00:00</time>
        <ele>1374.0</ele>
      </trkpt>
      <trkpt lat="44.85727" lon="5.5368417">
        <time>1970-01-01T00:00:00+00:00</time>
        <ele>1375.0</ele>
      </trkpt>
      <trkpt lat="44.85727" lon="5.5368417">
        <time>1970-01-01T00:00:00+00:00</time>
        <ele>1375.0</ele>
      </trkpt>
      <trkpt lat="44.8573117" lon="5.5367217">
        <time>1970-01-01T00:00:00+00:00</time>
        <ele>1378.0</ele>
      </trkpt>
      <trkpt lat="44.8573117" lon="5.5367217">
        <time>1970-01-01T00:00:00+00:00</time>
        <ele>1378.0</ele>
      </trkpt>
      <trkpt lat="44.8573417" lon="5.5366233">
        <time>1970-01-01T00:00:00+00:00</time>
        <ele>1380.0</ele>
      </trkpt>
      <trkpt lat="44.8573417" lon="5.5366233">
        <time>1970-01-01T00:00:00+00:00</time>
        <ele>1380.0</ele>
      </trkpt>
      <trkpt lat="44.8574033" lon="5.5365283">
        <time>1970-01-01T00:00:00+00:00</time>
        <ele>1384.0</ele>
      </trkpt>
      <trkpt lat="44.8574033" lon="5.5365283">
        <time>1970-01-01T00:00:00+00:00</time>
        <ele>1384.0</ele>
      </trkpt>
      <trkpt lat="44.8574683" lon="5.5365167">
        <time>1970-01-01T00:00:00+00:00</time>
        <ele>1385.0</ele>
      </trkpt>
      <trkpt lat="44.8574683" lon="5.5365167">
        <time>1970-01-01T00:00:00+00:00</time>
        <ele>1385.0</ele>
      </trkpt>
      <trkpt lat="44.8575333" lon="5.5365533">
        <time>1970-01-01T00:00:00+00:00</time>
        <ele>1385.0</ele>
      </trkpt>
      <trkpt lat="44.8575333" lon="5.5365533">
        <time>1970-01-01T00:00:00+00:00</time>
        <ele>1385.0</ele>
      </trkpt>
      <trkpt lat="44.8576083" lon="5.5365633">
        <time>1970-01-01T00:00:00+00:00</time>
        <ele>1385.0</ele>
      </trkpt>
      <trkpt lat="44.8576083" lon="5.5365633">
        <time>1970-01-01T00:00:00+00:00</time>
        <ele>1385.0</ele>
      </trkpt>
      <trkpt lat="44.8575933" lon="5.5364517">
        <time>1970-01-01T00:00:00+00:00</time>
        <ele>1387.0</ele>
      </trkpt>
      <trkpt lat="44.8575933" lon="5.5364517">
        <time>1970-01-01T00:00:00+00:00</time>
        <ele>1387.0</ele>
      </trkpt>
      <trkpt lat="44.857525" lon="5.53631">
        <time>1970-01-01T00:00:00+00:00</time>
        <ele>1389.0</ele>
      </trkpt>
      <trkpt lat="44.857525" lon="5.53631">
        <time>1970-01-01T00:00:00+00:00</time>
        <ele>1389.0</ele>
      </trkpt>
      <trkpt lat="44.857475" lon="5.5362367">
        <time>1970-01-01T00:00:00+00:00</time>
        <ele>1390.0</ele>
      </trkpt>
      <trkpt lat="44.857475" lon="5.5362367">
        <time>1970-01-01T00:00:00+00:00</time>
        <ele>1390.0</ele>
      </trkpt>
      <trkpt lat="44.8574367" lon="5.536175">
        <time>1970-01-01T00:00:00+00:00</time>
        <ele>1390.0</ele>
      </trkpt>
      <trkpt lat="44.8574367" lon="5.536175">
        <time>1970-01-01T00:00:00+00:00</time>
        <ele>1390.0</ele>
      </trkpt>
      <trkpt lat="44.8573717" lon="5.5361">
        <time>1970-01-01T00:00:00+00:00</time>
        <ele>1389.0</ele>
      </trkpt>
      <trkpt lat="44.8573717" lon="5.5361">
        <time>1970-01-01T00:00:00+00:00</time>
        <ele>1389.0</ele>
      </trkpt>
      <trkpt lat="44.8572767" lon="5.53601">
        <time>1970-01-01T00:00:00+00:00</time>
        <ele>1387.0</ele>
      </trkpt>
      <trkpt lat="44.8572767" lon="5.53601">
        <time>1970-01-01T00:00:00+00:00</time>
        <ele>1387.0</ele>
      </trkpt>
      <trkpt lat="44.8572383" lon="5.5359317">
        <time>1970-01-01T00:00:00+00:00</time>
        <ele>1386.0</ele>
      </trkpt>
      <trkpt lat="44.8572383" lon="5.5359317">
        <time>1970-01-01T00:00:00+00:00</time>
        <ele>1386.0</ele>
      </trkpt>
      <trkpt lat="44.8572083" lon="5.535845">
        <time>1970-01-01T00:00:00+00:00</time>
        <ele>1385.0</ele>
      </trkpt>
      <trkpt lat="44.8572083" lon="5.535845">
        <time>1970-01-01T00:00:00+00:00</time>
        <ele>1385.0</ele>
      </trkpt>
      <trkpt lat="44.85719" lon="5.53575">
        <time>1970-01-01T00:00:00+00:00</time>
        <ele>1386.0</ele>
      </trkpt>
      <trkpt lat="44.85719" lon="5.53575">
        <time>1970-01-01T00:00:00+00:00</time>
        <ele>1386.0</ele>
      </trkpt>
      <trkpt lat="44.8572083" lon="5.5356717">
        <time>1970-01-01T00:00:00+00:00</time>
        <ele>1387.0</ele>
      </trkpt>
      <trkpt lat="44.8572083" lon="5.5356717">
        <time>1970-01-01T00:00:00+00:00</time>
        <ele>1387.0</ele>
      </trkpt>
      <trkpt lat="44.8571967" lon="5.5355867">
        <time>1970-01-01T00:00:00+00:00</time>
        <ele>1388.0</ele>
      </trkpt>
      <trkpt lat="44.8571967" lon="5.5355867">
        <time>1970-01-01T00:00:00+00:00</time>
        <ele>1388.0</ele>
      </trkpt>
      <trkpt lat="44.857185" lon="5.5354817">
        <time>1970-01-01T00:00:00+00:00</time>
        <ele>1388.0</ele>
      </trkpt>
      <trkpt lat="44.857185" lon="5.5354817">
        <time>1970-01-01T00:00:00+00:00</time>
        <ele>1388.0</ele>
      </trkpt>
      <trkpt lat="44.8571817" lon="5.535385">
        <time>1970-01-01T00:00:00+00:00</time>
        <ele>1389.0</ele>
      </trkpt>
      <trkpt lat="44.8571817" lon="5.535385">
        <time>1970-01-01T00:00:00+00:00</time>
        <ele>1389.0</ele>
      </trkpt>
      <trkpt lat="44.8571733" lon="5.5352767">
        <time>1970-01-01T00:00:00+00:00</time>
        <ele>1390.0</ele>
      </trkpt>
      <trkpt lat="44.8571733" lon="5.5352767">
        <time>1970-01-01T00:00:00+00:00</time>
        <ele>1390.0</ele>
      </trkpt>
      <trkpt lat="44.8571467" lon="5.5351717">
        <time>1970-01-01T00:00:00+00:00</time>
        <ele>1391.0</ele>
      </trkpt>
      <trkpt lat="44.8571467" lon="5.5351717">
        <time>1970-01-01T00:00:00+00:00</time>
        <ele>1391.0</ele>
      </trkpt>
      <trkpt lat="44.8571133" lon="5.535075">
        <time>1970-01-01T00:00:00+00:00</time>
        <ele>1391.0</ele>
      </trkpt>
      <trkpt lat="44.8571133" lon="5.535075">
        <time>1970-01-01T00:00:00+00:00</time>
        <ele>1391.0</ele>
      </trkpt>
      <trkpt lat="44.8570783" lon="5.5349967">
        <time>1970-01-01T00:00:00+00:00</time>
        <ele>1390.0</ele>
      </trkpt>
      <trkpt lat="44.8570783" lon="5.5349967">
        <time>1970-01-01T00:00:00+00:00</time>
        <ele>1390.0</ele>
      </trkpt>
      <trkpt lat="44.857045" lon="5.53491">
        <time>1970-01-01T00:00:00+00:00</time>
        <ele>1390.0</ele>
      </trkpt>
      <trkpt lat="44.857045" lon="5.53491">
        <time>1970-01-01T00:00:00+00:00</time>
        <ele>1390.0</ele>
      </trkpt>
      <trkpt lat="44.85701" lon="5.53484">
        <time>1970-01-01T00:00:00+00:00</time>
        <ele>1390.0</ele>
      </trkpt>
      <trkpt lat="44.85701" lon="5.53484">
        <time>1970-01-01T00:00:00+00:00</time>
        <ele>1390.0</ele>
      </trkpt>
      <trkpt lat="44.8569633" lon="5.5347667">
        <time>1970-01-01T00:00:00+00:00</time>
        <ele>1389.0</ele>
      </trkpt>
      <trkpt lat="44.8569633" lon="5.5347667">
        <time>1970-01-01T00:00:00+00:00</time>
        <ele>1389.0</ele>
      </trkpt>
      <trkpt lat="44.8569033" lon="5.5346983">
        <time>1970-01-01T00:00:00+00:00</time>
        <ele>1388.0</ele>
      </trkpt>
      <trkpt lat="44.8569033" lon="5.5346983">
        <time>1970-01-01T00:00:00+00:00</time>
        <ele>1388.0</ele>
      </trkpt>
      <trkpt lat="44.8568467" lon="5.5346067">
        <time>1970-01-01T00:00:00+00:00</time>
        <ele>1388.0</ele>
      </trkpt>
      <trkpt lat="44.8568467" lon="5.5346067">
        <time>1970-01-01T00:00:00+00:00</time>
        <ele>1388.0</ele>
      </trkpt>
      <trkpt lat="44.8567817" lon="5.5345267">
        <time>1970-01-01T00:00:00+00:00</time>
        <ele>1388.0</ele>
      </trkpt>
      <trkpt lat="44.8567817" lon="5.5345267">
        <time>1970-01-01T00:00:00+00:00</time>
        <ele>1388.0</ele>
      </trkpt>
      <trkpt lat="44.8567233" lon="5.53445">
        <time>1970-01-01T00:00:00+00:00</time>
        <ele>1387.0</ele>
      </trkpt>
      <trkpt lat="44.8567233" lon="5.53445">
        <time>1970-01-01T00:00:00+00:00</time>
        <ele>1387.0</ele>
      </trkpt>
      <trkpt lat="44.85667" lon="5.5343933">
        <time>1970-01-01T00:00:00+00:00</time>
        <ele>1388.0</ele>
      </trkpt>
      <trkpt lat="44.85667" lon="5.5343933">
        <time>1970-01-01T00:00:00+00:00</time>
        <ele>1388.0</ele>
      </trkpt>
      <trkpt lat="44.8566017" lon="5.5342983">
        <time>1970-01-01T00:00:00+00:00</time>
        <ele>1389.0</ele>
      </trkpt>
      <trkpt lat="44.8566017" lon="5.5342983">
        <time>1970-01-01T00:00:00+00:00</time>
        <ele>1389.0</ele>
      </trkpt>
      <trkpt lat="44.8565567" lon="5.5342383">
        <time>1970-01-01T00:00:00+00:00</time>
        <ele>1389.0</ele>
      </trkpt>
      <trkpt lat="44.8565567" lon="5.5342383">
        <time>1970-01-01T00:00:00+00:00</time>
        <ele>1389.0</ele>
      </trkpt>
      <trkpt lat="44.85651" lon="5.53419">
        <time>1970-01-01T00:00:00+00:00</time>
        <ele>1390.0</ele>
      </trkpt>
      <trkpt lat="44.85651" lon="5.53419">
        <time>1970-01-01T00:00:00+00:00</time>
        <ele>1390.0</ele>
      </trkpt>
      <trkpt lat="44.85646" lon="5.534115">
        <time>1970-01-01T00:00:00+00:00</time>
        <ele>1392.0</ele>
      </trkpt>
      <trkpt lat="44.85646" lon="5.534115">
        <time>1970-01-01T00:00:00+00:00</time>
        <ele>1392.0</ele>
      </trkpt>
      <trkpt lat="44.85643" lon="5.534065">
        <time>1970-01-01T00:00:00+00:00</time>
        <ele>1394.0</ele>
      </trkpt>
      <trkpt lat="44.85643" lon="5.534065">
        <time>1970-01-01T00:00:00+00:00</time>
        <ele>1394.0</ele>
      </trkpt>
      <trkpt lat="44.85638" lon="5.534015">
        <time>1970-01-01T00:00:00+00:00</time>
        <ele>1396.0</ele>
      </trkpt>
      <trkpt lat="44.85638" lon="5.534015">
        <time>1970-01-01T00:00:00+00:00</time>
        <ele>1396.0</ele>
      </trkpt>
      <trkpt lat="44.8563233" lon="5.5339283">
        <time>1970-01-01T00:00:00+00:00</time>
        <ele>1398.0</ele>
      </trkpt>
      <trkpt lat="44.8563233" lon="5.5339283">
        <time>1970-01-01T00:00:00+00:00</time>
        <ele>1398.0</ele>
      </trkpt>
      <trkpt lat="44.8562767" lon="5.533905">
        <time>1970-01-01T00:00:00+00:00</time>
        <ele>1400.0</ele>
      </trkpt>
      <trkpt lat="44.8562767" lon="5.533905">
        <time>1970-01-01T00:00:00+00:00</time>
        <ele>1400.0</ele>
      </trkpt>
      <trkpt lat="44.8562133" lon="5.5338517">
        <time>1970-01-01T00:00:00+00:00</time>
        <ele>1402.0</ele>
      </trkpt>
      <trkpt lat="44.8562133" lon="5.5338517">
        <time>1970-01-01T00:00:00+00:00</time>
        <ele>1402.0</ele>
      </trkpt>
      <trkpt lat="44.8561817" lon="5.5339033">
        <time>1970-01-01T00:00:00+00:00</time>
        <ele>1403.0</ele>
      </trkpt>
      <trkpt lat="44.8561817" lon="5.5339033">
        <time>1970-01-01T00:00:00+00:00</time>
        <ele>1403.0</ele>
      </trkpt>
      <trkpt lat="44.856125" lon="5.5339033">
        <time>1970-01-01T00:00:00+00:00</time>
        <ele>1406.0</ele>
      </trkpt>
      <trkpt lat="44.856125" lon="5.5339033">
        <time>1970-01-01T00:00:00+00:00</time>
        <ele>1406.0</ele>
      </trkpt>
      <trkpt lat="44.856075" lon="5.5338367">
        <time>1970-01-01T00:00:00+00:00</time>
        <ele>1408.0</ele>
      </trkpt>
      <trkpt lat="44.856075" lon="5.5338367">
        <time>1970-01-01T00:00:00+00:00</time>
        <ele>1408.0</ele>
      </trkpt>
      <trkpt lat="44.85601" lon="5.5338167">
        <time>1970-01-01T00:00:00+00:00</time>
        <ele>1412.0</ele>
      </trkpt>
      <trkpt lat="44.85601" lon="5.5338167">
        <time>1970-01-01T00:00:00+00:00</time>
        <ele>1412.0</ele>
      </trkpt>
      <trkpt lat="44.8559567" lon="5.5337583">
        <time>1970-01-01T00:00:00+00:00</time>
        <ele>1414.0</ele>
      </trkpt>
      <trkpt lat="44.8559567" lon="5.5337583">
        <time>1970-01-01T00:00:00+00:00</time>
        <ele>1414.0</ele>
      </trkpt>
      <trkpt lat="44.855915" lon="5.5336567">
        <time>1970-01-01T00:00:00+00:00</time>
        <ele>1416.0</ele>
      </trkpt>
      <trkpt lat="44.855915" lon="5.5336567">
        <time>1970-01-01T00:00:00+00:00</time>
        <ele>1416.0</ele>
      </trkpt>
      <trkpt lat="44.85587" lon="5.53361">
        <time>1970-01-01T00:00:00+00:00</time>
        <ele>1418.0</ele>
      </trkpt>
      <trkpt lat="44.85587" lon="5.53361">
        <time>1970-01-01T00:00:00+00:00</time>
        <ele>1418.0</ele>
      </trkpt>
      <trkpt lat="44.8558267" lon="5.533515">
        <time>1970-01-01T00:00:00+00:00</time>
        <ele>1420.0</ele>
      </trkpt>
      <trkpt lat="44.8558267" lon="5.533515">
        <time>1970-01-01T00:00:00+00:00</time>
        <ele>1420.0</ele>
      </trkpt>
      <trkpt lat="44.8557933" lon="5.5334467">
        <time>1970-01-01T00:00:00+00:00</time>
        <ele>1422.0</ele>
      </trkpt>
      <trkpt lat="44.8557933" lon="5.5334467">
        <time>1970-01-01T00:00:00+00:00</time>
        <ele>1422.0</ele>
      </trkpt>
      <trkpt lat="44.8557317" lon="5.5333967">
        <time>1970-01-01T00:00:00+00:00</time>
        <ele>1425.0</ele>
      </trkpt>
      <trkpt lat="44.8557317" lon="5.5333967">
        <time>1970-01-01T00:00:00+00:00</time>
        <ele>1425.0</ele>
      </trkpt>
      <trkpt lat="44.8557083" lon="5.5333267">
        <time>1970-01-01T00:00:00+00:00</time>
        <ele>1426.0</ele>
      </trkpt>
      <trkpt lat="44.8557083" lon="5.5333267">
        <time>1970-01-01T00:00:00+00:00</time>
        <ele>1426.0</ele>
      </trkpt>
      <trkpt lat="44.8556717" lon="5.5332583">
        <time>1970-01-01T00:00:00+00:00</time>
        <ele>1428.0</ele>
      </trkpt>
      <trkpt lat="44.8556717" lon="5.5332583">
        <time>1970-01-01T00:00:00+00:00</time>
        <ele>1428.0</ele>
      </trkpt>
      <trkpt lat="44.855675" lon="5.5331733">
        <time>1970-01-01T00:00:00+00:00</time>
        <ele>1428.0</ele>
      </trkpt>
      <trkpt lat="44.855675" lon="5.5331733">
        <time>1970-01-01T00:00:00+00:00</time>
        <ele>1428.0</ele>
      </trkpt>
      <trkpt lat="44.8556667" lon="5.5330817">
        <time>1970-01-01T00:00:00+00:00</time>
        <ele>1429.0</ele>
      </trkpt>
      <trkpt lat="44.8556667" lon="5.5330817">
        <time>1970-01-01T00:00:00+00:00</time>
        <ele>1429.0</ele>
      </trkpt>
      <trkpt lat="44.8556483" lon="5.5330083">
        <time>1970-01-01T00:00:00+00:00</time>
        <ele>1430.0</ele>
      </trkpt>
      <trkpt lat="44.8556483" lon="5.5330083">
        <time>1970-01-01T00:00:00+00:00</time>
        <ele>1430.0</ele>
      </trkpt>
      <trkpt lat="44.8556017" lon="5.533015">
        <time>1970-01-01T00:00:00+00:00</time>
        <ele>1432.0</ele>
      </trkpt>
      <trkpt lat="44.8556017" lon="5.533015">
        <time>1970-01-01T00:00:00+00:00</time>
        <ele>1432.0</ele>
      </trkpt>
      <trkpt lat="44.8555567" lon="5.5329583">
        <time>1970-01-01T00:00:00+00:00</time>
        <ele>1434.0</ele>
      </trkpt>
      <trkpt lat="44.8555567" lon="5.5329583">
        <time>1970-01-01T00:00:00+00:00</time>
        <ele>1434.0</ele>
      </trkpt>
      <trkpt lat="44.8555183" lon="5.532905">
        <time>1970-01-01T00:00:00+00:00</time>
        <ele>1437.0</ele>
      </trkpt>
      <trkpt lat="44.8555183" lon="5.532905">
        <time>1970-01-01T00:00:00+00:00</time>
        <ele>1437.0</ele>
      </trkpt>
      <trkpt lat="44.85548" lon="5.5328367">
        <time>1970-01-01T00:00:00+00:00</time>
        <ele>1440.0</ele>
      </trkpt>
      <trkpt lat="44.85548" lon="5.5328367">
        <time>1970-01-01T00:00:00+00:00</time>
        <ele>1440.0</ele>
      </trkpt>
      <trkpt lat="44.85545" lon="5.5327767">
        <time>1970-01-01T00:00:00+00:00</time>
        <ele>1442.0</ele>
      </trkpt>
      <trkpt lat="44.85545" lon="5.5327767">
        <time>1970-01-01T00:00:00+00:00</time>
        <ele>1442.0</ele>
      </trkpt>
      <trkpt lat="44.8554733" lon="5.5326583">
        <time>1970-01-01T00:00:00+00:00</time>
        <ele>1441.0</ele>
      </trkpt>
      <trkpt lat="44.8554733" lon="5.5326583">
        <time>1970-01-01T00:00:00+00:00</time>
        <ele>1441.0</ele>
      </trkpt>
      <trkpt lat="44.8554467" lon="5.5325967">
        <time>1970-01-01T00:00:00+00:00</time>
        <ele>1442.0</ele>
      </trkpt>
      <trkpt lat="44.8554467" lon="5.5325967">
        <time>1970-01-01T00:00:00+00:00</time>
        <ele>1442.0</ele>
      </trkpt>
      <trkpt lat="44.8553883" lon="5.532505">
        <time>1970-01-01T00:00:00+00:00</time>
        <ele>1444.0</ele>
      </trkpt>
      <trkpt lat="44.8553883" lon="5.532505">
        <time>1970-01-01T00:00:00+00:00</time>
        <ele>1444.0</ele>
      </trkpt>
      <trkpt lat="44.85537" lon="5.5324133">
        <time>1970-01-01T00:00:00+00:00</time>
        <ele>1445.0</ele>
      </trkpt>
      <trkpt lat="44.85537" lon="5.5324133">
        <time>1970-01-01T00:00:00+00:00</time>
        <ele>1445.0</ele>
      </trkpt>
      <trkpt lat="44.85535" lon="5.532315">
        <time>1970-01-01T00:00:00+00:00</time>
        <ele>1446.0</ele>
      </trkpt>
      <trkpt lat="44.85535" lon="5.532315">
        <time>1970-01-01T00:00:00+00:00</time>
        <ele>1446.0</ele>
      </trkpt>
      <trkpt lat="44.8553167" lon="5.532245">
        <time>1970-01-01T00:00:00+00:00</time>
        <ele>1447.0</ele>
      </trkpt>
      <trkpt lat="44.8553167" lon="5.532245">
        <time>1970-01-01T00:00:00+00:00</time>
        <ele>1447.0</ele>
      </trkpt>
      <trkpt lat="44.8552783" lon="5.5321867">
        <time>1970-01-01T00:00:00+00:00</time>
        <ele>1449.0</ele>
      </trkpt>
      <trkpt lat="44.8552783" lon="5.5321867">
        <time>1970-01-01T00:00:00+00:00</time>
        <ele>1449.0</ele>
      </trkpt>
      <trkpt lat="44.85522" lon="5.5321217">
        <time>1970-01-01T00:00:00+00:00</time>
        <ele>1452.0</ele>
      </trkpt>
      <trkpt lat="44.85522" lon="5.5321217">
        <time>1970-01-01T00:00:00+00:00</time>
        <ele>1452.0</ele>
      </trkpt>
      <trkpt lat="44.8551983" lon="5.5320433">
        <time>1970-01-01T00:00:00+00:00</time>
        <ele>1453.0</ele>
      </trkpt>
      <trkpt lat="44.8551983" lon="5.5320433">
        <time>1970-01-01T00:00:00+00:00</time>
        <ele>1453.0</ele>
      </trkpt>
      <trkpt lat="44.8551667" lon="5.5319583">
        <time>1970-01-01T00:00:00+00:00</time>
        <ele>1454.0</ele>
      </trkpt>
      <trkpt lat="44.8551667" lon="5.5319583">
        <time>1970-01-01T00:00:00+00:00</time>
        <ele>1454.0</ele>
      </trkpt>
      <trkpt lat="44.85514" lon="5.53187">
        <time>1970-01-01T00:00:00+00:00</time>
        <ele>1457.0</ele>
      </trkpt>
      <trkpt lat="44.85514" lon="5.53187">
        <time>1970-01-01T00:00:00+00:00</time>
        <ele>1457.0</ele>
      </trkpt>
      <trkpt lat="44.8550983" lon="5.5318233">
        <time>1970-01-01T00:00:00+00:00</time>
        <ele>1459.0</ele>
      </trkpt>
      <trkpt lat="44.8550983" lon="5.5318233">
        <time>1970-01-01T00:00:00+00:00</time>
        <ele>1459.0</ele>
      </trkpt>
      <trkpt lat="44.8550867" lon="5.5317283">
        <time>1970-01-01T00:00:00+00:00</time>
        <ele>1461.0</ele>
      </trkpt>
      <trkpt lat="44.8550867" lon="5.5317283">
        <time>1970-01-01T00:00:00+00:00</time>
        <ele>1461.0</ele>
      </trkpt>
      <trkpt lat="44.85506" lon="5.53166">
        <time>1970-01-01T00:00:00+00:00</time>
        <ele>1463.0</ele>
      </trkpt>
      <trkpt lat="44.85506" lon="5.53166">
        <time>1970-01-01T00:00:00+00:00</time>
        <ele>1463.0</ele>
      </trkpt>
      <trkpt lat="44.8550117" lon="5.5315833">
        <time>1970-01-01T00:00:00+00:00</time>
        <ele>1465.0</ele>
      </trkpt>
      <trkpt lat="44.8550117" lon="5.5315833">
        <time>1970-01-01T00:00:00+00:00</time>
        <ele>1465.0</ele>
      </trkpt>
      <trkpt lat="44.8549617" lon="5.5315267">
        <time>1970-01-01T00:00:00+00:00</time>
        <ele>1469.0</ele>
      </trkpt>
      <trkpt lat="44.8549617" lon="5.5315267">
        <time>1970-01-01T00:00:00+00:00</time>
        <ele>1469.0</ele>
      </trkpt>
      <trkpt lat="44.8549267" lon="5.53148">
        <time>1970-01-01T00:00:00+00:00</time>
        <ele>1471.0</ele>
      </trkpt>
      <trkpt lat="44.8549267" lon="5.53148">
        <time>1970-01-01T00:00:00+00:00</time>
        <ele>1471.0</ele>
      </trkpt>
      <trkpt lat="44.8549583" lon="5.5313867">
        <time>1970-01-01T00:00:00+00:00</time>
        <ele>1471.0</ele>
      </trkpt>
      <trkpt lat="44.8549583" lon="5.5313867">
        <time>1970-01-01T00:00:00+00:00</time>
        <ele>1471.0</ele>
      </trkpt>
      <trkpt lat="44.855015" lon="5.5313467">
        <time>1970-01-01T00:00:00+00:00</time>
        <ele>1470.0</ele>
      </trkpt>
      <trkpt lat="44.855015" lon="5.5313467">
        <time>1970-01-01T00:00:00+00:00</time>
        <ele>1470.0</ele>
      </trkpt>
      <trkpt lat="44.85508" lon="5.5314033">
        <time>1970-01-01T00:00:00+00:00</time>
        <ele>1467.0</ele>
      </trkpt>
      <trkpt lat="44.85508" lon="5.5314033">
        <time>1970-01-01T00:00:00+00:00</time>
        <ele>1467.0</ele>
      </trkpt>
      <trkpt lat="44.8550567" lon="5.5312883">
        <time>1970-01-01T00:00:00+00:00</time>
        <ele>1470.0</ele>
      </trkpt>
      <trkpt lat="44.8550567" lon="5.5312883">
        <time>1970-01-01T00:00:00+00:00</time>
        <ele>1470.0</ele>
      </trkpt>
      <trkpt lat="44.855095" lon="5.5312217">
        <time>1970-01-01T00:00:00+00:00</time>
        <ele>1471.0</ele>
      </trkpt>
      <trkpt lat="44.855095" lon="5.5312217">
        <time>1970-01-01T00:00:00+00:00</time>
        <ele>1471.0</ele>
      </trkpt>
      <trkpt lat="44.8551067" lon="5.53112">
        <time>1970-01-01T00:00:00+00:00</time>
        <ele>1474.0</ele>
      </trkpt>
      <trkpt lat="44.8551067" lon="5.53112">
        <time>1970-01-01T00:00:00+00:00</time>
        <ele>1474.0</ele>
      </trkpt>
      <trkpt lat="44.8551217" lon="5.53105">
        <time>1970-01-01T00:00:00+00:00</time>
        <ele>1475.0</ele>
      </trkpt>
      <trkpt lat="44.8551217" lon="5.53105">
        <time>1970-01-01T00:00:00+00:00</time>
        <ele>1475.0</ele>
      </trkpt>
      <trkpt lat="44.8551033" lon="5.5309533">
        <time>1970-01-01T00:00:00+00:00</time>
        <ele>1478.0</ele>
      </trkpt>
      <trkpt lat="44.8551033" lon="5.5309533">
        <time>1970-01-01T00:00:00+00:00</time>
        <ele>1478.0</ele>
      </trkpt>
      <trkpt lat="44.8550533" lon="5.5308633">
        <time>1970-01-01T00:00:00+00:00</time>
        <ele>1480.0</ele>
      </trkpt>
      <trkpt lat="44.8550533" lon="5.5308633">
        <time>1970-01-01T00:00:00+00:00</time>
        <ele>1480.0</ele>
      </trkpt>
      <trkpt lat="44.85514" lon="5.5308233">
        <time>1970-01-01T00:00:00+00:00</time>
        <ele>1481.0</ele>
      </trkpt>
      <trkpt lat="44.85514" lon="5.5308233">
        <time>1970-01-01T00:00:00+00:00</time>
        <ele>1481.0</ele>
      </trkpt>
      <trkpt lat="44.8550917" lon="5.5308483">
        <time>1970-01-01T00:00:00+00:00</time>
        <ele>1481.0</ele>
      </trkpt>
      <trkpt lat="44.8550917" lon="5.5308483">
        <time>1970-01-01T00:00:00+00:00</time>
        <ele>1481.0</ele>
      </trkpt>
      <trkpt lat="44.855145" lon="5.530825">
        <time>1970-01-01T00:00:00+00:00</time>
        <ele>1481.0</ele>
      </trkpt>
      <trkpt lat="44.855145" lon="5.530825">
        <time>1970-01-01T00:00:00+00:00</time>
        <ele>1481.0</ele>
      </trkpt>
      <trkpt lat="44.8552017" lon="5.5308317">
        <time>1970-01-01T00:00:00+00:00</time>
        <ele>1481.0</ele>
      </trkpt>
      <trkpt lat="44.8552017" lon="5.5308317">
        <time>1970-01-01T00:00:00+00:00</time>
        <ele>1481.0</ele>
      </trkpt>
      <trkpt lat="44.85527" lon="5.53074">
        <time>1970-01-01T00:00:00+00:00</time>
        <ele>1485.0</ele>
      </trkpt>
      <trkpt lat="44.85527" lon="5.53074">
        <time>1970-01-01T00:00:00+00:00</time>
        <ele>1485.0</ele>
      </trkpt>
      <trkpt lat="44.85524" lon="5.530665">
        <time>1970-01-01T00:00:00+00:00</time>
        <ele>1487.0</ele>
      </trkpt>
      <trkpt lat="44.85524" lon="5.530665">
        <time>1970-01-01T00:00:00+00:00</time>
        <ele>1487.0</ele>
      </trkpt>
      <trkpt lat="44.8552283" lon="5.5305733">
        <time>1970-01-01T00:00:00+00:00</time>
        <ele>1489.0</ele>
      </trkpt>
      <trkpt lat="44.8552283" lon="5.5305733">
        <time>1970-01-01T00:00:00+00:00</time>
        <ele>1489.0</ele>
      </trkpt>
      <trkpt lat="44.85519" lon="5.53051">
        <time>1970-01-01T00:00:00+00:00</time>
        <ele>1491.0</ele>
      </trkpt>
      <trkpt lat="44.85519" lon="5.53051">
        <time>1970-01-01T00:00:00+00:00</time>
        <ele>1491.0</ele>
      </trkpt>
      <trkpt lat="44.8551717" lon="5.530415">
        <time>1970-01-01T00:00:00+00:00</time>
        <ele>1494.0</ele>
      </trkpt>
      <trkpt lat="44.8551717" lon="5.530415">
        <time>1970-01-01T00:00:00+00:00</time>
        <ele>1494.0</ele>
      </trkpt>
      <trkpt lat="44.8551633" lon="5.5303283">
        <time>1970-01-01T00:00:00+00:00</time>
        <ele>1497.0</ele>
      </trkpt>
      <trkpt lat="44.8551633" lon="5.5303283">
        <time>1970-01-01T00:00:00+00:00</time>
        <ele>1497.0</ele>
      </trkpt>
      <trkpt lat="44.8551217" lon="5.530235">
        <time>1970-01-01T00:00:00+00:00</time>
        <ele>1499.0</ele>
      </trkpt>
      <trkpt lat="44.8551217" lon="5.530235">
        <time>1970-01-01T00:00:00+00:00</time>
        <ele>1499.0</ele>
      </trkpt>
      <trkpt lat="44.8551483" lon="5.5301433">
        <time>1970-01-01T00:00:00+00:00</time>
        <ele>1502.0</ele>
      </trkpt>
      <trkpt lat="44.8551483" lon="5.5301433">
        <time>1970-01-01T00:00:00+00:00</time>
        <ele>1502.0</ele>
      </trkpt>
      <trkpt lat="44.8552017" lon="5.5301417">
        <time>1970-01-01T00:00:00+00:00</time>
        <ele>1504.0</ele>
      </trkpt>
      <trkpt lat="44.8552017" lon="5.5301417">
        <time>1970-01-01T00:00:00+00:00</time>
        <ele>1504.0</ele>
      </trkpt>
      <trkpt lat="44.855275" lon="5.5301167">
        <time>1970-01-01T00:00:00+00:00</time>
        <ele>1507.0</ele>
      </trkpt>
      <trkpt lat="44.855275" lon="5.5301167">
        <time>1970-01-01T00:00:00+00:00</time>
        <ele>1507.0</ele>
      </trkpt>
      <trkpt lat="44.8552633" lon="5.5300117">
        <time>1970-01-01T00:00:00+00:00</time>
        <ele>1509.0</ele>
      </trkpt>
      <trkpt lat="44.8552633" lon="5.5300117">
        <time>1970-01-01T00:00:00+00:00</time>
        <ele>1509.0</ele>
      </trkpt>
      <trkpt lat="44.855255" lon="5.5299267">
        <time>1970-01-01T00:00:00+00:00</time>
        <ele>1512.0</ele>
      </trkpt>
      <trkpt lat="44.855255" lon="5.5299267">
        <time>1970-01-01T00:00:00+00:00</time>
        <ele>1512.0</ele>
      </trkpt>
      <trkpt lat="44.8552283" lon="5.529855">
        <time>1970-01-01T00:00:00+00:00</time>
        <ele>1513.0</ele>
      </trkpt>
      <trkpt lat="44.8552283" lon="5.529855">
        <time>1970-01-01T00:00:00+00:00</time>
        <ele>1513.0</ele>
      </trkpt>
      <trkpt lat="44.8551567" lon="5.529805">
        <time>1970-01-01T00:00:00+00:00</time>
        <ele>1514.0</ele>
      </trkpt>
      <trkpt lat="44.8551567" lon="5.529805">
        <time>1970-01-01T00:00:00+00:00</time>
        <ele>1514.0</ele>
      </trkpt>
      <trkpt lat="44.8551183" lon="5.5297383">
        <time>1970-01-01T00:00:00+00:00</time>
        <ele>1515.0</ele>
      </trkpt>
      <trkpt lat="44.8551183" lon="5.5297383">
        <time>1970-01-01T00:00:00+00:00</time>
        <ele>1515.0</ele>
      </trkpt>
      <trkpt lat="44.8550567" lon="5.5296883">
        <time>1970-01-01T00:00:00+00:00</time>
        <ele>1516.0</ele>
      </trkpt>
      <trkpt lat="44.8550567" lon="5.5296883">
        <time>1970-01-01T00:00:00+00:00</time>
        <ele>1516.0</ele>
      </trkpt>
      <trkpt lat="44.8550067" lon="5.5296183">
        <time>1970-01-01T00:00:00+00:00</time>
        <ele>1518.0</ele>
      </trkpt>
      <trkpt lat="44.8550067" lon="5.5296183">
        <time>1970-01-01T00:00:00+00:00</time>
        <ele>1518.0</ele>
      </trkpt>
      <trkpt lat="44.8549617" lon="5.5295233">
        <time>1970-01-01T00:00:00+00:00</time>
        <ele>1522.0</ele>
      </trkpt>
      <trkpt lat="44.8549617" lon="5.5295233">
        <time>1970-01-01T00:00:00+00:00</time>
        <ele>1522.0</ele>
      </trkpt>
      <trkpt lat="44.8549233" lon="5.52942">
        <time>1970-01-01T00:00:00+00:00</time>
        <ele>1525.0</ele>
      </trkpt>
      <trkpt lat="44.8549233" lon="5.52942">
        <time>1970-01-01T00:00:00+00:00</time>
        <ele>1525.0</ele>
      </trkpt>
      <trkpt lat="44.8548883" lon="5.5293433">
        <time>1970-01-01T00:00:00+00:00</time>
        <ele>1527.0</ele>
      </trkpt>
      <trkpt lat="44.8548883" lon="5.5293433">
        <time>1970-01-01T00:00:00+00:00</time>
        <ele>1527.0</ele>
      </trkpt>
      <trkpt lat="44.85487" lon="5.5292683">
        <time>1970-01-01T00:00:00+00:00</time>
        <ele>1529.0</ele>
      </trkpt>
      <trkpt lat="44.85487" lon="5.5292683">
        <time>1970-01-01T00:00:00+00:00</time>
        <ele>1529.0</ele>
      </trkpt>
      <trkpt lat="44.8548667" lon="5.5291883">
        <time>1970-01-01T00:00:00+00:00</time>
        <ele>1531.0</ele>
      </trkpt>
      <trkpt lat="44.8548667" lon="5.5291883">
        <time>1970-01-01T00:00:00+00:00</time>
        <ele>1531.0</ele>
      </trkpt>
      <trkpt lat="44.8548583" lon="5.5291033">
        <time>1970-01-01T00:00:00+00:00</time>
        <ele>1534.0</ele>
      </trkpt>
      <trkpt lat="44.8548583" lon="5.5291033">
        <time>1970-01-01T00:00:00+00:00</time>
        <ele>1534.0</ele>
      </trkpt>
      <trkpt lat="44.8548317" lon="5.5290217">
        <time>1970-01-01T00:00:00+00:00</time>
        <ele>1536.0</ele>
      </trkpt>
      <trkpt lat="44.8548317" lon="5.5290217">
        <time>1970-01-01T00:00:00+00:00</time>
        <ele>1536.0</ele>
      </trkpt>
      <trkpt lat="44.854805" lon="5.5289517">
        <time>1970-01-01T00:00:00+00:00</time>
        <ele>1538.0</ele>
      </trkpt>
      <trkpt lat="44.854805" lon="5.5289517">
        <time>1970-01-01T00:00:00+00:00</time>
        <ele>1538.0</ele>
      </trkpt>
      <trkpt lat="44.85477" lon="5.5288833">
        <time>1970-01-01T00:00:00+00:00</time>
        <ele>1541.0</ele>
      </trkpt>
      <trkpt lat="44.85477" lon="5.5288833">
        <time>1970-01-01T00:00:00+00:00</time>
        <ele>1541.0</ele>
      </trkpt>
      <trkpt lat="44.8547283" lon="5.5288183">
        <time>1970-01-01T00:00:00+00:00</time>
        <ele>1543.0</ele>
      </trkpt>
      <trkpt lat="44.8547283" lon="5.5288183">
        <time>1970-01-01T00:00:00+00:00</time>
        <ele>1543.0</ele>
      </trkpt>
      <trkpt lat="44.8546867" lon="5.5287567">
        <time>1970-01-01T00:00:00+00:00</time>
        <ele>1545.0</ele>
      </trkpt>
      <trkpt lat="44.8546867" lon="5.5287567">
        <time>1970-01-01T00:00:00+00:00</time>
        <ele>1545.0</ele>
      </trkpt>
      <trkpt lat="44.8546417" lon="5.5286967">
        <time>1970-01-01T00:00:00+00:00</time>
        <ele>1547.0</ele>
      </trkpt>
      <trkpt lat="44.8546417" lon="5.5286967">
        <time>1970-01-01T00:00:00+00:00</time>
        <ele>1547.0</ele>
      </trkpt>
      <trkpt lat="44.8545883" lon="5.5286467">
        <time>1970-01-01T00:00:00+00:00</time>
        <ele>1549.0</ele>
      </trkpt>
      <trkpt lat="44.8545883" lon="5.5286467">
        <time>1970-01-01T00:00:00+00:00</time>
        <ele>1549.0</ele>
      </trkpt>
      <trkpt lat="44.85453" lon="5.5286">
        <time>1970-01-01T00:00:00+00:00</time>
        <ele>1551.0</ele>
      </trkpt>
      <trkpt lat="44.85453" lon="5.5286">
        <time>1970-01-01T00:00:00+00:00</time>
        <ele>1551.0</ele>
      </trkpt>
      <trkpt lat="44.8544767" lon="5.5285783">
        <time>1970-01-01T00:00:00+00:00</time>
        <ele>1553.0</ele>
      </trkpt>
      <trkpt lat="44.8544767" lon="5.5285783">
        <time>1970-01-01T00:00:00+00:00</time>
        <ele>1553.0</ele>
      </trkpt>
      <trkpt lat="44.8544317" lon="5.5285383">
        <time>1970-01-01T00:00:00+00:00</time>
        <ele>1554.0</ele>
      </trkpt>
      <trkpt lat="44.8544317" lon="5.5285383">
        <time>1970-01-01T00:00:00+00:00</time>
        <ele>1554.0</ele>
      </trkpt>
      <trkpt lat="44.8543967" lon="5.528475">
        <time>1970-01-01T00:00:00+00:00</time>
        <ele>1556.0</ele>
      </trkpt>
      <trkpt lat="44.8543967" lon="5.528475">
        <time>1970-01-01T00:00:00+00:00</time>
        <ele>1556.0</ele>
      </trkpt>
      <trkpt lat="44.854355" lon="5.5284217">
        <time>1970-01-01T00:00:00+00:00</time>
        <ele>1558.0</ele>
      </trkpt>
      <trkpt lat="44.854355" lon="5.5284217">
        <time>1970-01-01T00:00:00+00:00</time>
        <ele>1558.0</ele>
      </trkpt>
      <trkpt lat="44.8543283" lon="5.5283633">
        <time>1970-01-01T00:00:00+00:00</time>
        <ele>1560.0</ele>
      </trkpt>
      <trkpt lat="44.8543283" lon="5.5283633">
        <time>1970-01-01T00:00:00+00:00</time>
        <ele>1560.0</ele>
      </trkpt>
      <trkpt lat="44.85434" lon="5.5282767">
        <time>1970-01-01T00:00:00+00:00</time>
        <ele>1562.0</ele>
      </trkpt>
      <trkpt lat="44.85434" lon="5.5282767">
        <time>1970-01-01T00:00:00+00:00</time>
        <ele>1562.0</ele>
      </trkpt>
      <trkpt lat="44.8543167" lon="5.5281983">
        <time>1970-01-01T00:00:00+00:00</time>
        <ele>1564.0</ele>
      </trkpt>
      <trkpt lat="44.8543167" lon="5.5281983">
        <time>1970-01-01T00:00:00+00:00</time>
        <ele>1564.0</ele>
      </trkpt>
      <trkpt lat="44.8542817" lon="5.5281367">
        <time>1970-01-01T00:00:00+00:00</time>
        <ele>1566.0</ele>
      </trkpt>
      <trkpt lat="44.8542817" lon="5.5281367">
        <time>1970-01-01T00:00:00+00:00</time>
        <ele>1566.0</ele>
      </trkpt>
      <trkpt lat="44.85424" lon="5.5280883">
        <time>1970-01-01T00:00:00+00:00</time>
        <ele>1568.0</ele>
      </trkpt>
      <trkpt lat="44.85424" lon="5.5280883">
        <time>1970-01-01T00:00:00+00:00</time>
        <ele>1568.0</ele>
      </trkpt>
      <trkpt lat="44.8541717" lon="5.52804">
        <time>1970-01-01T00:00:00+00:00</time>
        <ele>1572.0</ele>
      </trkpt>
      <trkpt lat="44.8541717" lon="5.52804">
        <time>1970-01-01T00:00:00+00:00</time>
        <ele>1572.0</ele>
      </trkpt>
      <trkpt lat="44.8541483" lon="5.5279667">
        <time>1970-01-01T00:00:00+00:00</time>
        <ele>1574.0</ele>
      </trkpt>
      <trkpt lat="44.8541483" lon="5.5279667">
        <time>1970-01-01T00:00:00+00:00</time>
        <ele>1574.0</ele>
      </trkpt>
      <trkpt lat="44.85411" lon="5.5278833">
        <time>1970-01-01T00:00:00+00:00</time>
        <ele>1577.0</ele>
      </trkpt>
      <trkpt lat="44.85411" lon="5.5278833">
        <time>1970-01-01T00:00:00+00:00</time>
        <ele>1577.0</ele>
      </trkpt>
      <trkpt lat="44.8540833" lon="5.5278167">
        <time>1970-01-01T00:00:00+00:00</time>
        <ele>1579.0</ele>
      </trkpt>
      <trkpt lat="44.8540833" lon="5.5278167">
        <time>1970-01-01T00:00:00+00:00</time>
        <ele>1579.0</ele>
      </trkpt>
      <trkpt lat="44.8540417" lon="5.5277383">
        <time>1970-01-01T00:00:00+00:00</time>
        <ele>1581.0</ele>
      </trkpt>
      <trkpt lat="44.8540417" lon="5.5277383">
        <time>1970-01-01T00:00:00+00:00</time>
        <ele>1581.0</ele>
      </trkpt>
      <trkpt lat="44.8539883" lon="5.527685">
        <time>1970-01-01T00:00:00+00:00</time>
        <ele>1584.0</ele>
      </trkpt>
      <trkpt lat="44.8539883" lon="5.527685">
        <time>1970-01-01T00:00:00+00:00</time>
        <ele>1584.0</ele>
      </trkpt>
      <trkpt lat="44.8539233" lon="5.527695">
        <time>1970-01-01T00:00:00+00:00</time>
        <ele>1587.0</ele>
      </trkpt>
      <trkpt lat="44.8539233" lon="5.527695">
        <time>1970-01-01T00:00:00+00:00</time>
        <ele>1587.0</ele>
      </trkpt>
      <trkpt lat="44.8538583" lon="5.5277067">
        <time>1970-01-01T00:00:00+00:00</time>
        <ele>1590.0</ele>
      </trkpt>
      <trkpt lat="44.8538583" lon="5.5277067">
        <time>1970-01-01T00:00:00+00:00</time>
        <ele>1590.0</ele>
      </trkpt>
      <trkpt lat="44.85382" lon="5.5276367">
        <time>1970-01-01T00:00:00+00:00</time>
        <ele>1592.0</ele>
      </trkpt>
      <trkpt lat="44.85382" lon="5.5276367">
        <time>1970-01-01T00:00:00+00:00</time>
        <ele>1592.0</ele>
      </trkpt>
      <trkpt lat="44.8537983" lon="5.5275467">
        <time>1970-01-01T00:00:00+00:00</time>
        <ele>1594.0</ele>
      </trkpt>
      <trkpt lat="44.8537983" lon="5.5275467">
        <time>1970-01-01T00:00:00+00:00</time>
        <ele>1594.0</ele>
      </trkpt>
      <trkpt lat="44.8537833" lon="5.527445">
        <time>1970-01-01T00:00:00+00:00</time>
        <ele>1595.0</ele>
      </trkpt>
      <trkpt lat="44.8537833" lon="5.527445">
        <time>1970-01-01T00:00:00+00:00</time>
        <ele>1595.0</ele>
      </trkpt>
      <trkpt lat="44.8537717" lon="5.5273733">
        <time>1970-01-01T00:00:00+00:00</time>
        <ele>1596.0</ele>
      </trkpt>
      <trkpt lat="44.8537717" lon="5.5273733">
        <time>1970-01-01T00:00:00+00:00</time>
        <ele>1596.0</ele>
      </trkpt>
      <trkpt lat="44.85374" lon="5.5273067">
        <time>1970-01-01T00:00:00+00:00</time>
        <ele>1599.0</ele>
      </trkpt>
      <trkpt lat="44.85374" lon="5.5273067">
        <time>1970-01-01T00:00:00+00:00</time>
        <ele>1599.0</ele>
      </trkpt>
      <trkpt lat="44.8537183" lon="5.527235">
        <time>1970-01-01T00:00:00+00:00</time>
        <ele>1600.0</ele>
      </trkpt>
      <trkpt lat="44.8537183" lon="5.527235">
        <time>1970-01-01T00:00:00+00:00</time>
        <ele>1600.0</ele>
      </trkpt>
      <trkpt lat="44.8536483" lon="5.527335">
        <time>1970-01-01T00:00:00+00:00</time>
        <ele>1603.0</ele>
      </trkpt>
      <trkpt lat="44.8536483" lon="5.527335">
        <time>1970-01-01T00:00:00+00:00</time>
        <ele>1603.0</ele>
      </trkpt>
      <trkpt lat="44.8536533" lon="5.5272567">
        <time>1970-01-01T00:00:00+00:00</time>
        <ele>1603.0</ele>
      </trkpt>
      <trkpt lat="44.8536533" lon="5.5272567">
        <time>1970-01-01T00:00:00+00:00</time>
        <ele>1603.0</ele>
      </trkpt>
      <trkpt lat="44.8536533" lon="5.5271633">
        <time>1970-01-01T00:00:00+00:00</time>
        <ele>1603.0</ele>
      </trkpt>
      <trkpt lat="44.8536533" lon="5.5271633">
        <time>1970-01-01T00:00:00+00:00</time>
        <ele>1603.0</ele>
      </trkpt>
      <trkpt lat="44.85363" lon="5.5270783">
        <time>1970-01-01T00:00:00+00:00</time>
        <ele>1605.0</ele>
      </trkpt>
      <trkpt lat="44.85363" lon="5.5270783">
        <time>1970-01-01T00:00:00+00:00</time>
        <ele>1605.0</ele>
      </trkpt>
      <trkpt lat="44.8535767" lon="5.5270633">
        <time>1970-01-01T00:00:00+00:00</time>
        <ele>1607.0</ele>
      </trkpt>
      <trkpt lat="44.8535767" lon="5.5270633">
        <time>1970-01-01T00:00:00+00:00</time>
        <ele>1607.0</ele>
      </trkpt>
      <trkpt lat="44.853505" lon="5.5270333">
        <time>1970-01-01T00:00:00+00:00</time>
        <ele>1610.0</ele>
      </trkpt>
      <trkpt lat="44.853505" lon="5.5270333">
        <time>1970-01-01T00:00:00+00:00</time>
        <ele>1610.0</ele>
      </trkpt>
      <trkpt lat="44.8534433" lon="5.5269933">
        <time>1970-01-01T00:00:00+00:00</time>
        <ele>1613.0</ele>
      </trkpt>
      <trkpt lat="44.8534433" lon="5.5269933">
        <time>1970-01-01T00:00:00+00:00</time>
        <ele>1613.0</ele>
      </trkpt>
      <trkpt lat="44.8533967" lon="5.526915">
        <time>1970-01-01T00:00:00+00:00</time>
        <ele>1616.0</ele>
      </trkpt>
      <trkpt lat="44.8533967" lon="5.526915">
        <time>1970-01-01T00:00:00+00:00</time>
        <ele>1616.0</ele>
      </trkpt>
      <trkpt lat="44.8533817" lon="5.5268417">
        <time>1970-01-01T00:00:00+00:00</time>
        <ele>1617.0</ele>
      </trkpt>
      <trkpt lat="44.8533817" lon="5.5268417">
        <time>1970-01-01T00:00:00+00:00</time>
        <ele>1617.0</ele>
      </trkpt>
      <trkpt lat="44.8533433" lon="5.5267617">
        <time>1970-01-01T00:00:00+00:00</time>
        <ele>1620.0</ele>
      </trkpt>
      <trkpt lat="44.8533433" lon="5.5267617">
        <time>1970-01-01T00:00:00+00:00</time>
        <ele>1620.0</ele>
      </trkpt>
      <trkpt lat="44.8532983" lon="5.526685">
        <time>1970-01-01T00:00:00+00:00</time>
        <ele>1623.0</ele>
      </trkpt>
      <trkpt lat="44.8532983" lon="5.526685">
        <time>1970-01-01T00:00:00+00:00</time>
        <ele>1623.0</ele>
      </trkpt>
      <trkpt lat="44.853245" lon="5.5266867">
        <time>1970-01-01T00:00:00+00:00</time>
        <ele>1626.0</ele>
      </trkpt>
      <trkpt lat="44.853245" lon="5.5266867">
        <time>1970-01-01T00:00:00+00:00</time>
        <ele>1626.0</ele>
      </trkpt>
      <trkpt lat="44.8531883" lon="5.526765">
        <time>1970-01-01T00:00:00+00:00</time>
        <ele>1628.0</ele>
      </trkpt>
      <trkpt lat="44.8531883" lon="5.526765">
        <time>1970-01-01T00:00:00+00:00</time>
        <ele>1628.0</ele>
      </trkpt>
      <trkpt lat="44.8531383" lon="5.5267567">
        <time>1970-01-01T00:00:00+00:00</time>
        <ele>1631.0</ele>
      </trkpt>
      <trkpt lat="44.8531383" lon="5.5267567">
        <time>1970-01-01T00:00:00+00:00</time>
        <ele>1631.0</ele>
      </trkpt>
      <trkpt lat="44.8531067" lon="5.52667">
        <time>1970-01-01T00:00:00+00:00</time>
        <ele>1633.0</ele>
      </trkpt>
      <trkpt lat="44.8531067" lon="5.52667">
        <time>1970-01-01T00:00:00+00:00</time>
        <ele>1633.0</ele>
      </trkpt>
      <trkpt lat="44.8530767" lon="5.5266033">
        <time>1970-01-01T00:00:00+00:00</time>
        <ele>1635.0</ele>
      </trkpt>
      <trkpt lat="44.8530767" lon="5.5266033">
        <time>1970-01-01T00:00:00+00:00</time>
        <ele>1635.0</ele>
      </trkpt>
      <trkpt lat="44.85305" lon="5.52666">
        <time>1970-01-01T00:00:00+00:00</time>
        <ele>1636.0</ele>
      </trkpt>
      <trkpt lat="44.85305" lon="5.52666">
        <time>1970-01-01T00:00:00+00:00</time>
        <ele>1636.0</ele>
      </trkpt>
      <trkpt lat="44.8529967" lon="5.52674">
        <time>1970-01-01T00:00:00+00:00</time>
        <ele>1639.0</ele>
      </trkpt>
      <trkpt lat="44.8529967" lon="5.52674">
        <time>1970-01-01T00:00:00+00:00</time>
        <ele>1639.0</ele>
      </trkpt>
      <trkpt lat="44.85297" lon="5.5266783">
        <time>1970-01-01T00:00:00+00:00</time>
        <ele>1641.0</ele>
      </trkpt>
      <trkpt lat="44.85297" lon="5.5266783">
        <time>1970-01-01T00:00:00+00:00</time>
        <ele>1641.0</ele>
      </trkpt>
      <trkpt lat="44.8528667" lon="5.526715">
        <time>1970-01-01T00:00:00+00:00</time>
        <ele>1646.0</ele>
      </trkpt>
      <trkpt lat="44.8528667" lon="5.526715">
        <time>1970-01-01T00:00:00+00:00</time>
        <ele>1646.0</ele>
      </trkpt>
      <trkpt lat="44.8528067" lon="5.5267583">
        <time>1970-01-01T00:00:00+00:00</time>
        <ele>1649.0</ele>
      </trkpt>
      <trkpt lat="44.8528067" lon="5.5267583">
        <time>1970-01-01T00:00:00+00:00</time>
        <ele>1649.0</ele>
      </trkpt>
      <trkpt lat="44.8527483" lon="5.526815">
        <time>1970-01-01T00:00:00+00:00</time>
        <ele>1653.0</ele>
      </trkpt>
      <trkpt lat="44.8527483" lon="5.526815">
        <time>1970-01-01T00:00:00+00:00</time>
        <ele>1653.0</ele>
      </trkpt>
      <trkpt lat="44.8527217" lon="5.5267583">
        <time>1970-01-01T00:00:00+00:00</time>
        <ele>1654.0</ele>
      </trkpt>
      <trkpt lat="44.8527217" lon="5.5267583">
        <time>1970-01-01T00:00:00+00:00</time>
        <ele>1654.0</ele>
      </trkpt>
      <trkpt lat="44.85271" lon="5.5266783">
        <time>1970-01-01T00:00:00+00:00</time>
        <ele>1655.0</ele>
      </trkpt>
      <trkpt lat="44.85271" lon="5.5266783">
        <time>1970-01-01T00:00:00+00:00</time>
        <ele>1655.0</ele>
      </trkpt>
      <trkpt lat="44.852695" lon="5.526605">
        <time>1970-01-01T00:00:00+00:00</time>
        <ele>1656.0</ele>
      </trkpt>
      <trkpt lat="44.852695" lon="5.526605">
        <time>1970-01-01T00:00:00+00:00</time>
        <ele>1656.0</ele>
      </trkpt>
      <trkpt lat="44.85268" lon="5.5265333">
        <time>1970-01-01T00:00:00+00:00</time>
        <ele>1657.0</ele>
      </trkpt>
      <trkpt lat="44.85268" lon="5.5265333">
        <time>1970-01-01T00:00:00+00:00</time>
        <ele>1657.0</ele>
      </trkpt>
      <trkpt lat="44.852665" lon="5.5264233">
        <time>1970-01-01T00:00:00+00:00</time>
        <ele>1659.0</ele>
      </trkpt>
      <trkpt lat="44.852665" lon="5.5264233">
        <time>1970-01-01T00:00:00+00:00</time>
        <ele>1659.0</ele>
      </trkpt>
      <trkpt lat="44.8526567" lon="5.526345">
        <time>1970-01-01T00:00:00+00:00</time>
        <ele>1660.0</ele>
      </trkpt>
      <trkpt lat="44.8526567" lon="5.526345">
        <time>1970-01-01T00:00:00+00:00</time>
        <ele>1660.0</ele>
      </trkpt>
      <trkpt lat="44.8525617" lon="5.5264">
        <time>1970-01-01T00:00:00+00:00</time>
        <ele>1665.0</ele>
      </trkpt>
      <trkpt lat="44.8525617" lon="5.5264">
        <time>1970-01-01T00:00:00+00:00</time>
        <ele>1665.0</ele>
      </trkpt>
      <trkpt lat="44.852505" lon="5.5264717">
        <time>1970-01-01T00:00:00+00:00</time>
        <ele>1668.0</ele>
      </trkpt>
      <trkpt lat="44.852505" lon="5.5264717">
        <time>1970-01-01T00:00:00+00:00</time>
        <ele>1668.0</ele>
      </trkpt>
      <trkpt lat="44.85247" lon="5.526525">
        <time>1970-01-01T00:00:00+00:00</time>
        <ele>1670.0</ele>
      </trkpt>
      <trkpt lat="44.85247" lon="5.526525">
        <time>1970-01-01T00:00:00+00:00</time>
        <ele>1670.0</ele>
      </trkpt>
      <trkpt lat="44.8524133" lon="5.52646">
        <time>1970-01-01T00:00:00+00:00</time>
        <ele>1674.0</ele>
      </trkpt>
      <trkpt lat="44.8524133" lon="5.52646">
        <time>1970-01-01T00:00:00+00:00</time>
        <ele>1674.0</ele>
      </trkpt>
      <trkpt lat="44.8523933" lon="5.52636">
        <time>1970-01-01T00:00:00+00:00</time>
        <ele>1675.0</ele>
      </trkpt>
      <trkpt lat="44.8523933" lon="5.52636">
        <time>1970-01-01T00:00:00+00:00</time>
        <ele>1675.0</ele>
      </trkpt>
      <trkpt lat="44.8523717" lon="5.5262683">
        <time>1970-01-01T00:00:00+00:00</time>
        <ele>1676.0</ele>
      </trkpt>
      <trkpt lat="44.8523717" lon="5.5262683">
        <time>1970-01-01T00:00:00+00:00</time>
        <ele>1676.0</ele>
      </trkpt>
      <trkpt lat="44.8523483" lon="5.5261817">
        <time>1970-01-01T00:00:00+00:00</time>
        <ele>1678.0</ele>
      </trkpt>
      <trkpt lat="44.8523483" lon="5.5261817">
        <time>1970-01-01T00:00:00+00:00</time>
        <ele>1678.0</ele>
      </trkpt>
      <trkpt lat="44.8523217" lon="5.526085">
        <time>1970-01-01T00:00:00+00:00</time>
        <ele>1680.0</ele>
      </trkpt>
      <trkpt lat="44.8523217" lon="5.526085">
        <time>1970-01-01T00:00:00+00:00</time>
        <ele>1680.0</ele>
      </trkpt>
      <trkpt lat="44.8522867" lon="5.526045">
        <time>1970-01-01T00:00:00+00:00</time>
        <ele>1682.0</ele>
      </trkpt>
      <trkpt lat="44.8522867" lon="5.526045">
        <time>1970-01-01T00:00:00+00:00</time>
        <ele>1682.0</ele>
      </trkpt>
      <trkpt lat="44.8522533" lon="5.5261">
        <time>1970-01-01T00:00:00+00:00</time>
        <ele>1684.0</ele>
      </trkpt>
      <trkpt lat="44.8522533" lon="5.5261">
        <time>1970-01-01T00:00:00+00:00</time>
        <ele>1684.0</ele>
      </trkpt>
      <trkpt lat="44.8522" lon="5.5261567">
        <time>1970-01-01T00:00:00+00:00</time>
        <ele>1687.0</ele>
      </trkpt>
      <trkpt lat="44.8522" lon="5.5261567">
        <time>1970-01-01T00:00:00+00:00</time>
        <ele>1687.0</ele>
      </trkpt>
      <trkpt lat="44.85215" lon="5.5262083">
        <time>1970-01-01T00:00:00+00:00</time>
        <ele>1689.0</ele>
      </trkpt>
      <trkpt lat="44.85215" lon="5.5262083">
        <time>1970-01-01T00:00:00+00:00</time>
        <ele>1689.0</ele>
      </trkpt>
      <trkpt lat="44.8521" lon="5.5262633">
        <time>1970-01-01T00:00:00+00:00</time>
        <ele>1693.0</ele>
      </trkpt>
      <trkpt lat="44.8521" lon="5.5262633">
        <time>1970-01-01T00:00:00+00:00</time>
        <ele>1693.0</ele>
      </trkpt>
      <trkpt lat="44.852055" lon="5.5261933">
        <time>1970-01-01T00:00:00+00:00</time>
        <ele>1696.0</ele>
      </trkpt>
      <trkpt lat="44.852055" lon="5.5261933">
        <time>1970-01-01T00:00:00+00:00</time>
        <ele>1696.0</ele>
      </trkpt>
      <trkpt lat="44.85205" lon="5.5261167">
        <time>1970-01-01T00:00:00+00:00</time>
        <ele>1697.0</ele>
      </trkpt>
      <trkpt lat="44.85205" lon="5.5261167">
        <time>1970-01-01T00:00:00+00:00</time>
        <ele>1697.0</ele>
      </trkpt>
      <trkpt lat="44.8520233" lon="5.5260217">
        <time>1970-01-01T00:00:00+00:00</time>
        <ele>1699.0</ele>
      </trkpt>
      <trkpt lat="44.8520233" lon="5.5260217">
        <time>1970-01-01T00:00:00+00:00</time>
        <ele>1699.0</ele>
      </trkpt>
      <trkpt lat="44.8520083" lon="5.5259433">
        <time>1970-01-01T00:00:00+00:00</time>
        <ele>1700.0</ele>
      </trkpt>
      <trkpt lat="44.8520083" lon="5.5259433">
        <time>1970-01-01T00:00:00+00:00</time>
        <ele>1700.0</ele>
      </trkpt>
      <trkpt lat="44.8519967" lon="5.52586">
        <time>1970-01-01T00:00:00+00:00</time>
        <ele>1701.0</ele>
      </trkpt>
      <trkpt lat="44.8519967" lon="5.52586">
        <time>1970-01-01T00:00:00+00:00</time>
        <ele>1701.0</ele>
      </trkpt>
      <trkpt lat="44.8519817" lon="5.525765">
        <time>1970-01-01T00:00:00+00:00</time>
        <ele>1703.0</ele>
      </trkpt>
      <trkpt lat="44.8519817" lon="5.525765">
        <time>1970-01-01T00:00:00+00:00</time>
        <ele>1703.0</ele>
      </trkpt>
      <trkpt lat="44.851875" lon="5.5258267">
        <time>1970-01-01T00:00:00+00:00</time>
        <ele>1708.0</ele>
      </trkpt>
      <trkpt lat="44.851875" lon="5.5258267">
        <time>1970-01-01T00:00:00+00:00</time>
        <ele>1708.0</ele>
      </trkpt>
      <trkpt lat="44.8518183" lon="5.5258883">
        <time>1970-01-01T00:00:00+00:00</time>
        <ele>1711.0</ele>
      </trkpt>
      <trkpt lat="44.8518183" lon="5.5258883">
        <time>1970-01-01T00:00:00+00:00</time>
        <ele>1711.0</ele>
      </trkpt>
      <trkpt lat="44.85178" lon="5.52594">
        <time>1970-01-01T00:00:00+00:00</time>
        <ele>1713.0</ele>
      </trkpt>
      <trkpt lat="44.85178" lon="5.52594">
        <time>1970-01-01T00:00:00+00:00</time>
        <ele>1713.0</ele>
      </trkpt>
      <trkpt lat="44.851745" lon="5.5258133">
        <time>1970-01-01T00:00:00+00:00</time>
        <ele>1715.0</ele>
      </trkpt>
      <trkpt lat="44.851745" lon="5.5258133">
        <time>1970-01-01T00:00:00+00:00</time>
        <ele>1715.0</ele>
      </trkpt>
      <trkpt lat="44.85173" lon="5.5257417">
        <time>1970-01-01T00:00:00+00:00</time>
        <ele>1716.0</ele>
      </trkpt>
      <trkpt lat="44.85173" lon="5.5257417">
        <time>1970-01-01T00:00:00+00:00</time>
        <ele>1716.0</ele>
      </trkpt>
      <trkpt lat="44.851715" lon="5.5256667">
        <time>1970-01-01T00:00:00+00:00</time>
        <ele>1717.0</ele>
      </trkpt>
      <trkpt lat="44.851715" lon="5.5256667">
        <time>1970-01-01T00:00:00+00:00</time>
        <ele>1717.0</ele>
      </trkpt>
      <trkpt lat="44.8516967" lon="5.5255967">
        <time>1970-01-01T00:00:00+00:00</time>
        <ele>1719.0</ele>
      </trkpt>
      <trkpt lat="44.8516967" lon="5.5255967">
        <time>1970-01-01T00:00:00+00:00</time>
        <ele>1719.0</ele>
      </trkpt>
      <trkpt lat="44.8516733" lon="5.5254933">
        <time>1970-01-01T00:00:00+00:00</time>
        <ele>1721.0</ele>
      </trkpt>
      <trkpt lat="44.8516733" lon="5.5254933">
        <time>1970-01-01T00:00:00+00:00</time>
        <ele>1721.0</ele>
      </trkpt>
      <trkpt lat="44.85165" lon="5.525395">
        <time>1970-01-01T00:00:00+00:00</time>
        <ele>1722.0</ele>
      </trkpt>
      <trkpt lat="44.85165" lon="5.525395">
        <time>1970-01-01T00:00:00+00:00</time>
        <ele>1722.0</ele>
      </trkpt>
      <trkpt lat="44.8516267" lon="5.525295">
        <time>1970-01-01T00:00:00+00:00</time>
        <ele>1724.0</ele>
      </trkpt>
      <trkpt lat="44.8516267" lon="5.525295">
        <time>1970-01-01T00:00:00+00:00</time>
        <ele>1724.0</ele>
      </trkpt>
      <trkpt lat="44.8516117" lon="5.525225">
        <time>1970-01-01T00:00:00+00:00</time>
        <ele>1725.0</ele>
      </trkpt>
      <trkpt lat="44.8516117" lon="5.525225">
        <time>1970-01-01T00:00:00+00:00</time>
        <ele>1725.0</ele>
      </trkpt>
      <trkpt lat="44.8516" lon="5.525145">
        <time>1970-01-01T00:00:00+00:00</time>
        <ele>1726.0</ele>
      </trkpt>
      <trkpt lat="44.8516" lon="5.525145">
        <time>1970-01-01T00:00:00+00:00</time>
        <ele>1726.0</ele>
      </trkpt>
      <trkpt lat="44.85159" lon="5.5250567">
        <time>1970-01-01T00:00:00+00:00</time>
        <ele>1727.0</ele>
      </trkpt>
      <trkpt lat="44.85159" lon="5.5250567">
        <time>1970-01-01T00:00:00+00:00</time>
        <ele>1727.0</ele>
      </trkpt>
      <trkpt lat="44.8515783" lon="5.524975">
        <time>1970-01-01T00:00:00+00:00</time>
        <ele>1728.0</ele>
      </trkpt>
      <trkpt lat="44.8515783" lon="5.524975">
        <time>1970-01-01T00:00:00+00:00</time>
        <ele>1728.0</ele>
      </trkpt>
      <trkpt lat="44.8515633" lon="5.524905">
        <time>1970-01-01T00:00:00+00:00</time>
        <ele>1729.0</ele>
      </trkpt>
      <trkpt lat="44.8515633" lon="5.524905">
        <time>1970-01-01T00:00:00+00:00</time>
        <ele>1729.0</ele>
      </trkpt>
      <trkpt lat="44.8515517" lon="5.5248283">
        <time>1970-01-01T00:00:00+00:00</time>
        <ele>1731.0</ele>
      </trkpt>
      <trkpt lat="44.8515517" lon="5.5248283">
        <time>1970-01-01T00:00:00+00:00</time>
        <ele>1731.0</ele>
      </trkpt>
      <trkpt lat="44.85154" lon="5.5247567">
        <time>1970-01-01T00:00:00+00:00</time>
        <ele>1732.0</ele>
      </trkpt>
      <trkpt lat="44.85154" lon="5.5247567">
        <time>1970-01-01T00:00:00+00:00</time>
        <ele>1732.0</ele>
      </trkpt>
      <trkpt lat="44.8515283" lon="5.5246867">
        <time>1970-01-01T00:00:00+00:00</time>
        <ele>1733.0</ele>
      </trkpt>
      <trkpt lat="44.8515283" lon="5.5246867">
        <time>1970-01-01T00:00:00+00:00</time>
        <ele>1733.0</ele>
      </trkpt>
      <trkpt lat="44.8515017" lon="5.524595">
        <time>1970-01-01T00:00:00+00:00</time>
        <ele>1736.0</ele>
      </trkpt>
      <trkpt lat="44.8515017" lon="5.524595">
        <time>1970-01-01T00:00:00+00:00</time>
        <ele>1736.0</ele>
      </trkpt>
      <trkpt lat="44.8514817" lon="5.5245217">
        <time>1970-01-01T00:00:00+00:00</time>
        <ele>1737.0</ele>
      </trkpt>
      <trkpt lat="44.8514817" lon="5.5245217">
        <time>1970-01-01T00:00:00+00:00</time>
        <ele>1737.0</ele>
      </trkpt>
      <trkpt lat="44.8514517" lon="5.5244433">
        <time>1970-01-01T00:00:00+00:00</time>
        <ele>1740.0</ele>
      </trkpt>
      <trkpt lat="44.8514517" lon="5.5244433">
        <time>1970-01-01T00:00:00+00:00</time>
        <ele>1740.0</ele>
      </trkpt>
      <trkpt lat="44.851425" lon="5.5243883">
        <time>1970-01-01T00:00:00+00:00</time>
        <ele>1742.0</ele>
      </trkpt>
      <trkpt lat="44.851425" lon="5.5243883">
        <time>1970-01-01T00:00:00+00:00</time>
        <ele>1742.0</ele>
      </trkpt>
      <trkpt lat="44.8513683" lon="5.5243967">
        <time>1970-01-01T00:00:00+00:00</time>
        <ele>1744.0</ele>
      </trkpt>
      <trkpt lat="44.8513683" lon="5.5243967">
        <time>1970-01-01T00:00:00+00:00</time>
        <ele>1744.0</ele>
      </trkpt>
      <trkpt lat="44.8513367" lon="5.5244533">
        <time>1970-01-01T00:00:00+00:00</time>
        <ele>1746.0</ele>
      </trkpt>
      <trkpt lat="44.8513367" lon="5.5244533">
        <time>1970-01-01T00:00:00+00:00</time>
        <ele>1746.0</ele>
      </trkpt>
      <trkpt lat="44.8512533" lon="5.5244">
        <time>1970-01-01T00:00:00+00:00</time>
        <ele>1752.0</ele>
      </trkpt>
      <trkpt lat="44.8512533" lon="5.5244">
        <time>1970-01-01T00:00:00+00:00</time>
        <ele>1752.0</ele>
      </trkpt>
      <trkpt lat="44.8512083" lon="5.5243417">
        <time>1970-01-01T00:00:00+00:00</time>
        <ele>1755.0</ele>
      </trkpt>
      <trkpt lat="44.8512083" lon="5.5243417">
        <time>1970-01-01T00:00:00+00:00</time>
        <ele>1755.0</ele>
      </trkpt>
      <trkpt lat="44.8511617" lon="5.5242733">
        <time>1970-01-01T00:00:00+00:00</time>
        <ele>1757.0</ele>
      </trkpt>
      <trkpt lat="44.8511617" lon="5.5242733">
        <time>1970-01-01T00:00:00+00:00</time>
        <ele>1757.0</ele>
      </trkpt>
      <trkpt lat="44.8511317" lon="5.524215">
        <time>1970-01-01T00:00:00+00:00</time>
        <ele>1759.0</ele>
      </trkpt>
      <trkpt lat="44.8511317" lon="5.524215">
        <time>1970-01-01T00:00:00+00:00</time>
        <ele>1759.0</ele>
      </trkpt>
      <trkpt lat="44.8510933" lon="5.5241267">
        <time>1970-01-01T00:00:00+00:00</time>
        <ele>1761.0</ele>
      </trkpt>
      <trkpt lat="44.8510933" lon="5.5241267">
        <time>1970-01-01T00:00:00+00:00</time>
        <ele>1761.0</ele>
      </trkpt>
      <trkpt lat="44.8510433" lon="5.5240633">
        <time>1970-01-01T00:00:00+00:00</time>
        <ele>1764.0</ele>
      </trkpt>
      <trkpt lat="44.8510433" lon="5.5240633">
        <time>1970-01-01T00:00:00+00:00</time>
        <ele>1764.0</ele>
      </trkpt>
      <trkpt lat="44.8510133" lon="5.524005">
        <time>1970-01-01T00:00:00+00:00</time>
        <ele>1766.0</ele>
      </trkpt>
      <trkpt lat="44.8510133" lon="5.524005">
        <time>1970-01-01T00:00:00+00:00</time>
        <ele>1766.0</ele>
      </trkpt>
      <trkpt lat="44.8509667" lon="5.5239417">
        <time>1970-01-01T00:00:00+00:00</time>
        <ele>1768.0</ele>
      </trkpt>
      <trkpt lat="44.8509667" lon="5.5239417">
        <time>1970-01-01T00:00:00+00:00</time>
        <ele>1768.0</ele>
      </trkpt>
      <trkpt lat="44.8509183" lon="5.52387">
        <time>1970-01-01T00:00:00+00:00</time>
        <ele>1771.0</ele>
      </trkpt>
      <trkpt lat="44.8509183" lon="5.52387">
        <time>1970-01-01T00:00:00+00:00</time>
        <ele>1771.0</ele>
      </trkpt>
      <trkpt lat="44.8508833" lon="5.52378">
        <time>1970-01-01T00:00:00+00:00</time>
        <ele>1774.0</ele>
      </trkpt>
      <trkpt lat="44.8508833" lon="5.52378">
        <time>1970-01-01T00:00:00+00:00</time>
        <ele>1774.0</ele>
      </trkpt>
      <trkpt lat="44.85086" lon="5.5236933">
        <time>1970-01-01T00:00:00+00:00</time>
        <ele>1775.0</ele>
      </trkpt>
      <trkpt lat="44.85086" lon="5.5236933">
        <time>1970-01-01T00:00:00+00:00</time>
        <ele>1775.0</ele>
      </trkpt>
      <trkpt lat="44.8508383" lon="5.5236083">
        <time>1970-01-01T00:00:00+00:00</time>
        <ele>1776.0</ele>
      </trkpt>
      <trkpt lat="44.8508383" lon="5.5236083">
        <time>1970-01-01T00:00:00+00:00</time>
        <ele>1776.0</ele>
      </trkpt>
      <trkpt lat="44.850765" lon="5.523595">
        <time>1970-01-01T00:00:00+00:00</time>
        <ele>1779.0</ele>
      </trkpt>
      <trkpt lat="44.850765" lon="5.523595">
        <time>1970-01-01T00:00:00+00:00</time>
        <ele>1779.0</ele>
      </trkpt>
      <trkpt lat="44.85072" lon="5.523605">
        <time>1970-01-01T00:00:00+00:00</time>
        <ele>1782.0</ele>
      </trkpt>
      <trkpt lat="44.85072" lon="5.523605">
        <time>1970-01-01T00:00:00+00:00</time>
        <ele>1782.0</ele>
      </trkpt>
      <trkpt lat="44.850705" lon="5.523515">
        <time>1970-01-01T00:00:00+00:00</time>
        <ele>1783.0</ele>
      </trkpt>
      <trkpt lat="44.850705" lon="5.523515">
        <time>1970-01-01T00:00:00+00:00</time>
        <ele>1783.0</ele>
      </trkpt>
      <trkpt lat="44.850685" lon="5.5234133">
        <time>1970-01-01T00:00:00+00:00</time>
        <ele>1784.0</ele>
      </trkpt>
      <trkpt lat="44.850685" lon="5.5234133">
        <time>1970-01-01T00:00:00+00:00</time>
        <ele>1784.0</ele>
      </trkpt>
      <trkpt lat="44.8506817" lon="5.5233083">
        <time>1970-01-01T00:00:00+00:00</time>
        <ele>1785.0</ele>
      </trkpt>
      <trkpt lat="44.8506817" lon="5.5233083">
        <time>1970-01-01T00:00:00+00:00</time>
        <ele>1785.0</ele>
      </trkpt>
      <trkpt lat="44.8507" lon="5.5232167">
        <time>1970-01-01T00:00:00+00:00</time>
        <ele>1786.0</ele>
      </trkpt>
      <trkpt lat="44.8507" lon="5.5232167">
        <time>1970-01-01T00:00:00+00:00</time>
        <ele>1786.0</ele>
      </trkpt>
      <trkpt lat="44.850635" lon="5.5231417">
        <time>1970-01-01T00:00:00+00:00</time>
        <ele>1789.0</ele>
      </trkpt>
      <trkpt lat="44.850635" lon="5.5231417">
        <time>1970-01-01T00:00:00+00:00</time>
        <ele>1789.0</ele>
      </trkpt>
      <trkpt lat="44.85057" lon="5.5231083">
        <time>1970-01-01T00:00:00+00:00</time>
        <ele>1792.0</ele>
      </trkpt>
      <trkpt lat="44.85057" lon="5.5231083">
        <time>1970-01-01T00:00:00+00:00</time>
        <ele>1792.0</ele>
      </trkpt>
      <trkpt lat="44.85051" lon="5.5230867">
        <time>1970-01-01T00:00:00+00:00</time>
        <ele>1796.0</ele>
      </trkpt>
      <trkpt lat="44.85051" lon="5.5230867">
        <time>1970-01-01T00:00:00+00:00</time>
        <ele>1796.0</ele>
      </trkpt>
      <trkpt lat="44.8504567" lon="5.5230533">
        <time>1970-01-01T00:00:00+00:00</time>
        <ele>1799.0</ele>
      </trkpt>
      <trkpt lat="44.8504567" lon="5.5230533">
        <time>1970-01-01T00:00:00+00:00</time>
        <ele>1799.0</ele>
      </trkpt>
      <trkpt lat="44.850395" lon="5.5230567">
        <time>1970-01-01T00:00:00+00:00</time>
        <ele>1802.0</ele>
      </trkpt>
      <trkpt lat="44.850395" lon="5.5230567">
        <time>1970-01-01T00:00:00+00:00</time>
        <ele>1802.0</ele>
      </trkpt>
      <trkpt lat="44.8503417" lon="5.5231217">
        <time>1970-01-01T00:00:00+00:00</time>
        <ele>1805.0</ele>
      </trkpt>
      <trkpt lat="44.8503417" lon="5.5231217">
        <time>1970-01-01T00:00:00+00:00</time>
        <ele>1805.0</ele>
      </trkpt>
      <trkpt lat="44.8502733" lon="5.5230317">
        <time>1970-01-01T00:00:00+00:00</time>
        <ele>1808.0</ele>
      </trkpt>
      <trkpt lat="44.8502733" lon="5.5230317">
        <time>1970-01-01T00:00:00+00:00</time>
        <ele>1808.0</ele>
      </trkpt>
      <trkpt lat="44.850235" lon="5.522955">
        <time>1970-01-01T00:00:00+00:00</time>
        <ele>1810.0</ele>
      </trkpt>
      <trkpt lat="44.850235" lon="5.522955">
        <time>1970-01-01T00:00:00+00:00</time>
        <ele>1810.0</ele>
      </trkpt>
      <trkpt lat="44.8501933" lon="5.5230183">
        <time>1970-01-01T00:00:00+00:00</time>
        <ele>1813.0</ele>
      </trkpt>
      <trkpt lat="44.8501933" lon="5.5230183">
        <time>1970-01-01T00:00:00+00:00</time>
        <ele>1813.0</ele>
      </trkpt>
      <trkpt lat="44.8501583" lon="5.5231017">
        <time>1970-01-01T00:00:00+00:00</time>
        <ele>1816.0</ele>
      </trkpt>
      <trkpt lat="44.8501583" lon="5.5231017">
        <time>1970-01-01T00:00:00+00:00</time>
        <ele>1816.0</ele>
      </trkpt>
      <trkpt lat="44.8501133" lon="5.523065">
        <time>1970-01-01T00:00:00+00:00</time>
        <ele>1819.0</ele>
      </trkpt>
      <trkpt lat="44.8501133" lon="5.523065">
        <time>1970-01-01T00:00:00+00:00</time>
        <ele>1819.0</ele>
      </trkpt>
      <trkpt lat="44.85006" lon="5.523005">
        <time>1970-01-01T00:00:00+00:00</time>
        <ele>1822.0</ele>
      </trkpt>
      <trkpt lat="44.85006" lon="5.523005">
        <time>1970-01-01T00:00:00+00:00</time>
        <ele>1822.0</ele>
      </trkpt>
      <trkpt lat="44.85001" lon="5.5229417">
        <time>1970-01-01T00:00:00+00:00</time>
        <ele>1825.0</ele>
      </trkpt>
      <trkpt lat="44.85001" lon="5.5229417">
        <time>1970-01-01T00:00:00+00:00</time>
        <ele>1825.0</ele>
      </trkpt>
      <trkpt lat="44.849975" lon="5.5228617">
        <time>1970-01-01T00:00:00+00:00</time>
        <ele>1826.0</ele>
      </trkpt>
      <trkpt lat="44.849975" lon="5.5228617">
        <time>1970-01-01T00:00:00+00:00</time>
        <ele>1826.0</ele>
      </trkpt>
      <trkpt lat="44.8499067" lon="5.5228483">
        <time>1970-01-01T00:00:00+00:00</time>
        <ele>1830.0</ele>
      </trkpt>
      <trkpt lat="44.8499067" lon="5.5228483">
        <time>1970-01-01T00:00:00+00:00</time>
        <ele>1830.0</ele>
      </trkpt>
      <trkpt lat="44.8498417" lon="5.522855">
        <time>1970-01-01T00:00:00+00:00</time>
        <ele>1834.0</ele>
      </trkpt>
      <trkpt lat="44.8498417" lon="5.522855">
        <time>1970-01-01T00:00:00+00:00</time>
        <ele>1834.0</ele>
      </trkpt>
      <trkpt lat="44.8497733" lon="5.5228267">
        <time>1970-01-01T00:00:00+00:00</time>
        <ele>1837.0</ele>
      </trkpt>
      <trkpt lat="44.8497733" lon="5.5228267">
        <time>1970-01-01T00:00:00+00:00</time>
        <ele>1837.0</ele>
      </trkpt>
      <trkpt lat="44.8497233" lon="5.5228">
        <time>1970-01-01T00:00:00+00:00</time>
        <ele>1838.0</ele>
      </trkpt>
      <trkpt lat="44.8497233" lon="5.5228">
        <time>1970-01-01T00:00:00+00:00</time>
        <ele>1838.0</ele>
      </trkpt>
      <trkpt lat="44.8496667" lon="5.5227317">
        <time>1970-01-01T00:00:00+00:00</time>
        <ele>1841.0</ele>
      </trkpt>
      <trkpt lat="44.8496667" lon="5.5227317">
        <time>1970-01-01T00:00:00+00:00</time>
        <ele>1841.0</ele>
      </trkpt>
      <trkpt lat="44.8496167" lon="5.5227017">
        <time>1970-01-01T00:00:00+00:00</time>
        <ele>1843.0</ele>
      </trkpt>
      <trkpt lat="44.8496167" lon="5.5227017">
        <time>1970-01-01T00:00:00+00:00</time>
        <ele>1843.0</ele>
      </trkpt>
      <trkpt lat="44.84956" lon="5.5226667">
        <time>1970-01-01T00:00:00+00:00</time>
        <ele>1845.0</ele>
      </trkpt>
      <trkpt lat="44.84956" lon="5.5226667">
        <time>1970-01-01T00:00:00+00:00</time>
        <ele>1845.0</ele>
      </trkpt>
      <trkpt lat="44.8495067" lon="5.522635">
        <time>1970-01-01T00:00:00+00:00</time>
        <ele>1847.0</ele>
      </trkpt>
      <trkpt lat="44.8495067" lon="5.522635">
        <time>1970-01-01T00:00:00+00:00</time>
        <ele>1847.0</ele>
      </trkpt>
      <trkpt lat="44.8494417" lon="5.522575">
        <time>1970-01-01T00:00:00+00:00</time>
        <ele>1849.0</ele>
      </trkpt>
      <trkpt lat="44.8494417" lon="5.522575">
        <time>1970-01-01T00:00:00+00:00</time>
        <ele>1849.0</ele>
      </trkpt>
      <trkpt lat="44.8493683" lon="5.5225667">
        <time>1970-01-01T00:00:00+00:00</time>
        <ele>1853.0</ele>
      </trkpt>
      <trkpt lat="44.8493683" lon="5.5225667">
        <time>1970-01-01T00:00:00+00:00</time>
        <ele>1853.0</ele>
      </trkpt>
      <trkpt lat="44.84932" lon="5.5225317">
        <time>1970-01-01T00:00:00+00:00</time>
        <ele>1855.0</ele>
      </trkpt>
      <trkpt lat="44.84932" lon="5.5225317">
        <time>1970-01-01T00:00:00+00:00</time>
        <ele>1855.0</ele>
      </trkpt>
      <trkpt lat="44.8492667" lon="5.5224533">
        <time>1970-01-01T00:00:00+00:00</time>
        <ele>1856.0</ele>
      </trkpt>
      <trkpt lat="44.8492667" lon="5.5224533">
        <time>1970-01-01T00:00:00+00:00</time>
        <ele>1856.0</ele>
      </trkpt>
      <trkpt lat="44.8492317" lon="5.5223733">
        <time>1970-01-01T00:00:00+00:00</time>
        <ele>1857.0</ele>
      </trkpt>
      <trkpt lat="44.8492317" lon="5.5223733">
        <time>1970-01-01T00:00:00+00:00</time>
        <ele>1857.0</ele>
      </trkpt>
      <trkpt lat="44.8491967" lon="5.522275">
        <time>1970-01-01T00:00:00+00:00</time>
        <ele>1858.0</ele>
      </trkpt>
      <trkpt lat="44.8491967" lon="5.522275">
        <time>1970-01-01T00:00:00+00:00</time>
        <ele>1858.0</ele>
      </trkpt>
      <trkpt lat="44.8491633" lon="5.5222217">
        <time>1970-01-01T00:00:00+00:00</time>
        <ele>1859.0</ele>
      </trkpt>
      <trkpt lat="44.8491633" lon="5.5222217">
        <time>1970-01-01T00:00:00+00:00</time>
        <ele>1859.0</ele>
      </trkpt>
      <trkpt lat="44.8491017" lon="5.52214">
        <time>1970-01-01T00:00:00+00:00</time>
        <ele>1861.0</ele>
      </trkpt>
      <trkpt lat="44.8491017" lon="5.52214">
        <time>1970-01-01T00:00:00+00:00</time>
        <ele>1861.0</ele>
      </trkpt>
      <trkpt lat="44.8490483" lon="5.52209">
        <time>1970-01-01T00:00:00+00:00</time>
        <ele>1862.0</ele>
      </trkpt>
      <trkpt lat="44.8490483" lon="5.52209">
        <time>1970-01-01T00:00:00+00:00</time>
        <ele>1862.0</ele>
      </trkpt>
      <trkpt lat="44.8489917" lon="5.5220383">
        <time>1970-01-01T00:00:00+00:00</time>
        <ele>1862.0</ele>
      </trkpt>
      <trkpt lat="44.8489917" lon="5.5220383">
        <time>1970-01-01T00:00:00+00:00</time>
        <ele>1862.0</ele>
      </trkpt>
      <trkpt lat="44.8489267" lon="5.5219817">
        <time>1970-01-01T00:00:00+00:00</time>
        <ele>1863.0</ele>
      </trkpt>
      <trkpt lat="44.8489267" lon="5.5219817">
        <time>1970-01-01T00:00:00+00:00</time>
        <ele>1863.0</ele>
      </trkpt>
      <trkpt lat="44.84887" lon="5.5219167">
        <time>1970-01-01T00:00:00+00:00</time>
        <ele>1864.0</ele>
      </trkpt>
      <trkpt lat="44.84887" lon="5.5219167">
        <time>1970-01-01T00:00:00+00:00</time>
        <ele>1864.0</ele>
      </trkpt>
      <trkpt lat="44.8488167" lon="5.5218517">
        <time>1970-01-01T00:00:00+00:00</time>
        <ele>1865.0</ele>
      </trkpt>
      <trkpt lat="44.8488167" lon="5.5218517">
        <time>1970-01-01T00:00:00+00:00</time>
        <ele>1865.0</ele>
      </trkpt>
      <trkpt lat="44.8487583" lon="5.521785">
        <time>1970-01-01T00:00:00+00:00</time>
        <ele>1866.0</ele>
      </trkpt>
      <trkpt lat="44.8487583" lon="5.521785">
        <time>1970-01-01T00:00:00+00:00</time>
        <ele>1866.0</ele>
      </trkpt>
      <trkpt lat="44.8486983" lon="5.5217267">
        <time>1970-01-01T00:00:00+00:00</time>
        <ele>1867.0</ele>
      </trkpt>
      <trkpt lat="44.8486983" lon="5.5217267">
        <time>1970-01-01T00:00:00+00:00</time>
        <ele>1867.0</ele>
      </trkpt>
      <trkpt lat="44.8486367" lon="5.52167">
        <time>1970-01-01T00:00:00+00:00</time>
        <ele>1869.0</ele>
      </trkpt>
      <trkpt lat="44.8486367" lon="5.52167">
        <time>1970-01-01T00:00:00+00:00</time>
        <ele>1869.0</ele>
      </trkpt>
      <trkpt lat="44.8485717" lon="5.5216067">
        <time>1970-01-01T00:00:00+00:00</time>
        <ele>1871.0</ele>
      </trkpt>
      <trkpt lat="44.8485717" lon="5.5216067">
        <time>1970-01-01T00:00:00+00:00</time>
        <ele>1871.0</ele>
      </trkpt>
      <trkpt lat="44.848515" lon="5.5215433">
        <time>1970-01-01T00:00:00+00:00</time>
        <ele>1871.0</ele>
      </trkpt>
      <trkpt lat="44.848515" lon="5.5215433">
        <time>1970-01-01T00:00:00+00:00</time>
        <ele>1871.0</ele>
      </trkpt>
      <trkpt lat="44.8484683" lon="5.5214733">
        <time>1970-01-01T00:00:00+00:00</time>
        <ele>1872.0</ele>
      </trkpt>
      <trkpt lat="44.8484683" lon="5.5214733">
        <time>1970-01-01T00:00:00+00:00</time>
        <ele>1872.0</ele>
      </trkpt>
      <trkpt lat="44.84842" lon="5.52139">
        <time>1970-01-01T00:00:00+00:00</time>
        <ele>1873.0</ele>
      </trkpt>
      <trkpt lat="44.84842" lon="5.52139">
        <time>1970-01-01T00:00:00+00:00</time>
        <ele>1873.0</ele>
      </trkpt>
      <trkpt lat="44.8483733" lon="5.5213033">
        <time>1970-01-01T00:00:00+00:00</time>
        <ele>1874.0</ele>
      </trkpt>
      <trkpt lat="44.8483733" lon="5.5213033">
        <time>1970-01-01T00:00:00+00:00</time>
        <ele>1874.0</ele>
      </trkpt>
      <trkpt lat="44.8483317" lon="5.521215">
        <time>1970-01-01T00:00:00+00:00</time>
        <ele>1873.0</ele>
      </trkpt>
      <trkpt lat="44.8483317" lon="5.521215">
        <time>1970-01-01T00:00:00+00:00</time>
        <ele>1873.0</ele>
      </trkpt>
      <trkpt lat="44.8482817" lon="5.5211167">
        <time>1970-01-01T00:00:00+00:00</time>
        <ele>1874.0</ele>
      </trkpt>
      <trkpt lat="44.8482817" lon="5.5211167">
        <time>1970-01-01T00:00:00+00:00</time>
        <ele>1874.0</ele>
      </trkpt>
      <trkpt lat="44.84824" lon="5.5210217">
        <time>1970-01-01T00:00:00+00:00</time>
        <ele>1876.0</ele>
      </trkpt>
      <trkpt lat="44.84824" lon="5.5210217">
        <time>1970-01-01T00:00:00+00:00</time>
        <ele>1876.0</ele>
      </trkpt>
      <trkpt lat="44.8481933" lon="5.5209417">
        <time>1970-01-01T00:00:00+00:00</time>
        <ele>1878.0</ele>
      </trkpt>
      <trkpt lat="44.8481933" lon="5.5209417">
        <time>1970-01-01T00:00:00+00:00</time>
        <ele>1878.0</ele>
      </trkpt>
      <trkpt lat="44.848145" lon="5.520875">
        <time>1970-01-01T00:00:00+00:00</time>
        <ele>1879.0</ele>
      </trkpt>
      <trkpt lat="44.848145" lon="5.520875">
        <time>1970-01-01T00:00:00+00:00</time>
        <ele>1879.0</ele>
      </trkpt>
      <trkpt lat="44.8480833" lon="5.5207983">
        <time>1970-01-01T00:00:00+00:00</time>
        <ele>1880.0</ele>
      </trkpt>
      <trkpt lat="44.8480833" lon="5.5207983">
        <time>1970-01-01T00:00:00+00:00</time>
        <ele>1880.0</ele>
      </trkpt>
      <trkpt lat="44.84803" lon="5.5207217">
        <time>1970-01-01T00:00:00+00:00</time>
        <ele>1881.0</ele>
      </trkpt>
      <trkpt lat="44.84803" lon="5.5207217">
        <time>1970-01-01T00:00:00+00:00</time>
        <ele>1881.0</ele>
      </trkpt>
      <trkpt lat="44.8479883" lon="5.5206783">
        <time>1970-01-01T00:00:00+00:00</time>
        <ele>1881.0</ele>
      </trkpt>
      <trkpt lat="44.8479883" lon="5.5206783">
        <time>1970-01-01T00:00:00+00:00</time>
        <ele>1881.0</ele>
      </trkpt>
      <trkpt lat="44.8479267" lon="5.5206317">
        <time>1970-01-01T00:00:00+00:00</time>
        <ele>1882.0</ele>
      </trkpt>
      <trkpt lat="44.8479267" lon="5.5206317">
        <time>1970-01-01T00:00:00+00:00</time>
        <ele>1882.0</ele>
      </trkpt>
      <trkpt lat="44.8478733" lon="5.5205917">
        <time>1970-01-01T00:00:00+00:00</time>
        <ele>1883.0</ele>
      </trkpt>
      <trkpt lat="44.8478733" lon="5.5205917">
        <time>1970-01-01T00:00:00+00:00</time>
        <ele>1883.0</ele>
      </trkpt>
      <trkpt lat="44.8478283" lon="5.5205417">
        <time>1970-01-01T00:00:00+00:00</time>
        <ele>1884.0</ele>
      </trkpt>
      <trkpt lat="44.8478283" lon="5.5205417">
        <time>1970-01-01T00:00:00+00:00</time>
        <ele>1884.0</ele>
      </trkpt>
      <trkpt lat="44.8477867" lon="5.5204967">
        <time>1970-01-01T00:00:00+00:00</time>
        <ele>1884.0</ele>
      </trkpt>
      <trkpt lat="44.8477867" lon="5.5204967">
        <time>1970-01-01T00:00:00+00:00</time>
        <ele>1884.0</ele>
      </trkpt>
      <trkpt lat="44.847725" lon="5.520435">
        <time>1970-01-01T00:00:00+00:00</time>
        <ele>1884.0</ele>
      </trkpt>
      <trkpt lat="44.847725" lon="5.520435">
        <time>1970-01-01T00:00:00+00:00</time>
        <ele>1884.0</ele>
      </trkpt>
      <trkpt lat="44.84766" lon="5.5203667">
        <time>1970-01-01T00:00:00+00:00</time>
        <ele>1885.0</ele>
      </trkpt>
      <trkpt lat="44.84766" lon="5.5203667">
        <time>1970-01-01T00:00:00+00:00</time>
        <ele>1885.0</ele>
      </trkpt>
      <trkpt lat="44.84761" lon="5.52029">
        <time>1970-01-01T00:00:00+00:00</time>
        <ele>1887.0</ele>
      </trkpt>
      <trkpt lat="44.84761" lon="5.52029">
        <time>1970-01-01T00:00:00+00:00</time>
        <ele>1887.0</ele>
      </trkpt>
      <trkpt lat="44.8475567" lon="5.5201967">
        <time>1970-01-01T00:00:00+00:00</time>
        <ele>1887.0</ele>
      </trkpt>
      <trkpt lat="44.8475567" lon="5.5201967">
        <time>1970-01-01T00:00:00+00:00</time>
        <ele>1887.0</ele>
      </trkpt>
      <trkpt lat="44.8475" lon="5.5201133">
        <time>1970-01-01T00:00:00+00:00</time>
        <ele>1888.0</ele>
      </trkpt>
      <trkpt lat="44.8475" lon="5.5201133">
        <time>1970-01-01T00:00:00+00:00</time>
        <ele>1888.0</ele>
      </trkpt>
      <trkpt lat="44.8474583" lon="5.5200133">
        <time>1970-01-01T00:00:00+00:00</time>
        <ele>1889.0</ele>
      </trkpt>
      <trkpt lat="44.8474583" lon="5.5200133">
        <time>1970-01-01T00:00:00+00:00</time>
        <ele>1889.0</ele>
      </trkpt>
      <trkpt lat="44.8474" lon="5.5199133">
        <time>1970-01-01T00:00:00+00:00</time>
        <ele>1890.0</ele>
      </trkpt>
      <trkpt lat="44.8474" lon="5.5199133">
        <time>1970-01-01T00:00:00+00:00</time>
        <ele>1890.0</ele>
      </trkpt>
      <trkpt lat="44.8473517" lon="5.5198167">
        <time>1970-01-01T00:00:00+00:00</time>
        <ele>1889.0</ele>
      </trkpt>
      <trkpt lat="44.8473517" lon="5.5198167">
        <time>1970-01-01T00:00:00+00:00</time>
        <ele>1889.0</ele>
      </trkpt>
      <trkpt lat="44.8472983" lon="5.5197283">
        <time>1970-01-01T00:00:00+00:00</time>
        <ele>1891.0</ele>
      </trkpt>
      <trkpt lat="44.8472983" lon="5.5197283">
        <time>1970-01-01T00:00:00+00:00</time>
        <ele>1891.0</ele>
      </trkpt>
      <trkpt lat="44.847255" lon="5.5196417">
        <time>1970-01-01T00:00:00+00:00</time>
        <ele>1892.0</ele>
      </trkpt>
      <trkpt lat="44.847255" lon="5.5196417">
        <time>1970-01-01T00:00:00+00:00</time>
        <ele>1892.0</ele>
      </trkpt>
      <trkpt lat="44.84721" lon="5.519555">
        <time>1970-01-01T00:00:00+00:00</time>
        <ele>1892.0</ele>
      </trkpt>
      <trkpt lat="44.84721" lon="5.519555">
        <time>1970-01-01T00:00:00+00:00</time>
        <ele>1892.0</ele>
      </trkpt>
      <trkpt lat="44.84716" lon="5.519465">
        <time>1970-01-01T00:00:00+00:00</time>
        <ele>1893.0</ele>
      </trkpt>
      <trkpt lat="44.84716" lon="5.519465">
        <time>1970-01-01T00:00:00+00:00</time>
        <ele>1893.0</ele>
      </trkpt>
      <trkpt lat="44.8471067" lon="5.519385">
        <time>1970-01-01T00:00:00+00:00</time>
        <ele>1894.0</ele>
      </trkpt>
      <trkpt lat="44.8471067" lon="5.519385">
        <time>1970-01-01T00:00:00+00:00</time>
        <ele>1894.0</ele>
      </trkpt>
      <trkpt lat="44.8470383" lon="5.5193083">
        <time>1970-01-01T00:00:00+00:00</time>
        <ele>1895.0</ele>
      </trkpt>
      <trkpt lat="44.8470383" lon="5.5193083">
        <time>1970-01-01T00:00:00+00:00</time>
        <ele>1895.0</ele>
      </trkpt>
      <trkpt lat="44.84697" lon="5.5192633">
        <time>1970-01-01T00:00:00+00:00</time>
        <ele>1896.0</ele>
      </trkpt>
      <trkpt lat="44.84697" lon="5.5192633">
        <time>1970-01-01T00:00:00+00:00</time>
        <ele>1896.0</ele>
      </trkpt>
      <trkpt lat="44.8468817" lon="5.5192283">
        <time>1970-01-01T00:00:00+00:00</time>
        <ele>1898.0</ele>
      </trkpt>
      <trkpt lat="44.8468817" lon="5.5192283">
        <time>1970-01-01T00:00:00+00:00</time>
        <ele>1898.0</ele>
      </trkpt>
      <trkpt lat="44.8467983" lon="5.519175">
        <time>1970-01-01T00:00:00+00:00</time>
        <ele>1898.0</ele>
      </trkpt>
      <trkpt lat="44.8467983" lon="5.519175">
        <time>1970-01-01T00:00:00+00:00</time>
        <ele>1898.0</ele>
      </trkpt>
      <trkpt lat="44.8467333" lon="5.5191133">
        <time>1970-01-01T00:00:00+00:00</time>
        <ele>1899.0</ele>
      </trkpt>
      <trkpt lat="44.8467333" lon="5.5191133">
        <time>1970-01-01T00:00:00+00:00</time>
        <ele>1899.0</ele>
      </trkpt>
      <trkpt lat="44.8466717" lon="5.5190317">
        <time>1970-01-01T00:00:00+00:00</time>
        <ele>1898.0</ele>
      </trkpt>
      <trkpt lat="44.8466717" lon="5.5190317">
        <time>1970-01-01T00:00:00+00:00</time>
        <ele>1898.0</ele>
      </trkpt>
      <trkpt lat="44.8466117" lon="5.5189517">
        <time>1970-01-01T00:00:00+00:00</time>
        <ele>1899.0</ele>
      </trkpt>
      <trkpt lat="44.8466117" lon="5.5189517">
        <time>1970-01-01T00:00:00+00:00</time>
        <ele>1899.0</ele>
      </trkpt>
      <trkpt lat="44.84655" lon="5.5188617">
        <time>1970-01-01T00:00:00+00:00</time>
        <ele>1900.0</ele>
      </trkpt>
      <trkpt lat="44.84655" lon="5.5188617">
        <time>1970-01-01T00:00:00+00:00</time>
        <ele>1900.0</ele>
      </trkpt>
      <trkpt lat="44.8464933" lon="5.51878">
        <time>1970-01-01T00:00:00+00:00</time>
        <ele>1901.0</ele>
      </trkpt>
      <trkpt lat="44.8464933" lon="5.51878">
        <time>1970-01-01T00:00:00+00:00</time>
        <ele>1901.0</ele>
      </trkpt>
      <trkpt lat="44.8464433" lon="5.5187033">
        <time>1970-01-01T00:00:00+00:00</time>
        <ele>1902.0</ele>
      </trkpt>
      <trkpt lat="44.8464433" lon="5.5187033">
        <time>1970-01-01T00:00:00+00:00</time>
        <ele>1902.0</ele>
      </trkpt>
      <trkpt lat="44.8464167" lon="5.5185917">
        <time>1970-01-01T00:00:00+00:00</time>
        <ele>1902.0</ele>
      </trkpt>
      <trkpt lat="44.8464167" lon="5.5185917">
        <time>1970-01-01T00:00:00+00:00</time>
        <ele>1902.0</ele>
      </trkpt>
      <trkpt lat="44.8464017" lon="5.5184783">
        <time>1970-01-01T00:00:00+00:00</time>
        <ele>1901.0</ele>
      </trkpt>
      <trkpt lat="44.8464017" lon="5.5184783">
        <time>1970-01-01T00:00:00+00:00</time>
        <ele>1901.0</ele>
      </trkpt>
      <trkpt lat="44.8463633" lon="5.5183933">
        <time>1970-01-01T00:00:00+00:00</time>
        <ele>1903.0</ele>
      </trkpt>
      <trkpt lat="44.8463633" lon="5.5183933">
        <time>1970-01-01T00:00:00+00:00</time>
        <ele>1903.0</ele>
      </trkpt>
      <trkpt lat="44.8463133" lon="5.5183183">
        <time>1970-01-01T00:00:00+00:00</time>
        <ele>1904.0</ele>
      </trkpt>
      <trkpt lat="44.8463133" lon="5.5183183">
        <time>1970-01-01T00:00:00+00:00</time>
        <ele>1904.0</ele>
      </trkpt>
      <trkpt lat="44.846275" lon="5.5182583">
        <time>1970-01-01T00:00:00+00:00</time>
        <ele>1905.0</ele>
      </trkpt>
      <trkpt lat="44.846275" lon="5.5182583">
        <time>1970-01-01T00:00:00+00:00</time>
        <ele>1905.0</ele>
      </trkpt>
      <trkpt lat="44.8462217" lon="5.5182167">
        <time>1970-01-01T00:00:00+00:00</time>
        <ele>1905.0</ele>
      </trkpt>
      <trkpt lat="44.8462217" lon="5.5182167">
        <time>1970-01-01T00:00:00+00:00</time>
        <ele>1905.0</ele>
      </trkpt>
      <trkpt lat="44.8461533" lon="5.518145">
        <time>1970-01-01T00:00:00+00:00</time>
        <ele>1907.0</ele>
      </trkpt>
      <trkpt lat="44.8461533" lon="5.518145">
        <time>1970-01-01T00:00:00+00:00</time>
        <ele>1907.0</ele>
      </trkpt>
      <trkpt lat="44.84608" lon="5.518075">
        <time>1970-01-01T00:00:00+00:00</time>
        <ele>1908.0</ele>
      </trkpt>
      <trkpt lat="44.84608" lon="5.518075">
        <time>1970-01-01T00:00:00+00:00</time>
        <ele>1908.0</ele>
      </trkpt>
      <trkpt lat="44.8460167" lon="5.5179967">
        <time>1970-01-01T00:00:00+00:00</time>
        <ele>1909.0</ele>
      </trkpt>
      <trkpt lat="44.8460167" lon="5.5179967">
        <time>1970-01-01T00:00:00+00:00</time>
        <ele>1909.0</ele>
      </trkpt>
      <trkpt lat="44.8459583" lon="5.517915">
        <time>1970-01-01T00:00:00+00:00</time>
        <ele>1909.0</ele>
      </trkpt>
      <trkpt lat="44.8459583" lon="5.517915">
        <time>1970-01-01T00:00:00+00:00</time>
        <ele>1909.0</ele>
      </trkpt>
      <trkpt lat="44.8458983" lon="5.5178333">
        <time>1970-01-01T00:00:00+00:00</time>
        <ele>1910.0</ele>
      </trkpt>
      <trkpt lat="44.8458983" lon="5.5178333">
        <time>1970-01-01T00:00:00+00:00</time>
        <ele>1910.0</ele>
      </trkpt>
      <trkpt lat="44.845845" lon="5.5177533">
        <time>1970-01-01T00:00:00+00:00</time>
        <ele>1911.0</ele>
      </trkpt>
      <trkpt lat="44.845845" lon="5.5177533">
        <time>1970-01-01T00:00:00+00:00</time>
        <ele>1911.0</ele>
      </trkpt>
      <trkpt lat="44.8457683" lon="5.5177183">
        <time>1970-01-01T00:00:00+00:00</time>
        <ele>1911.0</ele>
      </trkpt>
      <trkpt lat="44.8457683" lon="5.5177183">
        <time>1970-01-01T00:00:00+00:00</time>
        <ele>1911.0</ele>
      </trkpt>
      <trkpt lat="44.8457183" lon="5.517715">
        <time>1970-01-01T00:00:00+00:00</time>
        <ele>1912.0</ele>
      </trkpt>
      <trkpt lat="44.8457183" lon="5.517715">
        <time>1970-01-01T00:00:00+00:00</time>
        <ele>1912.0</ele>
      </trkpt>
      <trkpt lat="44.845665" lon="5.51768">
        <time>1970-01-01T00:00:00+00:00</time>
        <ele>1912.0</ele>
      </trkpt>
      <trkpt lat="44.845665" lon="5.51768">
        <time>1970-01-01T00:00:00+00:00</time>
        <ele>1912.0</ele>
      </trkpt>
      <trkpt lat="44.845585" lon="5.5176433">
        <time>1970-01-01T00:00:00+00:00</time>
        <ele>1913.0</ele>
      </trkpt>
      <trkpt lat="44.845585" lon="5.5176433">
        <time>1970-01-01T00:00:00+00:00</time>
        <ele>1913.0</ele>
      </trkpt>
      <trkpt lat="44.845505" lon="5.51761">
        <time>1970-01-01T00:00:00+00:00</time>
        <ele>1914.0</ele>
      </trkpt>
      <trkpt lat="44.845505" lon="5.51761">
        <time>1970-01-01T00:00:00+00:00</time>
        <ele>1914.0</ele>
      </trkpt>
      <trkpt lat="44.8454217" lon="5.51759">
        <time>1970-01-01T00:00:00+00:00</time>
        <ele>1915.0</ele>
      </trkpt>
      <trkpt lat="44.8454217" lon="5.51759">
        <time>1970-01-01T00:00:00+00:00</time>
        <ele>1915.0</ele>
      </trkpt>
      <trkpt lat="44.8453333" lon="5.5175683">
        <time>1970-01-01T00:00:00+00:00</time>
        <ele>1916.0</ele>
      </trkpt>
      <trkpt lat="44.8453333" lon="5.5175683">
        <time>1970-01-01T00:00:00+00:00</time>
        <ele>1916.0</ele>
      </trkpt>
      <trkpt lat="44.8452567" lon="5.5175567">
        <time>1970-01-01T00:00:00+00:00</time>
        <ele>1917.0</ele>
      </trkpt>
      <trkpt lat="44.8452567" lon="5.5175567">
        <time>1970-01-01T00:00:00+00:00</time>
        <ele>1917.0</ele>
      </trkpt>
      <trkpt lat="44.8451767" lon="5.5175417">
        <time>1970-01-01T00:00:00+00:00</time>
        <ele>1918.0</ele>
      </trkpt>
      <trkpt lat="44.8451767" lon="5.5175417">
        <time>1970-01-01T00:00:00+00:00</time>
        <ele>1918.0</ele>
      </trkpt>
      <trkpt lat="44.8451083" lon="5.5175383">
        <time>1970-01-01T00:00:00+00:00</time>
        <ele>1919.0</ele>
      </trkpt>
      <trkpt lat="44.8451083" lon="5.5175383">
        <time>1970-01-01T00:00:00+00:00</time>
        <ele>1919.0</ele>
      </trkpt>
      <trkpt lat="44.845035" lon="5.5175633">
        <time>1970-01-01T00:00:00+00:00</time>
        <ele>1920.0</ele>
      </trkpt>
      <trkpt lat="44.845035" lon="5.5175633">
        <time>1970-01-01T00:00:00+00:00</time>
        <ele>1920.0</ele>
      </trkpt>
      <trkpt lat="44.8449667" lon="5.5175817">
        <time>1970-01-01T00:00:00+00:00</time>
        <ele>1921.0</ele>
      </trkpt>
      <trkpt lat="44.8449667" lon="5.5175817">
        <time>1970-01-01T00:00:00+00:00</time>
        <ele>1921.0</ele>
      </trkpt>
      <trkpt lat="44.8448983" lon="5.5176033">
        <time>1970-01-01T00:00:00+00:00</time>
        <ele>1922.0</ele>
      </trkpt>
      <trkpt lat="44.8448983" lon="5.5176033">
        <time>1970-01-01T00:00:00+00:00</time>
        <ele>1922.0</ele>
      </trkpt>
      <trkpt lat="44.8448333" lon="5.5176167">
        <time>1970-01-01T00:00:00+00:00</time>
        <ele>1923.0</ele>
      </trkpt>
      <trkpt lat="44.8448333" lon="5.5176167">
        <time>1970-01-01T00:00:00+00:00</time>
        <ele>1923.0</ele>
      </trkpt>
      <trkpt lat="44.8447767" lon="5.5176367">
        <time>1970-01-01T00:00:00+00:00</time>
        <ele>1924.0</ele>
      </trkpt>
      <trkpt lat="44.8447767" lon="5.5176367">
        <time>1970-01-01T00:00:00+00:00</time>
        <ele>1924.0</ele>
      </trkpt>
      <trkpt lat="44.8447117" lon="5.5176617">
        <time>1970-01-01T00:00:00+00:00</time>
        <ele>1925.0</ele>
      </trkpt>
      <trkpt lat="44.8447117" lon="5.5176617">
        <time>1970-01-01T00:00:00+00:00</time>
        <ele>1925.0</ele>
      </trkpt>
      <trkpt lat="44.8446617" lon="5.5176817">
        <time>1970-01-01T00:00:00+00:00</time>
        <ele>1926.0</ele>
      </trkpt>
      <trkpt lat="44.8446617" lon="5.5176817">
        <time>1970-01-01T00:00:00+00:00</time>
        <ele>1926.0</ele>
      </trkpt>
      <trkpt lat="44.8445933" lon="5.5177083">
        <time>1970-01-01T00:00:00+00:00</time>
        <ele>1928.0</ele>
      </trkpt>
      <trkpt lat="44.8445933" lon="5.5177083">
        <time>1970-01-01T00:00:00+00:00</time>
        <ele>1928.0</ele>
      </trkpt>
      <trkpt lat="44.844525" lon="5.5177283">
        <time>1970-01-01T00:00:00+00:00</time>
        <ele>1929.0</ele>
      </trkpt>
      <trkpt lat="44.844525" lon="5.5177283">
        <time>1970-01-01T00:00:00+00:00</time>
        <ele>1929.0</ele>
      </trkpt>
      <trkpt lat="44.8444483" lon="5.5177483">
        <time>1970-01-01T00:00:00+00:00</time>
        <ele>1930.0</ele>
      </trkpt>
      <trkpt lat="44.8444483" lon="5.5177483">
        <time>1970-01-01T00:00:00+00:00</time>
        <ele>1930.0</ele>
      </trkpt>
      <trkpt lat="44.844375" lon="5.51777">
        <time>1970-01-01T00:00:00+00:00</time>
        <ele>1929.0</ele>
      </trkpt>
      <trkpt lat="44.844375" lon="5.51777">
        <time>1970-01-01T00:00:00+00:00</time>
        <ele>1929.0</ele>
      </trkpt>
      <trkpt lat="44.84433" lon="5.5177883">
        <time>1970-01-01T00:00:00+00:00</time>
        <ele>1929.0</ele>
      </trkpt>
      <trkpt lat="44.84433" lon="5.5177883">
        <time>1970-01-01T00:00:00+00:00</time>
        <ele>1929.0</ele>
      </trkpt>
      <trkpt lat="44.8442617" lon="5.5178317">
        <time>1970-01-01T00:00:00+00:00</time>
        <ele>1929.0</ele>
      </trkpt>
      <trkpt lat="44.8442617" lon="5.5178317">
        <time>1970-01-01T00:00:00+00:00</time>
        <ele>1929.0</ele>
      </trkpt>
      <trkpt lat="44.8441933" lon="5.51788">
        <time>1970-01-01T00:00:00+00:00</time>
        <ele>1929.0</ele>
      </trkpt>
      <trkpt lat="44.8441933" lon="5.51788">
        <time>1970-01-01T00:00:00+00:00</time>
        <ele>1929.0</ele>
      </trkpt>
      <trkpt lat="44.84409" lon="5.5179467">
        <time>1970-01-01T00:00:00+00:00</time>
        <ele>1930.0</ele>
      </trkpt>
      <trkpt lat="44.84409" lon="5.5179467">
        <time>1970-01-01T00:00:00+00:00</time>
        <ele>1930.0</ele>
      </trkpt>
      <trkpt lat="44.8440133" lon="5.517985">
        <time>1970-01-01T00:00:00+00:00</time>
        <ele>1932.0</ele>
      </trkpt>
      <trkpt lat="44.8440133" lon="5.517985">
        <time>1970-01-01T00:00:00+00:00</time>
        <ele>1932.0</ele>
      </trkpt>
      <trkpt lat="44.843925" lon="5.5180183">
        <time>1970-01-01T00:00:00+00:00</time>
        <ele>1932.0</ele>
      </trkpt>
      <trkpt lat="44.843925" lon="5.5180183">
        <time>1970-01-01T00:00:00+00:00</time>
        <ele>1932.0</ele>
      </trkpt>
      <trkpt lat="44.8438333" lon="5.5180467">
        <time>1970-01-01T00:00:00+00:00</time>
        <ele>1933.0</ele>
      </trkpt>
      <trkpt lat="44.8438333" lon="5.5180467">
        <time>1970-01-01T00:00:00+00:00</time>
        <ele>1933.0</ele>
      </trkpt>
      <trkpt lat="44.843785" lon="5.5180683">
        <time>1970-01-01T00:00:00+00:00</time>
        <ele>1933.0</ele>
      </trkpt>
      <trkpt lat="44.843785" lon="5.5180683">
        <time>1970-01-01T00:00:00+00:00</time>
        <ele>1933.0</ele>
      </trkpt>
      <trkpt lat="44.8436967" lon="5.5180983">
        <time>1970-01-01T00:00:00+00:00</time>
        <ele>1934.0</ele>
      </trkpt>
      <trkpt lat="44.8436967" lon="5.5180983">
        <time>1970-01-01T00:00:00+00:00</time>
        <ele>1934.0</ele>
      </trkpt>
      <trkpt lat="44.843655" lon="5.5180733">
        <time>1970-01-01T00:00:00+00:00</time>
        <ele>1935.0</ele>
      </trkpt>
      <trkpt lat="44.843655" lon="5.5180733">
        <time>1970-01-01T00:00:00+00:00</time>
        <ele>1935.0</ele>
      </trkpt>
      <trkpt lat="44.8435783" lon="5.518015">
        <time>1970-01-01T00:00:00+00:00</time>
        <ele>1937.0</ele>
      </trkpt>
      <trkpt lat="44.8435783" lon="5.518015">
        <time>1970-01-01T00:00:00+00:00</time>
        <ele>1937.0</ele>
      </trkpt>
      <trkpt lat="44.8435217" lon="5.51808">
        <time>1970-01-01T00:00:00+00:00</time>
        <ele>1938.0</ele>
      </trkpt>
      <trkpt lat="44.8435217" lon="5.51808">
        <time>1970-01-01T00:00:00+00:00</time>
        <ele>1938.0</ele>
      </trkpt>
      <trkpt lat="44.843475" lon="5.5181483">
        <time>1970-01-01T00:00:00+00:00</time>
        <ele>1940.0</ele>
      </trkpt>
      <trkpt lat="44.843475" lon="5.5181483">
        <time>1970-01-01T00:00:00+00:00</time>
        <ele>1940.0</ele>
      </trkpt>
      <trkpt lat="44.8434183" lon="5.518235">
        <time>1970-01-01T00:00:00+00:00</time>
        <ele>1942.0</ele>
      </trkpt>
      <trkpt lat="44.8434183" lon="5.518235">
        <time>1970-01-01T00:00:00+00:00</time>
        <ele>1942.0</ele>
      </trkpt>
      <trkpt lat="44.8433533" lon="5.5183183">
        <time>1970-01-01T00:00:00+00:00</time>
        <ele>1944.0</ele>
      </trkpt>
      <trkpt lat="44.8433533" lon="5.5183183">
        <time>1970-01-01T00:00:00+00:00</time>
        <ele>1944.0</ele>
      </trkpt>
      <trkpt lat="44.8433" lon="5.5184183">
        <time>1970-01-01T00:00:00+00:00</time>
        <ele>1946.0</ele>
      </trkpt>
      <trkpt lat="44.8433" lon="5.5184183">
        <time>1970-01-01T00:00:00+00:00</time>
        <ele>1946.0</ele>
      </trkpt>
      <trkpt lat="44.8432583" lon="5.5185333">
        <time>1970-01-01T00:00:00+00:00</time>
        <ele>1947.0</ele>
      </trkpt>
      <trkpt lat="44.8432583" lon="5.5185333">
        <time>1970-01-01T00:00:00+00:00</time>
        <ele>1947.0</ele>
      </trkpt>
      <trkpt lat="44.8432117" lon="5.51864">
        <time>1970-01-01T00:00:00+00:00</time>
        <ele>1949.0</ele>
      </trkpt>
      <trkpt lat="44.8432117" lon="5.51864">
        <time>1970-01-01T00:00:00+00:00</time>
        <ele>1949.0</ele>
      </trkpt>
      <trkpt lat="44.8431733" lon="5.5187483">
        <time>1970-01-01T00:00:00+00:00</time>
        <ele>1949.0</ele>
      </trkpt>
      <trkpt lat="44.8431733" lon="5.5187483">
        <time>1970-01-01T00:00:00+00:00</time>
        <ele>1949.0</ele>
      </trkpt>
      <trkpt lat="44.8431367" lon="5.5188583">
        <time>1970-01-01T00:00:00+00:00</time>
        <ele>1950.0</ele>
      </trkpt>
      <trkpt lat="44.8431367" lon="5.5188583">
        <time>1970-01-01T00:00:00+00:00</time>
        <ele>1950.0</ele>
      </trkpt>
      <trkpt lat="44.84309" lon="5.5189633">
        <time>1970-01-01T00:00:00+00:00</time>
        <ele>1951.0</ele>
      </trkpt>
      <trkpt lat="44.84309" lon="5.5189633">
        <time>1970-01-01T00:00:00+00:00</time>
        <ele>1951.0</ele>
      </trkpt>
      <trkpt lat="44.8430283" lon="5.5190633">
        <time>1970-01-01T00:00:00+00:00</time>
        <ele>1951.0</ele>
      </trkpt>
      <trkpt lat="44.8430283" lon="5.5190633">
        <time>1970-01-01T00:00:00+00:00</time>
        <ele>1951.0</ele>
      </trkpt>
      <trkpt lat="44.8429683" lon="5.519165">
        <time>1970-01-01T00:00:00+00:00</time>
        <ele>1951.0</ele>
      </trkpt>
      <trkpt lat="44.8429683" lon="5.519165">
        <time>1970-01-01T00:00:00+00:00</time>
        <ele>1951.0</ele>
      </trkpt>
      <trkpt lat="44.8429183" lon="5.51925">
        <time>1970-01-01T00:00:00+00:00</time>
        <ele>1951.0</ele>
      </trkpt>
      <trkpt lat="44.8429183" lon="5.51925">
        <time>1970-01-01T00:00:00+00:00</time>
        <ele>1951.0</ele>
      </trkpt>
      <trkpt lat="44.8428617" lon="5.5193167">
        <time>1970-01-01T00:00:00+00:00</time>
        <ele>1950.0</ele>
      </trkpt>
      <trkpt lat="44.8428617" lon="5.5193167">
        <time>1970-01-01T00:00:00+00:00</time>
        <ele>1950.0</ele>
      </trkpt>
      <trkpt lat="44.8427317" lon="5.5194317">
        <time>1970-01-01T00:00:00+00:00</time>
        <ele>1947.0</ele>
      </trkpt>
      <trkpt lat="44.8427317" lon="5.5194317">
        <time>1970-01-01T00:00:00+00:00</time>
        <ele>1947.0</ele>
      </trkpt>
      <trkpt lat="44.8426433" lon="5.5195183">
        <time>1970-01-01T00:00:00+00:00</time>
        <ele>1944.0</ele>
      </trkpt>
      <trkpt lat="44.8426433" lon="5.5195183">
        <time>1970-01-01T00:00:00+00:00</time>
        <ele>1944.0</ele>
      </trkpt>
      <trkpt lat="44.84251207632985" lon="5.519691786741852">
        <time>1970-01-01T00:00:00+00:00</time>
        <ele>1938.0</ele>
      </trkpt>
      <trkpt lat="44.8424983" lon="5.51971">
        <time>1970-01-01T00:00:00+00:00</time>
        <ele>1938.0</ele>
      </trkpt>
      <trkpt lat="44.8424983" lon="5.51971">
        <time>1970-01-01T00:00:00+00:00</time>
        <ele>1938.0</ele>
      </trkpt>
      <trkpt lat="44.84237965272476" lon="5.519900651690423">
        <time>1970-01-01T00:00:00+00:00</time>
        <ele>1932.0</ele>
      </trkpt>
      <trkpt lat="44.84235" lon="5.5199483">
        <time>1970-01-01T00:00:00+00:00</time>
        <ele>1930.0</ele>
      </trkpt>
      <trkpt lat="44.84235" lon="5.5199483">
        <time>1970-01-01T00:00:00+00:00</time>
        <ele>1930.0</ele>
      </trkpt>
      <trkpt lat="44.84220164253488" lon="5.5200917196977475">
        <time>1970-01-01T00:00:00+00:00</time>
        <ele>1926.0</ele>
      </trkpt>
      <trkpt lat="44.8421517" lon="5.52014">
        <time>1970-01-01T00:00:00+00:00</time>
        <ele>1925.0</ele>
      </trkpt>
      <trkpt lat="44.8421517" lon="5.52014">
        <time>1970-01-01T00:00:00+00:00</time>
        <ele>1925.0</ele>
      </trkpt>
      <trkpt lat="44.842018570332144" lon="5.520310572386943">
        <time>1970-01-01T00:00:00+00:00</time>
        <ele>1922.0</ele>
      </trkpt>
      <trkpt lat="44.8419917" lon="5.520345">
        <time>1970-01-01T00:00:00+00:00</time>
        <ele>1922.0</ele>
      </trkpt>
      <trkpt lat="44.8419917" lon="5.520345">
        <time>1970-01-01T00:00:00+00:00</time>
        <ele>1922.0</ele>
      </trkpt>
      <trkpt lat="44.841897283839295" lon="5.520560908114412">
        <time>1970-01-01T00:00:00+00:00</time>
        <ele>1918.0</ele>
      </trkpt>
      <trkpt lat="44.84187" lon="5.5206233">
        <time>1970-01-01T00:00:00+00:00</time>
        <ele>1917.0</ele>
      </trkpt>
      <trkpt lat="44.84187" lon="5.5206233">
        <time>1970-01-01T00:00:00+00:00</time>
        <ele>1917.0</ele>
      </trkpt>
      <trkpt lat="44.8417757218062" lon="5.520839327574756">
        <time>1970-01-01T00:00:00+00:00</time>
        <ele>1914.0</ele>
      </trkpt>
      <trkpt lat="44.8417667" lon="5.52086">
        <time>1970-01-01T00:00:00+00:00</time>
        <ele>1913.0</ele>
      </trkpt>
      <trkpt lat="44.8417667" lon="5.52086">
        <time>1970-01-01T00:00:00+00:00</time>
        <ele>1913.0</ele>
      </trkpt>
      <trkpt lat="44.8416783" lon="5.52106">
        <time>1970-01-01T00:00:00+00:00</time>
        <ele>1911.0</ele>
      </trkpt>
      <trkpt lat="44.8416783" lon="5.52106">
        <time>1970-01-01T00:00:00+00:00</time>
        <ele>1911.0</ele>
      </trkpt>
      <trkpt lat="44.8416067" lon="5.5212683">
        <time>1970-01-01T00:00:00+00:00</time>
        <ele>1908.0</ele>
      </trkpt>
      <trkpt lat="44.8416067" lon="5.5212683">
        <time>1970-01-01T00:00:00+00:00</time>
        <ele>1908.0</ele>
      </trkpt>
      <trkpt lat="44.8415717" lon="5.52136">
        <time>1970-01-01T00:00:00+00:00</time>
        <ele>1907.0</ele>
      </trkpt>
      <trkpt lat="44.8415717" lon="5.52136">
        <time>1970-01-01T00:00:00+00:00</time>
        <ele>1907.0</ele>
      </trkpt>
      <trkpt lat="44.8415417" lon="5.521435">
        <time>1970-01-01T00:00:00+00:00</time>
        <ele>1907.0</ele>
      </trkpt>
      <trkpt lat="44.8415417" lon="5.521435">
        <time>1970-01-01T00:00:00+00:00</time>
        <ele>1907.0</ele>
      </trkpt>
      <trkpt lat="44.8415183" lon="5.5214983">
        <time>1970-01-01T00:00:00+00:00</time>
        <ele>1906.0</ele>
      </trkpt>
      <trkpt lat="44.8415183" lon="5.5214983">
        <time>1970-01-01T00:00:00+00:00</time>
        <ele>1906.0</ele>
      </trkpt>
      <trkpt lat="44.8414917" lon="5.5215667">
        <time>1970-01-01T00:00:00+00:00</time>
        <ele>1905.0</ele>
      </trkpt>
      <trkpt lat="44.8414917" lon="5.5215667">
        <time>1970-01-01T00:00:00+00:00</time>
        <ele>1905.0</ele>
      </trkpt>
      <trkpt lat="44.8414617" lon="5.5216383">
        <time>1970-01-01T00:00:00+00:00</time>
        <ele>1904.0</ele>
      </trkpt>
      <trkpt lat="44.8414617" lon="5.5216383">
        <time>1970-01-01T00:00:00+00:00</time>
        <ele>1904.0</ele>
      </trkpt>
      <trkpt lat="44.8414117" lon="5.52173">
        <time>1970-01-01T00:00:00+00:00</time>
        <ele>1903.0</ele>
      </trkpt>
      <trkpt lat="44.8414117" lon="5.52173">
        <time>1970-01-01T00:00:00+00:00</time>
        <ele>1903.0</ele>
      </trkpt>
      <trkpt lat="44.841335" lon="5.5218633">
        <time>1970-01-01T00:00:00+00:00</time>
        <ele>1902.0</ele>
      </trkpt>
      <trkpt lat="44.841335" lon="5.5218633">
        <time>1970-01-01T00:00:00+00:00</time>
        <ele>1902.0</ele>
      </trkpt>
      <trkpt lat="44.8412667" lon="5.5220267">
        <time>1970-01-01T00:00:00+00:00</time>
        <ele>1900.0</ele>
      </trkpt>
      <trkpt lat="44.8412667" lon="5.5220267">
        <time>1970-01-01T00:00:00+00:00</time>
        <ele>1900.0</ele>
      </trkpt>
      <trkpt lat="44.8412167" lon="5.5221183">
        <time>1970-01-01T00:00:00+00:00</time>
        <ele>1899.0</ele>
      </trkpt>
      <trkpt lat="44.8412167" lon="5.5221183">
        <time>1970-01-01T00:00:00+00:00</time>
        <ele>1899.0</ele>
      </trkpt>
      <trkpt lat="44.841175" lon="5.5221917">
        <time>1970-01-01T00:00:00+00:00</time>
        <ele>1898.0</ele>
      </trkpt>
      <trkpt lat="44.841175" lon="5.5221917">
        <time>1970-01-01T00:00:00+00:00</time>
        <ele>1898.0</ele>
      </trkpt>
      <trkpt lat="44.8411333" lon="5.5222517">
        <time>1970-01-01T00:00:00+00:00</time>
        <ele>1897.0</ele>
      </trkpt>
      <trkpt lat="44.8411333" lon="5.5222517">
        <time>1970-01-01T00:00:00+00:00</time>
        <ele>1897.0</ele>
      </trkpt>
      <trkpt lat="44.8410867" lon="5.52235">
        <time>1970-01-01T00:00:00+00:00</time>
        <ele>1897.0</ele>
      </trkpt>
      <trkpt lat="44.8410867" lon="5.52235">
        <time>1970-01-01T00:00:00+00:00</time>
        <ele>1897.0</ele>
      </trkpt>
      <trkpt lat="44.841065" lon="5.5224583">
        <time>1970-01-01T00:00:00+00:00</time>
        <ele>1896.0</ele>
      </trkpt>
      <trkpt lat="44.841065" lon="5.5224583">
        <time>1970-01-01T00:00:00+00:00</time>
        <ele>1896.0</ele>
      </trkpt>
      <trkpt lat="44.8410383" lon="5.522535">
        <time>1970-01-01T00:00:00+00:00</time>
        <ele>1895.0</ele>
      </trkpt>
      <trkpt lat="44.8410383" lon="5.522535">
        <time>1970-01-01T00:00:00+00:00</time>
        <ele>1895.0</ele>
      </trkpt>
      <trkpt lat="44.8410033" lon="5.522615">
        <time>1970-01-01T00:00:00+00:00</time>
        <ele>1895.0</ele>
      </trkpt>
      <trkpt lat="44.8410033" lon="5.522615">
        <time>1970-01-01T00:00:00+00:00</time>
        <ele>1895.0</ele>
      </trkpt>
      <trkpt lat="44.840965" lon="5.522755">
        <time>1970-01-01T00:00:00+00:00</time>
        <ele>1895.0</ele>
      </trkpt>
      <trkpt lat="44.840965" lon="5.522755">
        <time>1970-01-01T00:00:00+00:00</time>
        <ele>1895.0</ele>
      </trkpt>
      <trkpt lat="44.84095" lon="5.522835">
        <time>1970-01-01T00:00:00+00:00</time>
        <ele>1895.0</ele>
      </trkpt>
      <trkpt lat="44.84095" lon="5.522835">
        <time>1970-01-01T00:00:00+00:00</time>
        <ele>1895.0</ele>
      </trkpt>
      <trkpt lat="44.8409233" lon="5.522915">
        <time>1970-01-01T00:00:00+00:00</time>
        <ele>1895.0</ele>
      </trkpt>
      <trkpt lat="44.8409233" lon="5.522915">
        <time>1970-01-01T00:00:00+00:00</time>
        <ele>1895.0</ele>
      </trkpt>
      <trkpt lat="44.8408733" lon="5.5229933">
        <time>1970-01-01T00:00:00+00:00</time>
        <ele>1895.0</ele>
      </trkpt>
      <trkpt lat="44.8408733" lon="5.5229933">
        <time>1970-01-01T00:00:00+00:00</time>
        <ele>1895.0</ele>
      </trkpt>
      <trkpt lat="44.8408317" lon="5.5230467">
        <time>1970-01-01T00:00:00+00:00</time>
        <ele>1896.0</ele>
      </trkpt>
      <trkpt lat="44.8408317" lon="5.5230467">
        <time>1970-01-01T00:00:00+00:00</time>
        <ele>1896.0</ele>
      </trkpt>
      <trkpt lat="44.8407933" lon="5.523085">
        <time>1970-01-01T00:00:00+00:00</time>
        <ele>1896.0</ele>
      </trkpt>
      <trkpt lat="44.8407933" lon="5.523085">
        <time>1970-01-01T00:00:00+00:00</time>
        <ele>1896.0</ele>
      </trkpt>
      <trkpt lat="44.84074" lon="5.5231583">
        <time>1970-01-01T00:00:00+00:00</time>
        <ele>1896.0</ele>
      </trkpt>
      <trkpt lat="44.84074" lon="5.5231583">
        <time>1970-01-01T00:00:00+00:00</time>
        <ele>1896.0</ele>
      </trkpt>
      <trkpt lat="44.8406683" lon="5.523235">
        <time>1970-01-01T00:00:00+00:00</time>
        <ele>1896.0</ele>
      </trkpt>
      <trkpt lat="44.8406683" lon="5.523235">
        <time>1970-01-01T00:00:00+00:00</time>
        <ele>1896.0</ele>
      </trkpt>
      <trkpt lat="44.8405883" lon="5.5233">
        <time>1970-01-01T00:00:00+00:00</time>
        <ele>1896.0</ele>
      </trkpt>
      <trkpt lat="44.8405883" lon="5.5233">
        <time>1970-01-01T00:00:00+00:00</time>
        <ele>1896.0</ele>
      </trkpt>
      <trkpt lat="44.840545" lon="5.5233533">
        <time>1970-01-01T00:00:00+00:00</time>
        <ele>1897.0</ele>
      </trkpt>
      <trkpt lat="44.840545" lon="5.5233533">
        <time>1970-01-01T00:00:00+00:00</time>
        <ele>1897.0</ele>
      </trkpt>
      <trkpt lat="44.8404883" lon="5.5234233">
        <time>1970-01-01T00:00:00+00:00</time>
        <ele>1897.0</ele>
      </trkpt>
      <trkpt lat="44.8404883" lon="5.5234233">
        <time>1970-01-01T00:00:00+00:00</time>
        <ele>1897.0</ele>
      </trkpt>
      <trkpt lat="44.8404317" lon="5.5235">
        <time>1970-01-01T00:00:00+00:00</time>
        <ele>1898.0</ele>
      </trkpt>
      <trkpt lat="44.8404317" lon="5.5235">
        <time>1970-01-01T00:00:00+00:00</time>
        <ele>1898.0</ele>
      </trkpt>
      <trkpt lat="44.8403933" lon="5.5235417">
        <time>1970-01-01T00:00:00+00:00</time>
        <ele>1899.0</ele>
      </trkpt>
      <trkpt lat="44.8403933" lon="5.5235417">
        <time>1970-01-01T00:00:00+00:00</time>
        <ele>1899.0</ele>
      </trkpt>
      <trkpt lat="44.8403167" lon="5.5235933">
        <time>1970-01-01T00:00:00+00:00</time>
        <ele>1900.0</ele>
      </trkpt>
      <trkpt lat="44.8403167" lon="5.5235933">
        <time>1970-01-01T00:00:00+00:00</time>
        <ele>1900.0</ele>
      </trkpt>
      <trkpt lat="44.8402667" lon="5.52362">
        <time>1970-01-01T00:00:00+00:00</time>
        <ele>1901.0</ele>
      </trkpt>
      <trkpt lat="44.8402667" lon="5.52362">
        <time>1970-01-01T00:00:00+00:00</time>
        <ele>1901.0</ele>
      </trkpt>
      <trkpt lat="44.8402217" lon="5.52364">
        <time>1970-01-01T00:00:00+00:00</time>
        <ele>1902.0</ele>
      </trkpt>
      <trkpt lat="44.8402217" lon="5.52364">
        <time>1970-01-01T00:00:00+00:00</time>
        <ele>1902.0</ele>
      </trkpt>
      <trkpt lat="44.840145" lon="5.5236617">
        <time>1970-01-01T00:00:00+00:00</time>
        <ele>1903.0</ele>
      </trkpt>
      <trkpt lat="44.840145" lon="5.5236617">
        <time>1970-01-01T00:00:00+00:00</time>
        <ele>1903.0</ele>
      </trkpt>
      <trkpt lat="44.8400683" lon="5.5236767">
        <time>1970-01-01T00:00:00+00:00</time>
        <ele>1904.0</ele>
      </trkpt>
      <trkpt lat="44.8400683" lon="5.5236767">
        <time>1970-01-01T00:00:00+00:00</time>
        <ele>1904.0</ele>
      </trkpt>
      <trkpt lat="44.84003" lon="5.5237333">
        <time>1970-01-01T00:00:00+00:00</time>
        <ele>1906.0</ele>
      </trkpt>
      <trkpt lat="44.84003" lon="5.5237333">
        <time>1970-01-01T00:00:00+00:00</time>
        <ele>1906.0</ele>
      </trkpt>
      <trkpt lat="44.8400267" lon="5.5238283">
        <time>1970-01-01T00:00:00+00:00</time>
        <ele>1908.0</ele>
      </trkpt>
      <trkpt lat="44.8400267" lon="5.5238283">
        <time>1970-01-01T00:00:00+00:00</time>
        <ele>1908.0</ele>
      </trkpt>
      <trkpt lat="44.8400117" lon="5.5239217">
        <time>1970-01-01T00:00:00+00:00</time>
        <ele>1910.0</ele>
      </trkpt>
      <trkpt lat="44.8400117" lon="5.5239217">
        <time>1970-01-01T00:00:00+00:00</time>
        <ele>1910.0</ele>
      </trkpt>
      <trkpt lat="44.8400117" lon="5.52401">
        <time>1970-01-01T00:00:00+00:00</time>
        <ele>1911.0</ele>
      </trkpt>
      <trkpt lat="44.8400117" lon="5.52401">
        <time>1970-01-01T00:00:00+00:00</time>
        <ele>1911.0</ele>
      </trkpt>
      <trkpt lat="44.8400233" lon="5.5240833">
        <time>1970-01-01T00:00:00+00:00</time>
        <ele>1913.0</ele>
      </trkpt>
      <trkpt lat="44.8400233" lon="5.5240833">
        <time>1970-01-01T00:00:00+00:00</time>
        <ele>1913.0</ele>
      </trkpt>
      <trkpt lat="44.8400233" lon="5.5241617">
        <time>1970-01-01T00:00:00+00:00</time>
        <ele>1914.0</ele>
      </trkpt>
      <trkpt lat="44.8400233" lon="5.5241617">
        <time>1970-01-01T00:00:00+00:00</time>
        <ele>1914.0</ele>
      </trkpt>
      <trkpt lat="44.8399883" lon="5.524215">
        <time>1970-01-01T00:00:00+00:00</time>
        <ele>1916.0</ele>
      </trkpt>
      <trkpt lat="44.8399883" lon="5.524215">
        <time>1970-01-01T00:00:00+00:00</time>
        <ele>1916.0</ele>
      </trkpt>
      <trkpt lat="44.839935" lon="5.5242417">
        <time>1970-01-01T00:00:00+00:00</time>
        <ele>1917.0</ele>
      </trkpt>
      <trkpt lat="44.839935" lon="5.5242417">
        <time>1970-01-01T00:00:00+00:00</time>
        <ele>1917.0</ele>
      </trkpt>
      <trkpt lat="44.83989" lon="5.524275">
        <time>1970-01-01T00:00:00+00:00</time>
        <ele>1918.0</ele>
      </trkpt>
      <trkpt lat="44.83989" lon="5.524275">
        <time>1970-01-01T00:00:00+00:00</time>
        <ele>1918.0</ele>
      </trkpt>
      <trkpt lat="44.8398317" lon="5.5243167">
        <time>1970-01-01T00:00:00+00:00</time>
        <ele>1919.0</ele>
      </trkpt>
      <trkpt lat="44.8398317" lon="5.5243167">
        <time>1970-01-01T00:00:00+00:00</time>
        <ele>1919.0</ele>
      </trkpt>
      <trkpt lat="44.8397867" lon="5.5243533">
        <time>1970-01-01T00:00:00+00:00</time>
        <ele>1920.0</ele>
      </trkpt>
      <trkpt lat="44.8397867" lon="5.5243533">
        <time>1970-01-01T00:00:00+00:00</time>
        <ele>1920.0</ele>
      </trkpt>
      <trkpt lat="44.8397333" lon="5.52438">
        <time>1970-01-01T00:00:00+00:00</time>
        <ele>1920.0</ele>
      </trkpt>
      <trkpt lat="44.8397333" lon="5.52438">
        <time>1970-01-01T00:00:00+00:00</time>
        <ele>1920.0</ele>
      </trkpt>
      <trkpt lat="44.8396917" lon="5.5244067">
        <time>1970-01-01T00:00:00+00:00</time>
        <ele>1920.0</ele>
      </trkpt>
      <trkpt lat="44.8396917" lon="5.5244067">
        <time>1970-01-01T00:00:00+00:00</time>
        <ele>1920.0</ele>
      </trkpt>
      <trkpt lat="44.8396767" lon="5.524475">
        <time>1970-01-01T00:00:00+00:00</time>
        <ele>1920.0</ele>
      </trkpt>
      <trkpt lat="44.8396767" lon="5.524475">
        <time>1970-01-01T00:00:00+00:00</time>
        <ele>1920.0</ele>
      </trkpt>
      <trkpt lat="44.8397067" lon="5.5245533">
        <time>1970-01-01T00:00:00+00:00</time>
        <ele>1922.0</ele>
      </trkpt>
      <trkpt lat="44.8397067" lon="5.5245533">
        <time>1970-01-01T00:00:00+00:00</time>
        <ele>1922.0</ele>
      </trkpt>
      <trkpt lat="44.8397333" lon="5.5246267">
        <time>1970-01-01T00:00:00+00:00</time>
        <ele>1923.0</ele>
      </trkpt>
      <trkpt lat="44.8397333" lon="5.5246267">
        <time>1970-01-01T00:00:00+00:00</time>
        <ele>1923.0</ele>
      </trkpt>
      <trkpt lat="44.8397567" lon="5.52472">
        <time>1970-01-01T00:00:00+00:00</time>
        <ele>1924.0</ele>
      </trkpt>
      <trkpt lat="44.8397567" lon="5.52472">
        <time>1970-01-01T00:00:00+00:00</time>
        <ele>1924.0</ele>
      </trkpt>
      <trkpt lat="44.8397867" lon="5.5248383">
        <time>1970-01-01T00:00:00+00:00</time>
        <ele>1925.0</ele>
      </trkpt>
      <trkpt lat="44.8397867" lon="5.5248383">
        <time>1970-01-01T00:00:00+00:00</time>
        <ele>1925.0</ele>
      </trkpt>
      <trkpt lat="44.8397933" lon="5.5249583">
        <time>1970-01-01T00:00:00+00:00</time>
        <ele>1925.0</ele>
      </trkpt>
      <trkpt lat="44.8397933" lon="5.5249583">
        <time>1970-01-01T00:00:00+00:00</time>
        <ele>1925.0</ele>
      </trkpt>
      <trkpt lat="44.8397933" lon="5.525025">
        <time>1970-01-01T00:00:00+00:00</time>
        <ele>1925.0</ele>
      </trkpt>
      <trkpt lat="44.8397933" lon="5.525025">
        <time>1970-01-01T00:00:00+00:00</time>
        <ele>1925.0</ele>
      </trkpt>
      <trkpt lat="44.8397933" lon="5.5250933">
        <time>1970-01-01T00:00:00+00:00</time>
        <ele>1926.0</ele>
      </trkpt>
      <trkpt lat="44.8397933" lon="5.5250933">
        <time>1970-01-01T00:00:00+00:00</time>
        <ele>1926.0</ele>
      </trkpt>
      <trkpt lat="44.8397983" lon="5.5251633">
        <time>1970-01-01T00:00:00+00:00</time>
        <ele>1926.0</ele>
      </trkpt>
      <trkpt lat="44.8397983" lon="5.5251633">
        <time>1970-01-01T00:00:00+00:00</time>
        <ele>1926.0</ele>
      </trkpt>
      <trkpt lat="44.8398017" lon="5.5252317">
        <time>1970-01-01T00:00:00+00:00</time>
        <ele>1926.0</ele>
      </trkpt>
      <trkpt lat="44.8398017" lon="5.5252317">
        <time>1970-01-01T00:00:00+00:00</time>
        <ele>1926.0</ele>
      </trkpt>
      <trkpt lat="44.8398167" lon="5.5253117">
        <time>1970-01-01T00:00:00+00:00</time>
        <ele>1927.0</ele>
      </trkpt>
      <trkpt lat="44.8398167" lon="5.5253117">
        <time>1970-01-01T00:00:00+00:00</time>
        <ele>1927.0</ele>
      </trkpt>
      <trkpt lat="44.839825" lon="5.5253967">
        <time>1970-01-01T00:00:00+00:00</time>
        <ele>1928.0</ele>
      </trkpt>
      <trkpt lat="44.839825" lon="5.5253967">
        <time>1970-01-01T00:00:00+00:00</time>
        <ele>1928.0</ele>
      </trkpt>
      <trkpt lat="44.83981" lon="5.5254583">
        <time>1970-01-01T00:00:00+00:00</time>
        <ele>1928.0</ele>
      </trkpt>
      <trkpt lat="44.83981" lon="5.5254583">
        <time>1970-01-01T00:00:00+00:00</time>
        <ele>1928.0</ele>
      </trkpt>
      <trkpt lat="44.8397867" lon="5.52554">
        <time>1970-01-01T00:00:00+00:00</time>
        <ele>1929.0</ele>
      </trkpt>
      <trkpt lat="44.8397867" lon="5.52554">
        <time>1970-01-01T00:00:00+00:00</time>
        <ele>1929.0</ele>
      </trkpt>
      <trkpt lat="44.8397933" lon="5.5256383">
        <time>1970-01-01T00:00:00+00:00</time>
        <ele>1930.0</ele>
      </trkpt>
      <trkpt lat="44.8397933" lon="5.5256383">
        <time>1970-01-01T00:00:00+00:00</time>
        <ele>1930.0</ele>
      </trkpt>
      <trkpt lat="44.8397983" lon="5.5257433">
        <time>1970-01-01T00:00:00+00:00</time>
        <ele>1931.0</ele>
      </trkpt>
      <trkpt lat="44.8397983" lon="5.5257433">
        <time>1970-01-01T00:00:00+00:00</time>
        <ele>1931.0</ele>
      </trkpt>
      <trkpt lat="44.839805" lon="5.5258633">
        <time>1970-01-01T00:00:00+00:00</time>
        <ele>1932.0</ele>
      </trkpt>
      <trkpt lat="44.839805" lon="5.5258633">
        <time>1970-01-01T00:00:00+00:00</time>
        <ele>1932.0</ele>
      </trkpt>
      <trkpt lat="44.8398217" lon="5.52598">
        <time>1970-01-01T00:00:00+00:00</time>
        <ele>1933.0</ele>
      </trkpt>
      <trkpt lat="44.8398217" lon="5.52598">
        <time>1970-01-01T00:00:00+00:00</time>
        <ele>1933.0</ele>
      </trkpt>
      <trkpt lat="44.8398283" lon="5.5260967">
        <time>1970-01-01T00:00:00+00:00</time>
        <ele>1933.0</ele>
      </trkpt>
      <trkpt lat="44.8398283" lon="5.5260967">
        <time>1970-01-01T00:00:00+00:00</time>
        <ele>1933.0</ele>
      </trkpt>
      <trkpt lat="44.8398167" lon="5.526215">
        <time>1970-01-01T00:00:00+00:00</time>
        <ele>1933.0</ele>
      </trkpt>
      <trkpt lat="44.8398167" lon="5.526215">
        <time>1970-01-01T00:00:00+00:00</time>
        <ele>1933.0</ele>
      </trkpt>
      <trkpt lat="44.8397983" lon="5.5263283">
        <time>1970-01-01T00:00:00+00:00</time>
        <ele>1933.0</ele>
      </trkpt>
      <trkpt lat="44.8397983" lon="5.5263283">
        <time>1970-01-01T00:00:00+00:00</time>
        <ele>1933.0</ele>
      </trkpt>
      <trkpt lat="44.83979" lon="5.5264533">
        <time>1970-01-01T00:00:00+00:00</time>
        <ele>1934.0</ele>
      </trkpt>
      <trkpt lat="44.83979" lon="5.5264533">
        <time>1970-01-01T00:00:00+00:00</time>
        <ele>1934.0</ele>
      </trkpt>
      <trkpt lat="44.8397867" lon="5.5265233">
        <time>1970-01-01T00:00:00+00:00</time>
        <ele>1934.0</ele>
      </trkpt>
      <trkpt lat="44.8397867" lon="5.5265233">
        <time>1970-01-01T00:00:00+00:00</time>
        <ele>1934.0</ele>
      </trkpt>
      <trkpt lat="44.8397783" lon="5.5265883">
        <time>1970-01-01T00:00:00+00:00</time>
        <ele>1935.0</ele>
      </trkpt>
      <trkpt lat="44.8397783" lon="5.5265883">
        <time>1970-01-01T00:00:00+00:00</time>
        <ele>1935.0</ele>
      </trkpt>
      <trkpt lat="44.8397633" lon="5.52671">
        <time>1970-01-01T00:00:00+00:00</time>
        <ele>1937.0</ele>
      </trkpt>
      <trkpt lat="44.8397633" lon="5.52671">
        <time>1970-01-01T00:00:00+00:00</time>
        <ele>1937.0</ele>
      </trkpt>
      <trkpt lat="44.839745" lon="5.5268033">
        <time>1970-01-01T00:00:00+00:00</time>
        <ele>1938.0</ele>
      </trkpt>
      <trkpt lat="44.839745" lon="5.5268033">
        <time>1970-01-01T00:00:00+00:00</time>
        <ele>1938.0</ele>
      </trkpt>
      <trkpt lat="44.8397217" lon="5.5268867">
        <time>1970-01-01T00:00:00+00:00</time>
        <ele>1940.0</ele>
      </trkpt>
      <trkpt lat="44.8397217" lon="5.5268867">
        <time>1970-01-01T00:00:00+00:00</time>
        <ele>1940.0</ele>
      </trkpt>
      <trkpt lat="44.8396983" lon="5.52698">
        <time>1970-01-01T00:00:00+00:00</time>
        <ele>1941.0</ele>
      </trkpt>
      <trkpt lat="44.8396983" lon="5.52698">
        <time>1970-01-01T00:00:00+00:00</time>
        <ele>1941.0</ele>
      </trkpt>
      <trkpt lat="44.8396683" lon="5.52707">
        <time>1970-01-01T00:00:00+00:00</time>
        <ele>1941.0</ele>
      </trkpt>
      <trkpt lat="44.8396683" lon="5.52707">
        <time>1970-01-01T00:00:00+00:00</time>
        <ele>1941.0</ele>
      </trkpt>
      <trkpt lat="44.8396333" lon="5.5271583">
        <time>1970-01-01T00:00:00+00:00</time>
        <ele>1942.0</ele>
      </trkpt>
      <trkpt lat="44.8396333" lon="5.5271583">
        <time>1970-01-01T00:00:00+00:00</time>
        <ele>1942.0</ele>
      </trkpt>
      <trkpt lat="44.8396117" lon="5.527265">
        <time>1970-01-01T00:00:00+00:00</time>
        <ele>1943.0</ele>
      </trkpt>
      <trkpt lat="44.8396117" lon="5.527265">
        <time>1970-01-01T00:00:00+00:00</time>
        <ele>1943.0</ele>
      </trkpt>
      <trkpt lat="44.839615" lon="5.5273783">
        <time>1970-01-01T00:00:00+00:00</time>
        <ele>1944.0</ele>
      </trkpt>
      <trkpt lat="44.839615" lon="5.5273783">
        <time>1970-01-01T00:00:00+00:00</time>
        <ele>1944.0</ele>
      </trkpt>
      <trkpt lat="44.839645" lon="5.5274933">
        <time>1970-01-01T00:00:00+00:00</time>
        <ele>1944.0</ele>
      </trkpt>
      <trkpt lat="44.839645" lon="5.5274933">
        <time>1970-01-01T00:00:00+00:00</time>
        <ele>1944.0</ele>
      </trkpt>
      <trkpt lat="44.8396767" lon="5.5276083">
        <time>1970-01-01T00:00:00+00:00</time>
        <ele>1944.0</ele>
      </trkpt>
      <trkpt lat="44.8396767" lon="5.5276083">
        <time>1970-01-01T00:00:00+00:00</time>
        <ele>1944.0</ele>
      </trkpt>
      <trkpt lat="44.8397133" lon="5.52772">
        <time>1970-01-01T00:00:00+00:00</time>
        <ele>1945.0</ele>
      </trkpt>
      <trkpt lat="44.8397133" lon="5.52772">
        <time>1970-01-01T00:00:00+00:00</time>
        <ele>1945.0</ele>
      </trkpt>
      <trkpt lat="44.839745" lon="5.5278217">
        <time>1970-01-01T00:00:00+00:00</time>
        <ele>1947.0</ele>
      </trkpt>
      <trkpt lat="44.839745" lon="5.5278217">
        <time>1970-01-01T00:00:00+00:00</time>
        <ele>1947.0</ele>
      </trkpt>
      <trkpt lat="44.8397633" lon="5.5279467">
        <time>1970-01-01T00:00:00+00:00</time>
        <ele>1948.0</ele>
      </trkpt>
      <trkpt lat="44.8397633" lon="5.5279467">
        <time>1970-01-01T00:00:00+00:00</time>
        <ele>1948.0</ele>
      </trkpt>
      <trkpt lat="44.8397633" lon="5.5280617">
        <time>1970-01-01T00:00:00+00:00</time>
        <ele>1950.0</ele>
      </trkpt>
      <trkpt lat="44.8397633" lon="5.5280617">
        <time>1970-01-01T00:00:00+00:00</time>
        <ele>1950.0</ele>
      </trkpt>
      <trkpt lat="44.8397483" lon="5.5281217">
        <time>1970-01-01T00:00:00+00:00</time>
        <ele>1951.0</ele>
      </trkpt>
      <trkpt lat="44.8397483" lon="5.5281217">
        <time>1970-01-01T00:00:00+00:00</time>
        <ele>1951.0</ele>
      </trkpt>
      <trkpt lat="44.8397217" lon="5.5282133">
        <time>1970-01-01T00:00:00+00:00</time>
        <ele>1953.0</ele>
      </trkpt>
      <trkpt lat="44.8397217" lon="5.5282133">
        <time>1970-01-01T00:00:00+00:00</time>
        <ele>1953.0</ele>
      </trkpt>
      <trkpt lat="44.8396833" lon="5.5283067">
        <time>1970-01-01T00:00:00+00:00</time>
        <ele>1954.0</ele>
      </trkpt>
      <trkpt lat="44.8396833" lon="5.5283067">
        <time>1970-01-01T00:00:00+00:00</time>
        <ele>1954.0</ele>
      </trkpt>
      <trkpt lat="44.8396533" lon="5.5283883">
        <time>1970-01-01T00:00:00+00:00</time>
        <ele>1955.0</ele>
      </trkpt>
      <trkpt lat="44.8396533" lon="5.5283883">
        <time>1970-01-01T00:00:00+00:00</time>
        <ele>1955.0</ele>
      </trkpt>
      <trkpt lat="44.8396383" lon="5.5284633">
        <time>1970-01-01T00:00:00+00:00</time>
        <ele>1956.0</ele>
      </trkpt>
      <trkpt lat="44.8396383" lon="5.5284633">
        <time>1970-01-01T00:00:00+00:00</time>
        <ele>1956.0</ele>
      </trkpt>
      <trkpt lat="44.8396117" lon="5.52854">
        <time>1970-01-01T00:00:00+00:00</time>
        <ele>1958.0</ele>
      </trkpt>
      <trkpt lat="44.8396117" lon="5.52854">
        <time>1970-01-01T00:00:00+00:00</time>
        <ele>1958.0</ele>
      </trkpt>
      <trkpt lat="44.8395917" lon="5.5286167">
        <time>1970-01-01T00:00:00+00:00</time>
        <ele>1959.0</ele>
      </trkpt>
      <trkpt lat="44.8395917" lon="5.5286167">
        <time>1970-01-01T00:00:00+00:00</time>
        <ele>1959.0</ele>
      </trkpt>
      <trkpt lat="44.8395683" lon="5.52869">
        <time>1970-01-01T00:00:00+00:00</time>
        <ele>1960.0</ele>
      </trkpt>
      <trkpt lat="44.8395683" lon="5.52869">
        <time>1970-01-01T00:00:00+00:00</time>
        <ele>1960.0</ele>
      </trkpt>
      <trkpt lat="44.8395467" lon="5.5287517">
        <time>1970-01-01T00:00:00+00:00</time>
        <ele>1960.0</ele>
      </trkpt>
      <trkpt lat="44.8395467" lon="5.5287517">
        <time>1970-01-01T00:00:00+00:00</time>
        <ele>1960.0</ele>
      </trkpt>
      <trkpt lat="44.8395233" lon="5.52882">
        <time>1970-01-01T00:00:00+00:00</time>
        <ele>1961.0</ele>
      </trkpt>
      <trkpt lat="44.8395233" lon="5.52882">
        <time>1970-01-01T00:00:00+00:00</time>
        <ele>1961.0</ele>
      </trkpt>
      <trkpt lat="44.839505" lon="5.5288917">
        <time>1970-01-01T00:00:00+00:00</time>
        <ele>1961.0</ele>
      </trkpt>
      <trkpt lat="44.839505" lon="5.5288917">
        <time>1970-01-01T00:00:00+00:00</time>
        <ele>1961.0</ele>
      </trkpt>
      <trkpt lat="44.839485" lon="5.5289833">
        <time>1970-01-01T00:00:00+00:00</time>
        <ele>1962.0</ele>
      </trkpt>
      <trkpt lat="44.839485" lon="5.5289833">
        <time>1970-01-01T00:00:00+00:00</time>
        <ele>1962.0</ele>
      </trkpt>
      <trkpt lat="44.83947" lon="5.5290583">
        <time>1970-01-01T00:00:00+00:00</time>
        <ele>1960.0</ele>
      </trkpt>
      <trkpt lat="44.83947" lon="5.5290583">
        <time>1970-01-01T00:00:00+00:00</time>
        <ele>1960.0</ele>
      </trkpt>
      <trkpt lat="44.83942" lon="5.529085">
        <time>1970-01-01T00:00:00+00:00</time>
        <ele>1960.0</ele>
      </trkpt>
      <trkpt lat="44.83942" lon="5.529085">
        <time>1970-01-01T00:00:00+00:00</time>
        <ele>1960.0</ele>
      </trkpt>
      <trkpt lat="44.8393667" lon="5.529045">
        <time>1970-01-01T00:00:00+00:00</time>
        <ele>1961.0</ele>
      </trkpt>
      <trkpt lat="44.8393667" lon="5.529045">
        <time>1970-01-01T00:00:00+00:00</time>
        <ele>1961.0</ele>
      </trkpt>
      <trkpt lat="44.8393367" lon="5.52899">
        <time>1970-01-01T00:00:00+00:00</time>
        <ele>1963.0</ele>
      </trkpt>
      <trkpt lat="44.8393367" lon="5.52899">
        <time>1970-01-01T00:00:00+00:00</time>
        <ele>1963.0</ele>
      </trkpt>
      <trkpt lat="44.83931" lon="5.5289317">
        <time>1970-01-01T00:00:00+00:00</time>
        <ele>1964.0</ele>
      </trkpt>
      <trkpt lat="44.83931" lon="5.5289317">
        <time>1970-01-01T00:00:00+00:00</time>
        <ele>1964.0</ele>
      </trkpt>
      <trkpt lat="44.8392867" lon="5.52887">
        <time>1970-01-01T00:00:00+00:00</time>
        <ele>1964.0</ele>
      </trkpt>
      <trkpt lat="44.8392867" lon="5.52887">
        <time>1970-01-01T00:00:00+00:00</time>
        <ele>1964.0</ele>
      </trkpt>
      <trkpt lat="44.8392633" lon="5.5288117">
        <time>1970-01-01T00:00:00+00:00</time>
        <ele>1964.0</ele>
      </trkpt>
      <trkpt lat="44.8392633" lon="5.5288117">
        <time>1970-01-01T00:00:00+00:00</time>
        <ele>1964.0</ele>
      </trkpt>
      <trkpt lat="44.83923" lon="5.5287583">
        <time>1970-01-01T00:00:00+00:00</time>
        <ele>1965.0</ele>
      </trkpt>
      <trkpt lat="44.83923" lon="5.5287583">
        <time>1970-01-01T00:00:00+00:00</time>
        <ele>1965.0</ele>
      </trkpt>
      <trkpt lat="44.8391883" lon="5.5287217">
        <time>1970-01-01T00:00:00+00:00</time>
        <ele>1965.0</ele>
      </trkpt>
      <trkpt lat="44.8391883" lon="5.5287217">
        <time>1970-01-01T00:00:00+00:00</time>
        <ele>1965.0</ele>
      </trkpt>
      <trkpt lat="44.839145" lon="5.5287017">
        <time>1970-01-01T00:00:00+00:00</time>
        <ele>1965.0</ele>
      </trkpt>
      <trkpt lat="44.839145" lon="5.5287017">
        <time>1970-01-01T00:00:00+00:00</time>
        <ele>1965.0</ele>
      </trkpt>
      <trkpt lat="44.8390917" lon="5.52869">
        <time>1970-01-01T00:00:00+00:00</time>
        <ele>1966.0</ele>
      </trkpt>
      <trkpt lat="44.8390917" lon="5.52869">
        <time>1970-01-01T00:00:00+00:00</time>
        <ele>1966.0</ele>
      </trkpt>
      <trkpt lat="44.8390467" lon="5.5287">
        <time>1970-01-01T00:00:00+00:00</time>
        <ele>1967.0</ele>
      </trkpt>
      <trkpt lat="44.8390467" lon="5.5287">
        <time>1970-01-01T00:00:00+00:00</time>
        <ele>1967.0</ele>
      </trkpt>
      <trkpt lat="44.839005" lon="5.5287283">
        <time>1970-01-01T00:00:00+00:00</time>
        <ele>1968.0</ele>
      </trkpt>
      <trkpt lat="44.839005" lon="5.5287283">
        <time>1970-01-01T00:00:00+00:00</time>
        <ele>1968.0</ele>
      </trkpt>
      <trkpt lat="44.8389583" lon="5.5287683">
        <time>1970-01-01T00:00:00+00:00</time>
        <ele>1968.0</ele>
      </trkpt>
      <trkpt lat="44.8389583" lon="5.5287683">
        <time>1970-01-01T00:00:00+00:00</time>
        <ele>1968.0</ele>
      </trkpt>
      <trkpt lat="44.8389283" lon="5.5288167">
        <time>1970-01-01T00:00:00+00:00</time>
        <ele>1969.0</ele>
      </trkpt>
      <trkpt lat="44.8389283" lon="5.5288167">
        <time>1970-01-01T00:00:00+00:00</time>
        <ele>1969.0</ele>
      </trkpt>
      <trkpt lat="44.8389017" lon="5.528875">
        <time>1970-01-01T00:00:00+00:00</time>
        <ele>1970.0</ele>
      </trkpt>
      <trkpt lat="44.8389017" lon="5.528875">
        <time>1970-01-01T00:00:00+00:00</time>
        <ele>1970.0</ele>
      </trkpt>
      <trkpt lat="44.838875" lon="5.5289367">
        <time>1970-01-01T00:00:00+00:00</time>
        <ele>1970.0</ele>
      </trkpt>
      <trkpt lat="44.838875" lon="5.5289367">
        <time>1970-01-01T00:00:00+00:00</time>
        <ele>1970.0</ele>
      </trkpt>
      <trkpt lat="44.838845" lon="5.5290017">
        <time>1970-01-01T00:00:00+00:00</time>
        <ele>1972.0</ele>
      </trkpt>
      <trkpt lat="44.838845" lon="5.5290017">
        <time>1970-01-01T00:00:00+00:00</time>
        <ele>1972.0</ele>
      </trkpt>
      <trkpt lat="44.8388133" lon="5.52906">
        <time>1970-01-01T00:00:00+00:00</time>
        <ele>1973.0</ele>
      </trkpt>
      <trkpt lat="44.8388133" lon="5.52906">
        <time>1970-01-01T00:00:00+00:00</time>
        <ele>1973.0</ele>
      </trkpt>
      <trkpt lat="44.8387833" lon="5.5291283">
        <time>1970-01-01T00:00:00+00:00</time>
        <ele>1974.0</ele>
      </trkpt>
      <trkpt lat="44.8387833" lon="5.5291283">
        <time>1970-01-01T00:00:00+00:00</time>
        <ele>1974.0</ele>
      </trkpt>
      <trkpt lat="44.8387567" lon="5.529225">
        <time>1970-01-01T00:00:00+00:00</time>
        <ele>1976.0</ele>
      </trkpt>
      <trkpt lat="44.8387567" lon="5.529225">
        <time>1970-01-01T00:00:00+00:00</time>
        <ele>1976.0</ele>
      </trkpt>
      <trkpt lat="44.8387367" lon="5.5293233">
        <time>1970-01-01T00:00:00+00:00</time>
        <ele>1978.0</ele>
      </trkpt>
      <trkpt lat="44.8387367" lon="5.5293233">
        <time>1970-01-01T00:00:00+00:00</time>
        <ele>1978.0</ele>
      </trkpt>
      <trkpt lat="44.8387183" lon="5.529425">
        <time>1970-01-01T00:00:00+00:00</time>
        <ele>1979.0</ele>
      </trkpt>
      <trkpt lat="44.8387183" lon="5.529425">
        <time>1970-01-01T00:00:00+00:00</time>
        <ele>1979.0</ele>
      </trkpt>
      <trkpt lat="44.8386883" lon="5.5295117">
        <time>1970-01-01T00:00:00+00:00</time>
        <ele>1981.0</ele>
      </trkpt>
      <trkpt lat="44.8386883" lon="5.5295117">
        <time>1970-01-01T00:00:00+00:00</time>
        <ele>1981.0</ele>
      </trkpt>
      <trkpt lat="44.8386533" lon="5.5295933">
        <time>1970-01-01T00:00:00+00:00</time>
        <ele>1984.0</ele>
      </trkpt>
      <trkpt lat="44.8386533" lon="5.5295933">
        <time>1970-01-01T00:00:00+00:00</time>
        <ele>1984.0</ele>
      </trkpt>
      <trkpt lat="44.8386117" lon="5.5296783">
        <time>1970-01-01T00:00:00+00:00</time>
        <ele>1987.0</ele>
      </trkpt>
      <trkpt lat="44.8386117" lon="5.5296783">
        <time>1970-01-01T00:00:00+00:00</time>
        <ele>1987.0</ele>
      </trkpt>
      <trkpt lat="44.8385733" lon="5.5297617">
        <time>1970-01-01T00:00:00+00:00</time>
        <ele>1990.0</ele>
      </trkpt>
      <trkpt lat="44.8385733" lon="5.5297617">
        <time>1970-01-01T00:00:00+00:00</time>
        <ele>1990.0</ele>
      </trkpt>
      <trkpt lat="44.8385433" lon="5.529845">
        <time>1970-01-01T00:00:00+00:00</time>
        <ele>1988.0</ele>
      </trkpt>
      <trkpt lat="44.8385433" lon="5.529845">
        <time>1970-01-01T00:00:00+00:00</time>
        <ele>1988.0</ele>
      </trkpt>
      <trkpt lat="44.8385283" lon="5.529925">
        <time>1970-01-01T00:00:00+00:00</time>
        <ele>1983.0</ele>
      </trkpt>
      <trkpt lat="44.8385283" lon="5.529925">
        <time>1970-01-01T00:00:00+00:00</time>
        <ele>1983.0</ele>
      </trkpt>
      <trkpt lat="44.838555" lon="5.53">
        <time>1970-01-01T00:00:00+00:00</time>
        <ele>1978.0</ele>
      </trkpt>
      <trkpt lat="44.838555" lon="5.53">
        <time>1970-01-01T00:00:00+00:00</time>
        <ele>1978.0</ele>
      </trkpt>
      <trkpt lat="44.8385967" lon="5.5300617">
        <time>1970-01-01T00:00:00+00:00</time>
        <ele>1972.0</ele>
      </trkpt>
      <trkpt lat="44.8385967" lon="5.5300617">
        <time>1970-01-01T00:00:00+00:00</time>
        <ele>1972.0</ele>
      </trkpt>
      <trkpt lat="44.8386383" lon="5.5301317">
        <time>1970-01-01T00:00:00+00:00</time>
        <ele>1961.0</ele>
      </trkpt>
      <trkpt lat="44.8386383" lon="5.5301317">
        <time>1970-01-01T00:00:00+00:00</time>
        <ele>1961.0</ele>
      </trkpt>
      <trkpt lat="44.8386617" lon="5.53022">
        <time>1970-01-01T00:00:00+00:00</time>
        <ele>1948.0</ele>
      </trkpt>
      <trkpt lat="44.8386617" lon="5.53022">
        <time>1970-01-01T00:00:00+00:00</time>
        <ele>1948.0</ele>
      </trkpt>
      <trkpt lat="44.83865" lon="5.5302933">
        <time>1970-01-01T00:00:00+00:00</time>
        <ele>1938.0</ele>
      </trkpt>
      <trkpt lat="44.83865" lon="5.5302933">
        <time>1970-01-01T00:00:00+00:00</time>
        <ele>1938.0</ele>
      </trkpt>
      <trkpt lat="44.83863" lon="5.5302">
        <time>1970-01-01T00:00:00+00:00</time>
        <ele>1952.0</ele>
      </trkpt>
      <trkpt lat="44.83863" lon="5.5302">
        <time>1970-01-01T00:00:00+00:00</time>
        <ele>1952.0</ele>
      </trkpt>
      <trkpt lat="44.8387067" lon="5.5299783">
        <time>1970-01-01T00:00:00+00:00</time>
        <ele>1971.0</ele>
      </trkpt>
      <trkpt lat="44.8387067" lon="5.5299783">
        <time>1970-01-01T00:00:00+00:00</time>
        <ele>1971.0</ele>
      </trkpt>
      <trkpt lat="44.8387166588722" lon="5.5297250355776475">
        <time>1970-01-01T00:00:00+00:00</time>
        <ele>1979.0</ele>
      </trkpt>
      <trkpt lat="44.8387183" lon="5.5296833">
        <time>1970-01-01T00:00:00+00:00</time>
        <ele>1979.0</ele>
      </trkpt>
      <trkpt lat="44.8387183" lon="5.5296833">
        <time>1970-01-01T00:00:00+00:00</time>
        <ele>1979.0</ele>
      </trkpt>
      <trkpt lat="44.83875042757519" lon="5.52943372563333">
        <time>1970-01-01T00:00:00+00:00</time>
        <ele>1977.0</ele>
      </trkpt>
      <trkpt lat="44.8387567" lon="5.529385">
        <time>1970-01-01T00:00:00+00:00</time>
        <ele>1977.0</ele>
      </trkpt>
      <trkpt lat="44.8387567" lon="5.529385">
        <time>1970-01-01T00:00:00+00:00</time>
        <ele>1977.0</ele>
      </trkpt>
      <trkpt lat="44.838765" lon="5.5292917">
        <time>1970-01-01T00:00:00+00:00</time>
        <ele>1976.0</ele>
      </trkpt>
      <trkpt lat="44.838765" lon="5.5292917">
        <time>1970-01-01T00:00:00+00:00</time>
        <ele>1976.0</ele>
      </trkpt>
      <trkpt lat="44.8387867" lon="5.5292083">
        <time>1970-01-01T00:00:00+00:00</time>
        <ele>1974.0</ele>
      </trkpt>
      <trkpt lat="44.8387867" lon="5.5292083">
        <time>1970-01-01T00:00:00+00:00</time>
        <ele>1974.0</ele>
      </trkpt>
      <trkpt lat="44.83884" lon="5.5290633">
        <time>1970-01-01T00:00:00+00:00</time>
        <ele>1972.0</ele>
      </trkpt>
      <trkpt lat="44.83884" lon="5.5290633">
        <time>1970-01-01T00:00:00+00:00</time>
        <ele>1972.0</ele>
      </trkpt>
      <trkpt lat="44.838855" lon="5.52883">
        <time>1970-01-01T00:00:00+00:00</time>
        <ele>1970.0</ele>
      </trkpt>
      <trkpt lat="44.838855" lon="5.52883">
        <time>1970-01-01T00:00:00+00:00</time>
        <ele>1970.0</ele>
      </trkpt>
      <trkpt lat="44.83892847171547" lon="5.5285984730948075">
        <time>1970-01-01T00:00:00+00:00</time>
        <ele>1968.0</ele>
      </trkpt>
      <trkpt lat="44.8389317" lon="5.5285883">
        <time>1970-01-01T00:00:00+00:00</time>
        <ele>1968.0</ele>
      </trkpt>
      <trkpt lat="44.8389317" lon="5.5285883">
        <time>1970-01-01T00:00:00+00:00</time>
        <ele>1968.0</ele>
      </trkpt>
      <trkpt lat="44.8389817" lon="5.52859">
        <time>1970-01-01T00:00:00+00:00</time>
        <ele>1967.0</ele>
      </trkpt>
      <trkpt lat="44.8389817" lon="5.52859">
        <time>1970-01-01T00:00:00+00:00</time>
        <ele>1967.0</ele>
      </trkpt>
      <trkpt lat="44.839160030162695" lon="5.528623059270238">
        <time>1970-01-01T00:00:00+00:00</time>
        <ele>1965.0</ele>
      </trkpt>
      <trkpt lat="44.8391883" lon="5.5286283">
        <time>1970-01-01T00:00:00+00:00</time>
        <ele>1965.0</ele>
      </trkpt>
      <trkpt lat="44.8391883" lon="5.5286283">
        <time>1970-01-01T00:00:00+00:00</time>
        <ele>1965.0</ele>
      </trkpt>
      <trkpt lat="44.839349577311474" lon="5.528516001925592">
        <time>1970-01-01T00:00:00+00:00</time>
        <ele>1962.0</ele>
      </trkpt>
      <trkpt lat="44.839375" lon="5.5284983">
        <time>1970-01-01T00:00:00+00:00</time>
        <ele>1961.0</ele>
      </trkpt>
      <trkpt lat="44.839375" lon="5.5284983">
        <time>1970-01-01T00:00:00+00:00</time>
        <ele>1961.0</ele>
      </trkpt>
      <trkpt lat="44.83953869403157" lon="5.528393185917531">
        <time>1970-01-01T00:00:00+00:00</time>
        <ele>1957.0</ele>
      </trkpt>
      <trkpt lat="44.8396033" lon="5.5283517">
        <time>1970-01-01T00:00:00+00:00</time>
        <ele>1956.0</ele>
      </trkpt>
      <trkpt lat="44.8396033" lon="5.5283517">
        <time>1970-01-01T00:00:00+00:00</time>
        <ele>1956.0</ele>
      </trkpt>
      <trkpt lat="44.83976465500805" lon="5.5282396232842475">
        <time>1970-01-01T00:00:00+00:00</time>
        <ele>1953.0</ele>
      </trkpt>
      <trkpt lat="44.8398217" lon="5.5282">
        <time>1970-01-01T00:00:00+00:00</time>
        <ele>1952.0</ele>
      </trkpt>
      <trkpt lat="44.8398217" lon="5.5282">
        <time>1970-01-01T00:00:00+00:00</time>
        <ele>1952.0</ele>
      </trkpt>
      <trkpt lat="44.8398967" lon="5.5280183">
        <time>1970-01-01T00:00:00+00:00</time>
        <ele>1950.0</ele>
      </trkpt>
      <trkpt lat="44.8398967" lon="5.5280183">
        <time>1970-01-01T00:00:00+00:00</time>
        <ele>1950.0</ele>
      </trkpt>
      <trkpt lat="44.8399317" lon="5.5278817">
        <time>1970-01-01T00:00:00+00:00</time>
        <ele>1949.0</ele>
      </trkpt>
      <trkpt lat="44.8399317" lon="5.5278817">
        <time>1970-01-01T00:00:00+00:00</time>
        <ele>1949.0</ele>
      </trkpt>
      <trkpt lat="44.8400233" lon="5.5277767">
        <time>1970-01-01T00:00:00+00:00</time>
        <ele>1949.0</ele>
      </trkpt>
      <trkpt lat="44.8400233" lon="5.5277767">
        <time>1970-01-01T00:00:00+00:00</time>
        <ele>1949.0</ele>
      </trkpt>
      <trkpt lat="44.8401267" lon="5.5277217">
        <time>1970-01-01T00:00:00+00:00</time>
        <ele>1949.0</ele>
      </trkpt>
      <trkpt lat="44.8401267" lon="5.5277217">
        <time>1970-01-01T00:00:00+00:00</time>
        <ele>1949.0</ele>
      </trkpt>
      <trkpt lat="44.8401683" lon="5.5276633">
        <time>1970-01-01T00:00:00+00:00</time>
        <ele>1949.0</ele>
      </trkpt>
      <trkpt lat="44.8401683" lon="5.5276633">
        <time>1970-01-01T00:00:00+00:00</time>
        <ele>1949.0</ele>
      </trkpt>
      <trkpt lat="44.8402867" lon="5.5275683">
        <time>1970-01-01T00:00:00+00:00</time>
        <ele>1947.0</ele>
      </trkpt>
      <trkpt lat="44.8402867" lon="5.5275683">
        <time>1970-01-01T00:00:00+00:00</time>
        <ele>1947.0</ele>
      </trkpt>
      <trkpt lat="44.84044424583984" lon="5.527445917363345">
        <time>1970-01-01T00:00:00+00:00</time>
        <ele>1944.0</ele>
      </trkpt>
      <trkpt lat="44.8404583" lon="5.527435">
        <time>1970-01-01T00:00:00+00:00</time>
        <ele>1944.0</ele>
      </trkpt>
      <trkpt lat="44.8404583" lon="5.527435">
        <time>1970-01-01T00:00:00+00:00</time>
        <ele>1944.0</ele>
      </trkpt>
      <trkpt lat="44.84056467435796" lon="5.527230455502858">
        <time>1970-01-01T00:00:00+00:00</time>
        <ele>1939.0</ele>
      </trkpt>
      <trkpt lat="44.84061" lon="5.5271433">
        <time>1970-01-01T00:00:00+00:00</time>
        <ele>1938.0</ele>
      </trkpt>
      <trkpt lat="44.84061" lon="5.5271433">
        <time>1970-01-01T00:00:00+00:00</time>
        <ele>1938.0</ele>
      </trkpt>
      <trkpt lat="44.84048652455587" lon="5.526958853233109">
        <time>1970-01-01T00:00:00+00:00</time>
        <ele>1937.0</ele>
      </trkpt>
      <trkpt lat="44.840465" lon="5.5269267">
        <time>1970-01-01T00:00:00+00:00</time>
        <ele>1937.0</ele>
      </trkpt>
      <trkpt lat="44.840465" lon="5.5269267">
        <time>1970-01-01T00:00:00+00:00</time>
        <ele>1937.0</ele>
      </trkpt>
      <trkpt lat="44.84037971625689" lon="5.526703366490892">
        <time>1970-01-01T00:00:00+00:00</time>
        <ele>1935.0</ele>
      </trkpt>
      <trkpt lat="44.8403517" lon="5.52663">
        <time>1970-01-01T00:00:00+00:00</time>
        <ele>1934.0</ele>
      </trkpt>
      <trkpt lat="44.8403517" lon="5.52663">
        <time>1970-01-01T00:00:00+00:00</time>
        <ele>1934.0</ele>
      </trkpt>
      <trkpt lat="44.84034427435117" lon="5.526376555533331">
        <time>1970-01-01T00:00:00+00:00</time>
        <ele>1931.0</ele>
      </trkpt>
      <trkpt lat="44.8403433" lon="5.5263433">
        <time>1970-01-01T00:00:00+00:00</time>
        <ele>1930.0</ele>
      </trkpt>
      <trkpt lat="44.8403433" lon="5.5263433">
        <time>1970-01-01T00:00:00+00:00</time>
        <ele>1930.0</ele>
      </trkpt>
      <trkpt lat="44.840436782339744" lon="5.526126590939683">
        <time>1970-01-01T00:00:00+00:00</time>
        <ele>1923.0</ele>
      </trkpt>
      <trkpt lat="44.8404533" lon="5.5260883">
        <time>1970-01-01T00:00:00+00:00</time>
        <ele>1922.0</ele>
      </trkpt>
      <trkpt lat="44.8404533" lon="5.5260883">
        <time>1970-01-01T00:00:00+00:00</time>
        <ele>1922.0</ele>
      </trkpt>
      <trkpt lat="44.84063240020928" lon="5.526111656834804">
        <time>1970-01-01T00:00:00+00:00</time>
        <ele>1914.0</ele>
      </trkpt>
      <trkpt lat="44.840645" lon="5.5261133">
        <time>1970-01-01T00:00:00+00:00</time>
        <ele>1914.0</ele>
      </trkpt>
      <trkpt lat="44.840645" lon="5.5261133">
        <time>1970-01-01T00:00:00+00:00</time>
        <ele>1914.0</ele>
      </trkpt>
      <trkpt lat="44.84076" lon="5.5260033">
        <time>1970-01-01T00:00:00+00:00</time>
        <ele>1905.0</ele>
      </trkpt>
      <trkpt lat="44.84076" lon="5.5260033">
        <time>1970-01-01T00:00:00+00:00</time>
        <ele>1905.0</ele>
      </trkpt>
      <trkpt lat="44.84092822120591" lon="5.526093082060751">
        <time>1970-01-01T00:00:00+00:00</time>
        <ele>1897.0</ele>
      </trkpt>
      <trkpt lat="44.840935" lon="5.5260967">
        <time>1970-01-01T00:00:00+00:00</time>
        <ele>1897.0</ele>
      </trkpt>
      <trkpt lat="44.840935" lon="5.5260967">
        <time>1970-01-01T00:00:00+00:00</time>
        <ele>1897.0</ele>
      </trkpt>
      <trkpt lat="44.841045" lon="5.5261617">
        <time>1970-01-01T00:00:00+00:00</time>
        <ele>1891.0</ele>
      </trkpt>
      <trkpt lat="44.841045" lon="5.5261617">
        <time>1970-01-01T00:00:00+00:00</time>
        <ele>1891.0</ele>
      </trkpt>
      <trkpt lat="44.84119" lon="5.5263">
        <time>1970-01-01T00:00:00+00:00</time>
        <ele>1881.0</ele>
      </trkpt>
      <trkpt lat="44.84119" lon="5.5263">
        <time>1970-01-01T00:00:00+00:00</time>
        <ele>1881.0</ele>
      </trkpt>
      <trkpt lat="44.8412317" lon="5.5264">
        <time>1970-01-01T00:00:00+00:00</time>
        <ele>1880.0</ele>
      </trkpt>
      <trkpt lat="44.8412317" lon="5.5264">
        <time>1970-01-01T00:00:00+00:00</time>
        <ele>1880.0</ele>
      </trkpt>
      <trkpt lat="44.8413083" lon="5.52629">
        <time>1970-01-01T00:00:00+00:00</time>
        <ele>1871.0</ele>
      </trkpt>
      <trkpt lat="44.8413083" lon="5.52629">
        <time>1970-01-01T00:00:00+00:00</time>
        <ele>1871.0</ele>
      </trkpt>
      <trkpt lat="44.84137" lon="5.526125">
        <time>1970-01-01T00:00:00+00:00</time>
        <ele>1866.0</ele>
      </trkpt>
      <trkpt lat="44.84137" lon="5.526125">
        <time>1970-01-01T00:00:00+00:00</time>
        <ele>1866.0</ele>
      </trkpt>
      <trkpt lat="44.84142" lon="5.5262067">
        <time>1970-01-01T00:00:00+00:00</time>
        <ele>1862.0</ele>
      </trkpt>
      <trkpt lat="44.84142" lon="5.5262067">
        <time>1970-01-01T00:00:00+00:00</time>
        <ele>1862.0</ele>
      </trkpt>
      <trkpt lat="44.8414567" lon="5.5264317">
        <time>1970-01-01T00:00:00+00:00</time>
        <ele>1859.0</ele>
      </trkpt>
      <trkpt lat="44.8414567" lon="5.5264317">
        <time>1970-01-01T00:00:00+00:00</time>
        <ele>1859.0</ele>
      </trkpt>
      <trkpt lat="44.841625" lon="5.52652">
        <time>1970-01-01T00:00:00+00:00</time>
        <ele>1844.0</ele>
      </trkpt>
      <trkpt lat="44.841625" lon="5.52652">
        <time>1970-01-01T00:00:00+00:00</time>
        <ele>1844.0</ele>
      </trkpt>
      <trkpt lat="44.84172733541367" lon="5.526728606804792">
        <time>1970-01-01T00:00:00+00:00</time>
        <ele>1841.0</ele>
      </trkpt>
      <trkpt lat="44.841755" lon="5.526785">
        <time>1970-01-01T00:00:00+00:00</time>
        <ele>1840.0</ele>
      </trkpt>
      <trkpt lat="44.841755" lon="5.526785">
        <time>1970-01-01T00:00:00+00:00</time>
        <ele>1840.0</ele>
      </trkpt>
      <trkpt lat="44.84183681654949" lon="5.527010904038192">
        <time>1970-01-01T00:00:00+00:00</time>
        <ele>1837.0</ele>
      </trkpt>
      <trkpt lat="44.8418383" lon="5.527015">
        <time>1970-01-01T00:00:00+00:00</time>
        <ele>1837.0</ele>
      </trkpt>
      <trkpt lat="44.8418383" lon="5.527015">
        <time>1970-01-01T00:00:00+00:00</time>
        <ele>1837.0</ele>
      </trkpt>
      <trkpt lat="44.841988153731" lon="5.527155290633941">
        <time>1970-01-01T00:00:00+00:00</time>
        <ele>1830.0</ele>
      </trkpt>
      <trkpt lat="44.841995" lon="5.5271617">
        <time>1970-01-01T00:00:00+00:00</time>
        <ele>1830.0</ele>
      </trkpt>
      <trkpt lat="44.841995" lon="5.5271617">
        <time>1970-01-01T00:00:00+00:00</time>
        <ele>1830.0</ele>
      </trkpt>
      <trkpt lat="44.84213785681701" lon="5.52731582738181">
        <time>1970-01-01T00:00:00+00:00</time>
        <ele>1820.0</ele>
      </trkpt>
      <trkpt lat="44.8421433" lon="5.5273217">
        <time>1970-01-01T00:00:00+00:00</time>
        <ele>1820.0</ele>
      </trkpt>
      <trkpt lat="44.8421433" lon="5.5273217">
        <time>1970-01-01T00:00:00+00:00</time>
        <ele>1820.0</ele>
      </trkpt>
      <trkpt lat="44.84225000164185" lon="5.527525911081448">
        <time>1970-01-01T00:00:00+00:00</time>
        <ele>1813.0</ele>
      </trkpt>
      <trkpt lat="44.8422617" lon="5.5275483">
        <time>1970-01-01T00:00:00+00:00</time>
        <ele>1812.0</ele>
      </trkpt>
      <trkpt lat="44.8422617" lon="5.5275483">
        <time>1970-01-01T00:00:00+00:00</time>
        <ele>1812.0</ele>
      </trkpt>
      <trkpt lat="44.84239204729266" lon="5.527723095220044">
        <time>1970-01-01T00:00:00+00:00</time>
        <ele>1803.0</ele>
      </trkpt>
      <trkpt lat="44.8424183" lon="5.5277583">
        <time>1970-01-01T00:00:00+00:00</time>
        <ele>1801.0</ele>
      </trkpt>
      <trkpt lat="44.8424183" lon="5.5277583">
        <time>1970-01-01T00:00:00+00:00</time>
        <ele>1801.0</ele>
      </trkpt>
      <trkpt lat="44.84240948466201" lon="5.528011664972942">
        <time>1970-01-01T00:00:00+00:00</time>
        <ele>1799.0</ele>
      </trkpt>
      <trkpt lat="44.8424067" lon="5.5280917">
        <time>1970-01-01T00:00:00+00:00</time>
        <ele>1798.0</ele>
      </trkpt>
      <trkpt lat="44.8424067" lon="5.5280917">
        <time>1970-01-01T00:00:00+00:00</time>
        <ele>1798.0</ele>
      </trkpt>
      <trkpt lat="44.84241288886099" lon="5.52834521960677">
        <time>1970-01-01T00:00:00+00:00</time>
        <ele>1794.0</ele>
      </trkpt>
      <trkpt lat="44.842415" lon="5.5284317">
        <time>1970-01-01T00:00:00+00:00</time>
        <ele>1793.0</ele>
      </trkpt>
      <trkpt lat="44.842415" lon="5.5284317">
        <time>1970-01-01T00:00:00+00:00</time>
        <ele>1793.0</ele>
      </trkpt>
      <trkpt lat="44.842551303976165" lon="5.528597211971063">
        <time>1970-01-01T00:00:00+00:00</time>
        <ele>1783.0</ele>
      </trkpt>
      <trkpt lat="44.842625" lon="5.5286867">
        <time>1970-01-01T00:00:00+00:00</time>
        <ele>1780.0</ele>
      </trkpt>
      <trkpt lat="44.842625" lon="5.5286867">
        <time>1970-01-01T00:00:00+00:00</time>
        <ele>1780.0</ele>
      </trkpt>
      <trkpt lat="44.84277092138012" lon="5.52883500878991">
        <time>1970-01-01T00:00:00+00:00</time>
        <ele>1772.0</ele>
      </trkpt>
      <trkpt lat="44.8428267" lon="5.5288917">
        <time>1970-01-01T00:00:00+00:00</time>
        <ele>1770.0</ele>
      </trkpt>
      <trkpt lat="44.8428267" lon="5.5288917">
        <time>1970-01-01T00:00:00+00:00</time>
        <ele>1770.0</ele>
      </trkpt>
      <trkpt lat="44.842765205156404" lon="5.529130084687472">
        <time>1970-01-01T00:00:00+00:00</time>
        <ele>1762.0</ele>
      </trkpt>
      <trkpt lat="44.8427433" lon="5.529215">
        <time>1970-01-01T00:00:00+00:00</time>
        <ele>1760.0</ele>
      </trkpt>
      <trkpt lat="44.8427433" lon="5.529215">
        <time>1970-01-01T00:00:00+00:00</time>
        <ele>1760.0</ele>
      </trkpt>
      <trkpt lat="44.84271636956177" lon="5.529465811679273">
        <time>1970-01-01T00:00:00+00:00</time>
        <ele>1755.0</ele>
      </trkpt>
      <trkpt lat="44.842705" lon="5.5295717">
        <time>1970-01-01T00:00:00+00:00</time>
        <ele>1754.0</ele>
      </trkpt>
      <trkpt lat="44.842705" lon="5.5295717">
        <time>1970-01-01T00:00:00+00:00</time>
        <ele>1754.0</ele>
      </trkpt>
      <trkpt lat="44.8427767" lon="5.5298017">
        <time>1970-01-01T00:00:00+00:00</time>
        <ele>1745.0</ele>
      </trkpt>
      <trkpt lat="44.8427767" lon="5.5298017">
        <time>1970-01-01T00:00:00+00:00</time>
        <ele>1745.0</ele>
      </trkpt>
      <trkpt lat="44.8428748226027" lon="5.530014298972519">
        <time>1970-01-01T00:00:00+00:00</time>
        <ele>1735.0</ele>
      </trkpt>
      <trkpt lat="44.8429267" lon="5.5301267">
        <time>1970-01-01T00:00:00+00:00</time>
        <ele>1730.0</ele>
      </trkpt>
      <trkpt lat="44.8429267" lon="5.5301267">
        <time>1970-01-01T00:00:00+00:00</time>
        <ele>1730.0</ele>
      </trkpt>
      <trkpt lat="44.84297070650996" lon="5.530372662539522">
        <time>1970-01-01T00:00:00+00:00</time>
        <ele>1723.0</ele>
      </trkpt>
      <trkpt lat="44.8429917" lon="5.53049">
        <time>1970-01-01T00:00:00+00:00</time>
        <ele>1720.0</ele>
      </trkpt>
      <trkpt lat="44.8429917" lon="5.53049">
        <time>1970-01-01T00:00:00+00:00</time>
        <ele>1720.0</ele>
      </trkpt>
      <trkpt lat="44.842996670592015" lon="5.5307435755048">
        <time>1970-01-01T00:00:00+00:00</time>
        <ele>1713.0</ele>
      </trkpt>
      <trkpt lat="44.8429983" lon="5.5308267">
        <time>1970-01-01T00:00:00+00:00</time>
        <ele>1712.0</ele>
      </trkpt>
      <trkpt lat="44.8429983" lon="5.5308267">
        <time>1970-01-01T00:00:00+00:00</time>
        <ele>1712.0</ele>
      </trkpt>
      <trkpt lat="44.8430067" lon="5.5310333">
        <time>1970-01-01T00:00:00+00:00</time>
        <ele>1708.0</ele>
      </trkpt>
      <trkpt lat="44.8430067" lon="5.5310333">
        <time>1970-01-01T00:00:00+00:00</time>
        <ele>1708.0</ele>
      </trkpt>
      <trkpt lat="44.84296" lon="5.5310467">
        <time>1970-01-01T00:00:00+00:00</time>
        <ele>1709.0</ele>
      </trkpt>
      <trkpt lat="44.84296" lon="5.5310467">
        <time>1970-01-01T00:00:00+00:00</time>
        <ele>1709.0</ele>
      </trkpt>
      <trkpt lat="44.8430133" lon="5.5310533">
        <time>1970-01-01T00:00:00+00:00</time>
        <ele>1707.0</ele>
      </trkpt>
      <trkpt lat="44.8430133" lon="5.5310533">
        <time>1970-01-01T00:00:00+00:00</time>
        <ele>1707.0</ele>
      </trkpt>
      <trkpt lat="44.8430067" lon="5.5311833">
        <time>1970-01-01T00:00:00+00:00</time>
        <ele>1705.0</ele>
      </trkpt>
      <trkpt lat="44.8430067" lon="5.5311833">
        <time>1970-01-01T00:00:00+00:00</time>
        <ele>1705.0</ele>
      </trkpt>
      <trkpt lat="44.84304" lon="5.5312333">
        <time>1970-01-01T00:00:00+00:00</time>
        <ele>1703.0</ele>
      </trkpt>
      <trkpt lat="44.84304" lon="5.5312333">
        <time>1970-01-01T00:00:00+00:00</time>
        <ele>1703.0</ele>
      </trkpt>
      <trkpt lat="44.8431283" lon="5.5314117">
        <time>1970-01-01T00:00:00+00:00</time>
        <ele>1695.0</ele>
      </trkpt>
      <trkpt lat="44.8431283" lon="5.5314117">
        <time>1970-01-01T00:00:00+00:00</time>
        <ele>1695.0</ele>
      </trkpt>
      <trkpt lat="44.843242382287855" lon="5.531607818051546">
        <time>1970-01-01T00:00:00+00:00</time>
        <ele>1686.0</ele>
      </trkpt>
      <trkpt lat="44.843265" lon="5.5316467">
        <time>1970-01-01T00:00:00+00:00</time>
        <ele>1684.0</ele>
      </trkpt>
      <trkpt lat="44.843265" lon="5.5316467">
        <time>1970-01-01T00:00:00+00:00</time>
        <ele>1684.0</ele>
      </trkpt>
      <trkpt lat="44.84334838192617" lon="5.5318714686705395">
        <time>1970-01-01T00:00:00+00:00</time>
        <ele>1675.0</ele>
      </trkpt>
      <trkpt lat="44.84338" lon="5.5319567">
        <time>1970-01-01T00:00:00+00:00</time>
        <ele>1672.0</ele>
      </trkpt>
      <trkpt lat="44.84338" lon="5.5319567">
        <time>1970-01-01T00:00:00+00:00</time>
        <ele>1672.0</ele>
      </trkpt>
      <trkpt lat="44.84340378545963" lon="5.53220814628748">
        <time>1970-01-01T00:00:00+00:00</time>
        <ele>1663.0</ele>
      </trkpt>
      <trkpt lat="44.843415" lon="5.5323267">
        <time>1970-01-01T00:00:00+00:00</time>
        <ele>1660.0</ele>
      </trkpt>
      <trkpt lat="44.843415" lon="5.5323267">
        <time>1970-01-01T00:00:00+00:00</time>
        <ele>1660.0</ele>
      </trkpt>
      <trkpt lat="44.843532046046974" lon="5.532519313901057">
        <time>1970-01-01T00:00:00+00:00</time>
        <ele>1654.0</ele>
      </trkpt>
      <trkpt lat="44.843575" lon="5.53259">
        <time>1970-01-01T00:00:00+00:00</time>
        <ele>1652.0</ele>
      </trkpt>
      <trkpt lat="44.843575" lon="5.53259">
        <time>1970-01-01T00:00:00+00:00</time>
        <ele>1652.0</ele>
      </trkpt>
      <trkpt lat="44.84353837718878" lon="5.532838360691953">
        <time>1970-01-01T00:00:00+00:00</time>
        <ele>1646.0</ele>
      </trkpt>
      <trkpt lat="44.8435283" lon="5.5329067">
        <time>1970-01-01T00:00:00+00:00</time>
        <ele>1645.0</ele>
      </trkpt>
      <trkpt lat="44.8435283" lon="5.5329067">
        <time>1970-01-01T00:00:00+00:00</time>
        <ele>1645.0</ele>
      </trkpt>
      <trkpt lat="44.84345783970744" lon="5.533140099719116">
        <time>1970-01-01T00:00:00+00:00</time>
        <ele>1639.0</ele>
      </trkpt>
      <trkpt lat="44.8434483" lon="5.5331717">
        <time>1970-01-01T00:00:00+00:00</time>
        <ele>1638.0</ele>
      </trkpt>
      <trkpt lat="44.8434483" lon="5.5331717">
        <time>1970-01-01T00:00:00+00:00</time>
        <ele>1638.0</ele>
      </trkpt>
      <trkpt lat="44.8434033" lon="5.5334033">
        <time>1970-01-01T00:00:00+00:00</time>
        <ele>1632.0</ele>
      </trkpt>
      <trkpt lat="44.8434033" lon="5.5334033">
        <time>1970-01-01T00:00:00+00:00</time>
        <ele>1632.0</ele>
      </trkpt>
      <trkpt lat="44.84349383666395" lon="5.533622494028524">
        <time>1970-01-01T00:00:00+00:00</time>
        <ele>1625.0</ele>
      </trkpt>
      <trkpt lat="44.8434983" lon="5.5336333">
        <time>1970-01-01T00:00:00+00:00</time>
        <ele>1625.0</ele>
      </trkpt>
      <trkpt lat="44.8434983" lon="5.5336333">
        <time>1970-01-01T00:00:00+00:00</time>
        <ele>1625.0</ele>
      </trkpt>
      <trkpt lat="44.84343" lon="5.5337217">
        <time>1970-01-01T00:00:00+00:00</time>
        <ele>1622.0</ele>
      </trkpt>
      <trkpt lat="44.84343" lon="5.5337217">
        <time>1970-01-01T00:00:00+00:00</time>
        <ele>1622.0</ele>
      </trkpt>
      <trkpt lat="44.843475" lon="5.5337533">
        <time>1970-01-01T00:00:00+00:00</time>
        <ele>1621.0</ele>
      </trkpt>
      <trkpt lat="44.843475" lon="5.5337533">
        <time>1970-01-01T00:00:00+00:00</time>
        <ele>1621.0</ele>
      </trkpt>
      <trkpt lat="44.843445" lon="5.5338683">
        <time>1970-01-01T00:00:00+00:00</time>
        <ele>1618.0</ele>
      </trkpt>
      <trkpt lat="44.843445" lon="5.5338683">
        <time>1970-01-01T00:00:00+00:00</time>
        <ele>1618.0</ele>
      </trkpt>
      <trkpt lat="44.8434333" lon="5.534005">
        <time>1970-01-01T00:00:00+00:00</time>
        <ele>1614.0</ele>
      </trkpt>
      <trkpt lat="44.8434333" lon="5.534005">
        <time>1970-01-01T00:00:00+00:00</time>
        <ele>1614.0</ele>
      </trkpt>
      <trkpt lat="44.8434833" lon="5.53397">
        <time>1970-01-01T00:00:00+00:00</time>
        <ele>1615.0</ele>
      </trkpt>
      <trkpt lat="44.8434833" lon="5.53397">
        <time>1970-01-01T00:00:00+00:00</time>
        <ele>1615.0</ele>
      </trkpt>
      <trkpt lat="44.8435217" lon="5.534095">
        <time>1970-01-01T00:00:00+00:00</time>
        <ele>1611.0</ele>
      </trkpt>
      <trkpt lat="44.8435217" lon="5.534095">
        <time>1970-01-01T00:00:00+00:00</time>
        <ele>1611.0</ele>
      </trkpt>
      <trkpt lat="44.8435783" lon="5.53425">
        <time>1970-01-01T00:00:00+00:00</time>
        <ele>1606.0</ele>
      </trkpt>
      <trkpt lat="44.8435783" lon="5.53425">
        <time>1970-01-01T00:00:00+00:00</time>
        <ele>1606.0</ele>
      </trkpt>
      <trkpt lat="44.8436133" lon="5.534405">
        <time>1970-01-01T00:00:00+00:00</time>
        <ele>1602.0</ele>
      </trkpt>
      <trkpt lat="44.8436133" lon="5.534405">
        <time>1970-01-01T00:00:00+00:00</time>
        <ele>1602.0</ele>
      </trkpt>
      <trkpt lat="44.8435867" lon="5.5345267">
        <time>1970-01-01T00:00:00+00:00</time>
        <ele>1598.0</ele>
      </trkpt>
      <trkpt lat="44.8435867" lon="5.5345267">
        <time>1970-01-01T00:00:00+00:00</time>
        <ele>1598.0</ele>
      </trkpt>
      <trkpt lat="44.8435483" lon="5.5346683">
        <time>1970-01-01T00:00:00+00:00</time>
        <ele>1593.0</ele>
      </trkpt>
      <trkpt lat="44.8435483" lon="5.5346683">
        <time>1970-01-01T00:00:00+00:00</time>
        <ele>1593.0</ele>
      </trkpt>
      <trkpt lat="44.8436083" lon="5.5348033">
        <time>1970-01-01T00:00:00+00:00</time>
        <ele>1589.0</ele>
      </trkpt>
      <trkpt lat="44.8436083" lon="5.5348033">
        <time>1970-01-01T00:00:00+00:00</time>
        <ele>1589.0</ele>
      </trkpt>
      <trkpt lat="44.8436083" lon="5.53502">
        <time>1970-01-01T00:00:00+00:00</time>
        <ele>1582.0</ele>
      </trkpt>
      <trkpt lat="44.8436083" lon="5.53502">
        <time>1970-01-01T00:00:00+00:00</time>
        <ele>1582.0</ele>
      </trkpt>
      <trkpt lat="44.843685" lon="5.535215">
        <time>1970-01-01T00:00:00+00:00</time>
        <ele>1575.0</ele>
      </trkpt>
      <trkpt lat="44.843685" lon="5.535215">
        <time>1970-01-01T00:00:00+00:00</time>
        <ele>1575.0</ele>
      </trkpt>
      <trkpt lat="44.8436583" lon="5.5353883">
        <time>1970-01-01T00:00:00+00:00</time>
        <ele>1569.0</ele>
      </trkpt>
      <trkpt lat="44.8436583" lon="5.5353883">
        <time>1970-01-01T00:00:00+00:00</time>
        <ele>1569.0</ele>
      </trkpt>
      <trkpt lat="44.8436933" lon="5.5355867">
        <time>1970-01-01T00:00:00+00:00</time>
        <ele>1564.0</ele>
      </trkpt>
      <trkpt lat="44.8436933" lon="5.5355867">
        <time>1970-01-01T00:00:00+00:00</time>
        <ele>1564.0</ele>
      </trkpt>
      <trkpt lat="44.84382676177936" lon="5.535756760395196">
        <time>1970-01-01T00:00:00+00:00</time>
        <ele>1560.0</ele>
      </trkpt>
      <trkpt lat="44.843845" lon="5.53578">
        <time>1970-01-01T00:00:00+00:00</time>
        <ele>1560.0</ele>
      </trkpt>
      <trkpt lat="44.843845" lon="5.53578">
        <time>1970-01-01T00:00:00+00:00</time>
        <ele>1560.0</ele>
      </trkpt>
      <trkpt lat="44.843795" lon="5.5360033">
        <time>1970-01-01T00:00:00+00:00</time>
        <ele>1551.0</ele>
      </trkpt>
      <trkpt lat="44.843795" lon="5.5360033">
        <time>1970-01-01T00:00:00+00:00</time>
        <ele>1551.0</ele>
      </trkpt>
      <trkpt lat="44.8437883" lon="5.536145">
        <time>1970-01-01T00:00:00+00:00</time>
        <ele>1545.0</ele>
      </trkpt>
      <trkpt lat="44.8437883" lon="5.536145">
        <time>1970-01-01T00:00:00+00:00</time>
        <ele>1545.0</ele>
      </trkpt>
      <trkpt lat="44.843845" lon="5.5361967">
        <time>1970-01-01T00:00:00+00:00</time>
        <ele>1544.0</ele>
      </trkpt>
      <trkpt lat="44.843845" lon="5.5361967">
        <time>1970-01-01T00:00:00+00:00</time>
        <ele>1544.0</ele>
      </trkpt>
      <trkpt lat="44.8438183" lon="5.5363183">
        <time>1970-01-01T00:00:00+00:00</time>
        <ele>1539.0</ele>
      </trkpt>
      <trkpt lat="44.8438183" lon="5.5363183">
        <time>1970-01-01T00:00:00+00:00</time>
        <ele>1539.0</ele>
      </trkpt>
      <trkpt lat="44.8437117" lon="5.5364417">
        <time>1970-01-01T00:00:00+00:00</time>
        <ele>1533.0</ele>
      </trkpt>
      <trkpt lat="44.8437117" lon="5.5364417">
        <time>1970-01-01T00:00:00+00:00</time>
        <ele>1533.0</ele>
      </trkpt>
      <trkpt lat="44.843635" lon="5.5364067">
        <time>1970-01-01T00:00:00+00:00</time>
        <ele>1533.0</ele>
      </trkpt>
      <trkpt lat="44.843635" lon="5.5364067">
        <time>1970-01-01T00:00:00+00:00</time>
        <ele>1533.0</ele>
      </trkpt>
      <trkpt lat="44.84356" lon="5.53639">
        <time>1970-01-01T00:00:00+00:00</time>
        <ele>1533.0</ele>
      </trkpt>
      <trkpt lat="44.84356" lon="5.53639">
        <time>1970-01-01T00:00:00+00:00</time>
        <ele>1533.0</ele>
      </trkpt>
      <trkpt lat="44.8434567" lon="5.536425">
        <time>1970-01-01T00:00:00+00:00</time>
        <ele>1532.0</ele>
      </trkpt>
      <trkpt lat="44.8434567" lon="5.536425">
        <time>1970-01-01T00:00:00+00:00</time>
        <ele>1532.0</ele>
      </trkpt>
      <trkpt lat="44.8433833" lon="5.53654">
        <time>1970-01-01T00:00:00+00:00</time>
        <ele>1529.0</ele>
      </trkpt>
      <trkpt lat="44.8433833" lon="5.53654">
        <time>1970-01-01T00:00:00+00:00</time>
        <ele>1529.0</ele>
      </trkpt>
      <trkpt lat="44.8433533" lon="5.5366133">
        <time>1970-01-01T00:00:00+00:00</time>
        <ele>1527.0</ele>
      </trkpt>
      <trkpt lat="44.8433533" lon="5.5366133">
        <time>1970-01-01T00:00:00+00:00</time>
        <ele>1527.0</ele>
      </trkpt>
      <trkpt lat="44.8433033" lon="5.53667">
        <time>1970-01-01T00:00:00+00:00</time>
        <ele>1527.0</ele>
      </trkpt>
      <trkpt lat="44.8433033" lon="5.53667">
        <time>1970-01-01T00:00:00+00:00</time>
        <ele>1527.0</ele>
      </trkpt>
      <trkpt lat="44.84328" lon="5.5368383">
        <time>1970-01-01T00:00:00+00:00</time>
        <ele>1524.0</ele>
      </trkpt>
      <trkpt lat="44.84328" lon="5.5368383">
        <time>1970-01-01T00:00:00+00:00</time>
        <ele>1524.0</ele>
      </trkpt>
      <trkpt lat="44.84322" lon="5.5368633">
        <time>1970-01-01T00:00:00+00:00</time>
        <ele>1528.0</ele>
      </trkpt>
      <trkpt lat="44.84322" lon="5.5368633">
        <time>1970-01-01T00:00:00+00:00</time>
        <ele>1528.0</ele>
      </trkpt>
      <trkpt lat="44.8431733" lon="5.536895">
        <time>1970-01-01T00:00:00+00:00</time>
        <ele>1530.0</ele>
      </trkpt>
      <trkpt lat="44.8431733" lon="5.536895">
        <time>1970-01-01T00:00:00+00:00</time>
        <ele>1530.0</ele>
      </trkpt>
      <trkpt lat="44.8431433" lon="5.5369483">
        <time>1970-01-01T00:00:00+00:00</time>
        <ele>1531.0</ele>
      </trkpt>
      <trkpt lat="44.8431433" lon="5.5369483">
        <time>1970-01-01T00:00:00+00:00</time>
        <ele>1531.0</ele>
      </trkpt>
      <trkpt lat="44.84322" lon="5.5369867">
        <time>1970-01-01T00:00:00+00:00</time>
        <ele>1525.0</ele>
      </trkpt>
      <trkpt lat="44.84322" lon="5.5369867">
        <time>1970-01-01T00:00:00+00:00</time>
        <ele>1525.0</ele>
      </trkpt>
      <trkpt lat="44.8433267" lon="5.537135">
        <time>1970-01-01T00:00:00+00:00</time>
        <ele>1514.0</ele>
      </trkpt>
      <trkpt lat="44.8433267" lon="5.537135">
        <time>1970-01-01T00:00:00+00:00</time>
        <ele>1514.0</ele>
      </trkpt>
      <trkpt lat="44.8434033" lon="5.5373233">
        <time>1970-01-01T00:00:00+00:00</time>
        <ele>1508.0</ele>
      </trkpt>
      <trkpt lat="44.8434033" lon="5.5373233">
        <time>1970-01-01T00:00:00+00:00</time>
        <ele>1508.0</ele>
      </trkpt>
      <trkpt lat="44.8434217" lon="5.537515">
        <time>1970-01-01T00:00:00+00:00</time>
        <ele>1503.0</ele>
      </trkpt>
      <trkpt lat="44.8434217" lon="5.537515">
        <time>1970-01-01T00:00:00+00:00</time>
        <ele>1503.0</ele>
      </trkpt>
      <trkpt lat="44.843445" lon="5.5377617">
        <time>1970-01-01T00:00:00+00:00</time>
        <ele>1498.0</ele>
      </trkpt>
      <trkpt lat="44.843445" lon="5.5377617">
        <time>1970-01-01T00:00:00+00:00</time>
        <ele>1498.0</ele>
      </trkpt>
      <trkpt lat="44.8434833" lon="5.5379467">
        <time>1970-01-01T00:00:00+00:00</time>
        <ele>1493.0</ele>
      </trkpt>
      <trkpt lat="44.8434833" lon="5.5379467">
        <time>1970-01-01T00:00:00+00:00</time>
        <ele>1493.0</ele>
      </trkpt>
      <trkpt lat="44.843475" lon="5.53817">
        <time>1970-01-01T00:00:00+00:00</time>
        <ele>1489.0</ele>
      </trkpt>
      <trkpt lat="44.843475" lon="5.53817">
        <time>1970-01-01T00:00:00+00:00</time>
        <ele>1489.0</ele>
      </trkpt>
      <trkpt lat="44.8435258888434" lon="5.538413309705085">
        <time>1970-01-01T00:00:00+00:00</time>
        <ele>1483.0</ele>
      </trkpt>
      <trkpt lat="44.8435367" lon="5.538465">
        <time>1970-01-01T00:00:00+00:00</time>
        <ele>1481.0</ele>
      </trkpt>
      <trkpt lat="44.8435367" lon="5.538465">
        <time>1970-01-01T00:00:00+00:00</time>
        <ele>1481.0</ele>
      </trkpt>
      <trkpt lat="44.84358368148195" lon="5.538709868147976">
        <time>1970-01-01T00:00:00+00:00</time>
        <ele>1475.0</ele>
      </trkpt>
      <trkpt lat="44.8435933" lon="5.53876">
        <time>1970-01-01T00:00:00+00:00</time>
        <ele>1474.0</ele>
      </trkpt>
      <trkpt lat="44.8435933" lon="5.53876">
        <time>1970-01-01T00:00:00+00:00</time>
        <ele>1474.0</ele>
      </trkpt>
      <trkpt lat="44.843658384354505" lon="5.5389964849774875">
        <time>1970-01-01T00:00:00+00:00</time>
        <ele>1470.0</ele>
      </trkpt>
      <trkpt lat="44.8436667" lon="5.5390267">
        <time>1970-01-01T00:00:00+00:00</time>
        <ele>1469.0</ele>
      </trkpt>
      <trkpt lat="44.8436667" lon="5.5390267">
        <time>1970-01-01T00:00:00+00:00</time>
        <ele>1469.0</ele>
      </trkpt>
      <trkpt lat="44.8436017" lon="5.5390733">
        <time>1970-01-01T00:00:00+00:00</time>
        <ele>1469.0</ele>
      </trkpt>
      <trkpt lat="44.8436017" lon="5.5390733">
        <time>1970-01-01T00:00:00+00:00</time>
        <ele>1469.0</ele>
      </trkpt>
      <trkpt lat="44.843495" lon="5.539185">
        <time>1970-01-01T00:00:00+00:00</time>
        <ele>1469.0</ele>
      </trkpt>
      <trkpt lat="44.843495" lon="5.539185">
        <time>1970-01-01T00:00:00+00:00</time>
        <ele>1469.0</ele>
      </trkpt>
      <trkpt lat="44.843475" lon="5.53934">
        <time>1970-01-01T00:00:00+00:00</time>
        <ele>1469.0</ele>
      </trkpt>
      <trkpt lat="44.843475" lon="5.53934">
        <time>1970-01-01T00:00:00+00:00</time>
        <ele>1469.0</ele>
      </trkpt>
      <trkpt lat="44.8435483" lon="5.539495">
        <time>1970-01-01T00:00:00+00:00</time>
        <ele>1466.0</ele>
      </trkpt>
      <trkpt lat="44.8435483" lon="5.539495">
        <time>1970-01-01T00:00:00+00:00</time>
        <ele>1466.0</ele>
      </trkpt>
      <trkpt lat="44.8435067" lon="5.5395317">
        <time>1970-01-01T00:00:00+00:00</time>
        <ele>1467.0</ele>
      </trkpt>
      <trkpt lat="44.8435067" lon="5.5395317">
        <time>1970-01-01T00:00:00+00:00</time>
        <ele>1467.0</ele>
      </trkpt>
      <trkpt lat="44.8435933" lon="5.5395833">
        <time>1970-01-01T00:00:00+00:00</time>
        <ele>1465.0</ele>
      </trkpt>
      <trkpt lat="44.8435933" lon="5.5395833">
        <time>1970-01-01T00:00:00+00:00</time>
        <ele>1465.0</ele>
      </trkpt>
      <trkpt lat="44.8436467" lon="5.539625">
        <time>1970-01-01T00:00:00+00:00</time>
        <ele>1463.0</ele>
      </trkpt>
      <trkpt lat="44.8436467" lon="5.539625">
        <time>1970-01-01T00:00:00+00:00</time>
        <ele>1463.0</ele>
      </trkpt>
      <trkpt lat="44.8437233" lon="5.5397867">
        <time>1970-01-01T00:00:00+00:00</time>
        <ele>1460.0</ele>
      </trkpt>
      <trkpt lat="44.8437233" lon="5.5397867">
        <time>1970-01-01T00:00:00+00:00</time>
        <ele>1460.0</ele>
      </trkpt>
      <trkpt lat="44.8438033" lon="5.539975">
        <time>1970-01-01T00:00:00+00:00</time>
        <ele>1459.0</ele>
      </trkpt>
      <trkpt lat="44.8438033" lon="5.539975">
        <time>1970-01-01T00:00:00+00:00</time>
        <ele>1459.0</ele>
      </trkpt>
      <trkpt lat="44.8438717" lon="5.5401967">
        <time>1970-01-01T00:00:00+00:00</time>
        <ele>1457.0</ele>
      </trkpt>
      <trkpt lat="44.8438717" lon="5.5401967">
        <time>1970-01-01T00:00:00+00:00</time>
        <ele>1457.0</ele>
      </trkpt>
      <trkpt lat="44.84394" lon="5.54039">
        <time>1970-01-01T00:00:00+00:00</time>
        <ele>1455.0</ele>
      </trkpt>
      <trkpt lat="44.84394" lon="5.54039">
        <time>1970-01-01T00:00:00+00:00</time>
        <ele>1455.0</ele>
      </trkpt>
      <trkpt lat="44.84400608142304" lon="5.5406259357539795">
        <time>1970-01-01T00:00:00+00:00</time>
        <ele>1452.0</ele>
      </trkpt>
      <trkpt lat="44.8440217" lon="5.5406817">
        <time>1970-01-01T00:00:00+00:00</time>
        <ele>1452.0</ele>
      </trkpt>
      <trkpt lat="44.8440217" lon="5.5406817">
        <time>1970-01-01T00:00:00+00:00</time>
        <ele>1452.0</ele>
      </trkpt>
      <trkpt lat="44.8440433" lon="5.54086">
        <time>1970-01-01T00:00:00+00:00</time>
        <ele>1450.0</ele>
      </trkpt>
      <trkpt lat="44.8440433" lon="5.54086">
        <time>1970-01-01T00:00:00+00:00</time>
        <ele>1450.0</ele>
      </trkpt>
      <trkpt lat="44.8440367" lon="5.541">
        <time>1970-01-01T00:00:00+00:00</time>
        <ele>1451.0</ele>
      </trkpt>
      <trkpt lat="44.8440367" lon="5.541">
        <time>1970-01-01T00:00:00+00:00</time>
        <ele>1451.0</ele>
      </trkpt>
      <trkpt lat="44.8440367" lon="5.5410917">
        <time>1970-01-01T00:00:00+00:00</time>
        <ele>1451.0</ele>
      </trkpt>
      <trkpt lat="44.8440367" lon="5.5410917">
        <time>1970-01-01T00:00:00+00:00</time>
        <ele>1451.0</ele>
      </trkpt>
      <trkpt lat="44.8440483" lon="5.5412017">
        <time>1970-01-01T00:00:00+00:00</time>
        <ele>1452.0</ele>
      </trkpt>
      <trkpt lat="44.8440483" lon="5.5412017">
        <time>1970-01-01T00:00:00+00:00</time>
        <ele>1452.0</ele>
      </trkpt>
      <trkpt lat="44.8440517" lon="5.5413333">
        <time>1970-01-01T00:00:00+00:00</time>
        <ele>1453.0</ele>
      </trkpt>
      <trkpt lat="44.8440517" lon="5.5413333">
        <time>1970-01-01T00:00:00+00:00</time>
        <ele>1453.0</ele>
      </trkpt>
      <trkpt lat="44.8441283" lon="5.5414333">
        <time>1970-01-01T00:00:00+00:00</time>
        <ele>1451.0</ele>
      </trkpt>
      <trkpt lat="44.8441283" lon="5.5414333">
        <time>1970-01-01T00:00:00+00:00</time>
        <ele>1451.0</ele>
      </trkpt>
      <trkpt lat="44.8441883" lon="5.5414883">
        <time>1970-01-01T00:00:00+00:00</time>
        <ele>1450.0</ele>
      </trkpt>
      <trkpt lat="44.8441883" lon="5.5414883">
        <time>1970-01-01T00:00:00+00:00</time>
        <ele>1450.0</ele>
      </trkpt>
      <trkpt lat="44.8441967" lon="5.5415783">
        <time>1970-01-01T00:00:00+00:00</time>
        <ele>1452.0</ele>
      </trkpt>
      <trkpt lat="44.8441967" lon="5.5415783">
        <time>1970-01-01T00:00:00+00:00</time>
        <ele>1452.0</ele>
      </trkpt>
      <trkpt lat="44.84425" lon="5.5416567">
        <time>1970-01-01T00:00:00+00:00</time>
        <ele>1452.0</ele>
      </trkpt>
      <trkpt lat="44.84425" lon="5.5416567">
        <time>1970-01-01T00:00:00+00:00</time>
        <ele>1452.0</ele>
      </trkpt>
      <trkpt lat="44.8443" lon="5.5416733">
        <time>1970-01-01T00:00:00+00:00</time>
        <ele>1450.0</ele>
      </trkpt>
      <trkpt lat="44.8443" lon="5.5416733">
        <time>1970-01-01T00:00:00+00:00</time>
        <ele>1450.0</ele>
      </trkpt>
      <trkpt lat="44.8442383" lon="5.5417017">
        <time>1970-01-01T00:00:00+00:00</time>
        <ele>1454.0</ele>
      </trkpt>
      <trkpt lat="44.8442383" lon="5.5417017">
        <time>1970-01-01T00:00:00+00:00</time>
        <ele>1454.0</ele>
      </trkpt>
      <trkpt lat="44.8443983" lon="5.541645">
        <time>1970-01-01T00:00:00+00:00</time>
        <ele>1446.0</ele>
      </trkpt>
      <trkpt lat="44.8443983" lon="5.541645">
        <time>1970-01-01T00:00:00+00:00</time>
        <ele>1446.0</ele>
      </trkpt>
      <trkpt lat="44.844578157811284" lon="5.541642841706264">
        <time>1970-01-01T00:00:00+00:00</time>
        <ele>1440.0</ele>
      </trkpt>
      <trkpt lat="44.8446733" lon="5.5416417">
        <time>1970-01-01T00:00:00+00:00</time>
        <ele>1437.0</ele>
      </trkpt>
      <trkpt lat="44.8446733" lon="5.5416417">
        <time>1970-01-01T00:00:00+00:00</time>
        <ele>1437.0</ele>
      </trkpt>
      <trkpt lat="44.8448403021357" lon="5.541735906332961">
        <time>1970-01-01T00:00:00+00:00</time>
        <ele>1431.0</ele>
      </trkpt>
      <trkpt lat="44.8448683" lon="5.5417517">
        <time>1970-01-01T00:00:00+00:00</time>
        <ele>1430.0</ele>
      </trkpt>
      <trkpt lat="44.8448683" lon="5.5417517">
        <time>1970-01-01T00:00:00+00:00</time>
        <ele>1430.0</ele>
      </trkpt>
      <trkpt lat="44.8449433" lon="5.5418617">
        <time>1970-01-01T00:00:00+00:00</time>
        <ele>1428.0</ele>
      </trkpt>
      <trkpt lat="44.8449433" lon="5.5418617">
        <time>1970-01-01T00:00:00+00:00</time>
        <ele>1428.0</ele>
      </trkpt>
      <trkpt lat="44.8449817" lon="5.5419333">
        <time>1970-01-01T00:00:00+00:00</time>
        <ele>1427.0</ele>
      </trkpt>
      <trkpt lat="44.8449817" lon="5.5419333">
        <time>1970-01-01T00:00:00+00:00</time>
        <ele>1427.0</ele>
      </trkpt>
      <trkpt lat="44.8450133" lon="5.5420117">
        <time>1970-01-01T00:00:00+00:00</time>
        <ele>1428.0</ele>
      </trkpt>
      <trkpt lat="44.8450133" lon="5.5420117">
        <time>1970-01-01T00:00:00+00:00</time>
        <ele>1428.0</ele>
      </trkpt>
      <trkpt lat="44.8450467" lon="5.5421133">
        <time>1970-01-01T00:00:00+00:00</time>
        <ele>1430.0</ele>
      </trkpt>
      <trkpt lat="44.8450467" lon="5.5421133">
        <time>1970-01-01T00:00:00+00:00</time>
        <ele>1430.0</ele>
      </trkpt>
      <trkpt lat="44.8450617" lon="5.5421767">
        <time>1970-01-01T00:00:00+00:00</time>
        <ele>1432.0</ele>
      </trkpt>
      <trkpt lat="44.8450617" lon="5.5421767">
        <time>1970-01-01T00:00:00+00:00</time>
        <ele>1432.0</ele>
      </trkpt>
      <trkpt lat="44.845105" lon="5.5422083">
        <time>1970-01-01T00:00:00+00:00</time>
        <ele>1430.0</ele>
      </trkpt>
      <trkpt lat="44.845105" lon="5.5422083">
        <time>1970-01-01T00:00:00+00:00</time>
        <ele>1430.0</ele>
      </trkpt>
      <trkpt lat="44.8452067" lon="5.5422367">
        <time>1970-01-01T00:00:00+00:00</time>
        <ele>1424.0</ele>
      </trkpt>
      <trkpt lat="44.8452067" lon="5.5422367">
        <time>1970-01-01T00:00:00+00:00</time>
        <ele>1424.0</ele>
      </trkpt>
      <trkpt lat="44.8452567" lon="5.5423233">
        <time>1970-01-01T00:00:00+00:00</time>
        <ele>1424.0</ele>
      </trkpt>
      <trkpt lat="44.8452567" lon="5.5423233">
        <time>1970-01-01T00:00:00+00:00</time>
        <ele>1424.0</ele>
      </trkpt>
      <trkpt lat="44.8453067" lon="5.5424317">
        <time>1970-01-01T00:00:00+00:00</time>
        <ele>1426.0</ele>
      </trkpt>
      <trkpt lat="44.8453067" lon="5.5424317">
        <time>1970-01-01T00:00:00+00:00</time>
        <ele>1426.0</ele>
      </trkpt>
      <trkpt lat="44.8454517" lon="5.542565">
        <time>1970-01-01T00:00:00+00:00</time>
        <ele>1421.0</ele>
      </trkpt>
      <trkpt lat="44.8454517" lon="5.542565">
        <time>1970-01-01T00:00:00+00:00</time>
        <ele>1421.0</ele>
      </trkpt>
      <trkpt lat="44.8456267" lon="5.5426233">
        <time>1970-01-01T00:00:00+00:00</time>
        <ele>1412.0</ele>
      </trkpt>
      <trkpt lat="44.8456267" lon="5.5426233">
        <time>1970-01-01T00:00:00+00:00</time>
        <ele>1412.0</ele>
      </trkpt>
      <trkpt lat="44.8457483" lon="5.5426883">
        <time>1970-01-01T00:00:00+00:00</time>
        <ele>1409.0</ele>
      </trkpt>
      <trkpt lat="44.8457483" lon="5.5426883">
        <time>1970-01-01T00:00:00+00:00</time>
        <ele>1409.0</ele>
      </trkpt>
      <trkpt lat="44.8458667" lon="5.5427533">
        <time>1970-01-01T00:00:00+00:00</time>
        <ele>1406.0</ele>
      </trkpt>
      <trkpt lat="44.8458667" lon="5.5427533">
        <time>1970-01-01T00:00:00+00:00</time>
        <ele>1406.0</ele>
      </trkpt>
      <trkpt lat="44.8460267" lon="5.5427983">
        <time>1970-01-01T00:00:00+00:00</time>
        <ele>1399.0</ele>
      </trkpt>
      <trkpt lat="44.8460267" lon="5.5427983">
        <time>1970-01-01T00:00:00+00:00</time>
        <ele>1399.0</ele>
      </trkpt>
      <trkpt lat="44.8461233" lon="5.54284">
        <time>1970-01-01T00:00:00+00:00</time>
        <ele>1396.0</ele>
      </trkpt>
      <trkpt lat="44.8461233" lon="5.54284">
        <time>1970-01-01T00:00:00+00:00</time>
        <ele>1396.0</ele>
      </trkpt>
      <trkpt lat="44.8461767" lon="5.54286">
        <time>1970-01-01T00:00:00+00:00</time>
        <ele>1394.0</ele>
      </trkpt>
      <trkpt lat="44.8461767" lon="5.54286">
        <time>1970-01-01T00:00:00+00:00</time>
        <ele>1394.0</ele>
      </trkpt>
      <trkpt lat="44.8461883" lon="5.54276">
        <time>1970-01-01T00:00:00+00:00</time>
        <ele>1388.0</ele>
      </trkpt>
      <trkpt lat="44.8461883" lon="5.54276">
        <time>1970-01-01T00:00:00+00:00</time>
        <ele>1388.0</ele>
      </trkpt>
      <trkpt lat="44.846215" lon="5.5426967">
        <time>1970-01-01T00:00:00+00:00</time>
        <ele>1384.0</ele>
      </trkpt>
      <trkpt lat="44.846215" lon="5.5426967">
        <time>1970-01-01T00:00:00+00:00</time>
        <ele>1384.0</ele>
      </trkpt>
      <trkpt lat="44.8462517" lon="5.542605">
        <time>1970-01-01T00:00:00+00:00</time>
        <ele>1379.0</ele>
      </trkpt>
      <trkpt lat="44.8462517" lon="5.542605">
        <time>1970-01-01T00:00:00+00:00</time>
        <ele>1379.0</ele>
      </trkpt>
      <trkpt lat="44.8463283" lon="5.5425983">
        <time>1970-01-01T00:00:00+00:00</time>
        <ele>1375.0</ele>
      </trkpt>
      <trkpt lat="44.8463283" lon="5.5425983">
        <time>1970-01-01T00:00:00+00:00</time>
        <ele>1375.0</ele>
      </trkpt>
      <trkpt lat="44.8464467" lon="5.5425817">
        <time>1970-01-01T00:00:00+00:00</time>
        <ele>1369.0</ele>
      </trkpt>
      <trkpt lat="44.8464467" lon="5.5425817">
        <time>1970-01-01T00:00:00+00:00</time>
        <ele>1369.0</ele>
      </trkpt>
      <trkpt lat="44.8466067" lon="5.5424917">
        <time>1970-01-01T00:00:00+00:00</time>
        <ele>1359.0</ele>
      </trkpt>
      <trkpt lat="44.8466067" lon="5.5424917">
        <time>1970-01-01T00:00:00+00:00</time>
        <ele>1359.0</ele>
      </trkpt>
      <trkpt lat="44.84676550827953" lon="5.542372593790358">
        <time>1970-01-01T00:00:00+00:00</time>
        <ele>1350.0</ele>
      </trkpt>
      <trkpt lat="44.8467667" lon="5.5423717">
        <time>1970-01-01T00:00:00+00:00</time>
        <ele>1350.0</ele>
      </trkpt>
      <trkpt lat="44.8467667" lon="5.5423717">
        <time>1970-01-01T00:00:00+00:00</time>
        <ele>1350.0</ele>
      </trkpt>
      <trkpt lat="44.8469383" lon="5.5423">
        <time>1970-01-01T00:00:00+00:00</time>
        <ele>1344.0</ele>
      </trkpt>
      <trkpt lat="44.8469383" lon="5.5423">
        <time>1970-01-01T00:00:00+00:00</time>
        <ele>1344.0</ele>
      </trkpt>
      <trkpt lat="44.847" lon="5.5423">
        <time>1970-01-01T00:00:00+00:00</time>
        <ele>1343.0</ele>
      </trkpt>
      <trkpt lat="44.847" lon="5.5423">
        <time>1970-01-01T00:00:00+00:00</time>
        <ele>1343.0</ele>
      </trkpt>
      <trkpt lat="44.8470083" lon="5.5422217">
        <time>1970-01-01T00:00:00+00:00</time>
        <ele>1340.0</ele>
      </trkpt>
      <trkpt lat="44.8470083" lon="5.5422217">
        <time>1970-01-01T00:00:00+00:00</time>
        <ele>1340.0</ele>
      </trkpt>
      <trkpt lat="44.8470233" lon="5.542145">
        <time>1970-01-01T00:00:00+00:00</time>
        <ele>1338.0</ele>
      </trkpt>
      <trkpt lat="44.8470233" lon="5.542145">
        <time>1970-01-01T00:00:00+00:00</time>
        <ele>1338.0</ele>
      </trkpt>
      <trkpt lat="44.84720225153266" lon="5.54211947415134">
        <time>1970-01-01T00:00:00+00:00</time>
        <ele>1333.0</ele>
      </trkpt>
      <trkpt lat="44.8472217" lon="5.5421167">
        <time>1970-01-01T00:00:00+00:00</time>
        <ele>1333.0</ele>
      </trkpt>
      <trkpt lat="44.8472217" lon="5.5421167">
        <time>1970-01-01T00:00:00+00:00</time>
        <ele>1333.0</ele>
      </trkpt>
      <trkpt lat="44.84739393500279" lon="5.542189803198509">
        <time>1970-01-01T00:00:00+00:00</time>
        <ele>1331.0</ele>
      </trkpt>
      <trkpt lat="44.8474533" lon="5.542215">
        <time>1970-01-01T00:00:00+00:00</time>
        <ele>1330.0</ele>
      </trkpt>
      <trkpt lat="44.8474533" lon="5.542215">
        <time>1970-01-01T00:00:00+00:00</time>
        <ele>1330.0</ele>
      </trkpt>
      <trkpt lat="44.847626629316984" lon="5.542282762879103">
        <time>1970-01-01T00:00:00+00:00</time>
        <ele>1328.0</ele>
      </trkpt>
      <trkpt lat="44.8476367" lon="5.5422867">
        <time>1970-01-01T00:00:00+00:00</time>
        <ele>1328.0</ele>
      </trkpt>
      <trkpt lat="44.8476367" lon="5.5422867">
        <time>1970-01-01T00:00:00+00:00</time>
        <ele>1328.0</ele>
      </trkpt>
      <trkpt lat="44.847725" lon="5.542335">
        <time>1970-01-01T00:00:00+00:00</time>
        <ele>1327.0</ele>
      </trkpt>
      <trkpt lat="44.847725" lon="5.542335">
        <time>1970-01-01T00:00:00+00:00</time>
        <ele>1327.0</ele>
      </trkpt>
      <trkpt lat="44.84782" lon="5.5424167">
        <time>1970-01-01T00:00:00+00:00</time>
        <ele>1326.0</ele>
      </trkpt>
      <trkpt lat="44.84782" lon="5.5424167">
        <time>1970-01-01T00:00:00+00:00</time>
        <ele>1326.0</ele>
      </trkpt>
      <trkpt lat="44.8479117" lon="5.5425517">
        <time>1970-01-01T00:00:00+00:00</time>
        <ele>1326.0</ele>
      </trkpt>
      <trkpt lat="44.8479117" lon="5.5425517">
        <time>1970-01-01T00:00:00+00:00</time>
        <ele>1326.0</ele>
      </trkpt>
      <trkpt lat="44.848015" lon="5.5427133">
        <time>1970-01-01T00:00:00+00:00</time>
        <ele>1325.0</ele>
      </trkpt>
      <trkpt lat="44.848015" lon="5.5427133">
        <time>1970-01-01T00:00:00+00:00</time>
        <ele>1325.0</ele>
      </trkpt>
      <trkpt lat="44.84813422281644" lon="5.542903254876293">
        <time>1970-01-01T00:00:00+00:00</time>
        <ele>1324.0</ele>
      </trkpt>
      <trkpt lat="44.8481667" lon="5.542955">
        <time>1970-01-01T00:00:00+00:00</time>
        <ele>1323.0</ele>
      </trkpt>
      <trkpt lat="44.8481667" lon="5.542955">
        <time>1970-01-01T00:00:00+00:00</time>
        <ele>1323.0</ele>
      </trkpt>
      <trkpt lat="44.84830183318046" lon="5.543122427355292">
        <time>1970-01-01T00:00:00+00:00</time>
        <ele>1320.0</ele>
      </trkpt>
      <trkpt lat="44.848355" lon="5.5431883">
        <time>1970-01-01T00:00:00+00:00</time>
        <ele>1319.0</ele>
      </trkpt>
      <trkpt lat="44.848355" lon="5.5431883">
        <time>1970-01-01T00:00:00+00:00</time>
        <ele>1319.0</ele>
      </trkpt>
      <trkpt lat="44.848501386374764" lon="5.543335709214212">
        <time>1970-01-01T00:00:00+00:00</time>
        <ele>1316.0</ele>
      </trkpt>
      <trkpt lat="44.8485983" lon="5.5434333">
        <time>1970-01-01T00:00:00+00:00</time>
        <ele>1315.0</ele>
      </trkpt>
      <trkpt lat="44.8485983" lon="5.5434333">
        <time>1970-01-01T00:00:00+00:00</time>
        <ele>1315.0</ele>
      </trkpt>
      <trkpt lat="44.84875322687695" lon="5.543562179626189">
        <time>1970-01-01T00:00:00+00:00</time>
        <ele>1312.0</ele>
      </trkpt>
      <trkpt lat="44.8488267" lon="5.5436233">
        <time>1970-01-01T00:00:00+00:00</time>
        <ele>1311.0</ele>
      </trkpt>
      <trkpt lat="44.8488267" lon="5.5436233">
        <time>1970-01-01T00:00:00+00:00</time>
        <ele>1311.0</ele>
      </trkpt>
      <trkpt lat="44.84895998510456" lon="5.543793651057443">
        <time>1970-01-01T00:00:00+00:00</time>
        <ele>1309.0</ele>
      </trkpt>
      <trkpt lat="44.8490367" lon="5.5438917">
        <time>1970-01-01T00:00:00+00:00</time>
        <ele>1307.0</ele>
      </trkpt>
      <trkpt lat="44.8490367" lon="5.5438917">
        <time>1970-01-01T00:00:00+00:00</time>
        <ele>1307.0</ele>
      </trkpt>
      <trkpt lat="44.84917923716563" lon="5.544046433832418">
        <time>1970-01-01T00:00:00+00:00</time>
        <ele>1304.0</ele>
      </trkpt>
      <trkpt lat="44.8491933" lon="5.5440617">
        <time>1970-01-01T00:00:00+00:00</time>
        <ele>1303.0</ele>
      </trkpt>
      <trkpt lat="44.8491933" lon="5.5440617">
        <time>1970-01-01T00:00:00+00:00</time>
        <ele>1303.0</ele>
      </trkpt>
      <trkpt lat="44.849322755189355" lon="5.544237830145627">
        <time>1970-01-01T00:00:00+00:00</time>
        <ele>1299.0</ele>
      </trkpt>
      <trkpt lat="44.8493317" lon="5.54425">
        <time>1970-01-01T00:00:00+00:00</time>
        <ele>1299.0</ele>
      </trkpt>
      <trkpt lat="44.8493317" lon="5.54425">
        <time>1970-01-01T00:00:00+00:00</time>
        <ele>1299.0</ele>
      </trkpt>
      <trkpt lat="44.8494833" lon="5.544355">
        <time>1970-01-01T00:00:00+00:00</time>
        <ele>1294.0</ele>
      </trkpt>
      <trkpt lat="44.8494833" lon="5.544355">
        <time>1970-01-01T00:00:00+00:00</time>
        <ele>1294.0</ele>
      </trkpt>
      <trkpt lat="44.849603144989985" lon="5.5445441791475725">
        <time>1970-01-01T00:00:00+00:00</time>
        <ele>1290.0</ele>
      </trkpt>
      <trkpt lat="44.84961" lon="5.544555">
        <time>1970-01-01T00:00:00+00:00</time>
        <ele>1290.0</ele>
      </trkpt>
      <trkpt lat="44.84961" lon="5.544555">
        <time>1970-01-01T00:00:00+00:00</time>
        <ele>1290.0</ele>
      </trkpt>
      <trkpt lat="44.849703292422376" lon="5.5447719066998875">
        <time>1970-01-01T00:00:00+00:00</time>
        <ele>1286.0</ele>
      </trkpt>
      <trkpt lat="44.8497383" lon="5.5448533">
        <time>1970-01-01T00:00:00+00:00</time>
        <ele>1285.0</ele>
      </trkpt>
      <trkpt lat="44.8497383" lon="5.5448533">
        <time>1970-01-01T00:00:00+00:00</time>
        <ele>1285.0</ele>
      </trkpt>
      <trkpt lat="44.84984932866363" lon="5.545052896519117">
        <time>1970-01-01T00:00:00+00:00</time>
        <ele>1282.0</ele>
      </trkpt>
      <trkpt lat="44.849895" lon="5.545135">
        <time>1970-01-01T00:00:00+00:00</time>
        <ele>1281.0</ele>
      </trkpt>
      <trkpt lat="44.849895" lon="5.545135">
        <time>1970-01-01T00:00:00+00:00</time>
        <ele>1281.0</ele>
      </trkpt>
      <trkpt lat="44.84999661767962" lon="5.545344333627602">
        <time>1970-01-01T00:00:00+00:00</time>
        <ele>1279.0</ele>
      </trkpt>
      <trkpt lat="44.8500633" lon="5.5454817">
        <time>1970-01-01T00:00:00+00:00</time>
        <ele>1278.0</ele>
      </trkpt>
      <trkpt lat="44.8500633" lon="5.5454817">
        <time>1970-01-01T00:00:00+00:00</time>
        <ele>1278.0</ele>
      </trkpt>
      <trkpt lat="44.85022745676059" lon="5.545585388270274">
        <time>1970-01-01T00:00:00+00:00</time>
        <ele>1276.0</ele>
      </trkpt>
      <trkpt lat="44.8503916135212" lon="5.545689076540549">
        <time>1970-01-01T00:00:00+00:00</time>
        <ele>1274.0</ele>
      </trkpt>
      <trkpt lat="44.8503983" lon="5.5456933">
        <time>1970-01-01T00:00:00+00:00</time>
        <ele>1274.0</ele>
      </trkpt>
      <trkpt lat="44.8503983" lon="5.5456933">
        <time>1970-01-01T00:00:00+00:00</time>
        <ele>1274.0</ele>
      </trkpt>
      <trkpt lat="44.85057814321088" lon="5.5456971869339124">
        <time>1970-01-01T00:00:00+00:00</time>
        <ele>1271.0</ele>
      </trkpt>
      <trkpt lat="44.8507083" lon="5.5457">
        <time>1970-01-01T00:00:00+00:00</time>
        <ele>1269.0</ele>
      </trkpt>
      <trkpt lat="44.8507083" lon="5.5457">
        <time>1970-01-01T00:00:00+00:00</time>
        <ele>1269.0</ele>
      </trkpt>
      <trkpt lat="44.850886303934566" lon="5.545736395725675">
        <time>1970-01-01T00:00:00+00:00</time>
        <ele>1268.0</ele>
      </trkpt>
      <trkpt lat="44.8509367" lon="5.5457467">
        <time>1970-01-01T00:00:00+00:00</time>
        <ele>1267.0</ele>
      </trkpt>
      <trkpt lat="44.8509367" lon="5.5457467">
        <time>1970-01-01T00:00:00+00:00</time>
        <ele>1267.0</ele>
      </trkpt>
      <trkpt lat="44.8511017" lon="5.5457833">
        <time>1970-01-01T00:00:00+00:00</time>
        <ele>1266.0</ele>
      </trkpt>
      <trkpt lat="44.8511017" lon="5.5457833">
        <time>1970-01-01T00:00:00+00:00</time>
        <ele>1266.0</ele>
      </trkpt>
      <trkpt lat="44.8512233" lon="5.54583">
        <time>1970-01-01T00:00:00+00:00</time>
        <ele>1266.0</ele>
      </trkpt>
      <trkpt lat="44.8512233" lon="5.54583">
        <time>1970-01-01T00:00:00+00:00</time>
        <ele>1266.0</ele>
      </trkpt>
      <trkpt lat="44.8513533" lon="5.5458567">
        <time>1970-01-01T00:00:00+00:00</time>
        <ele>1264.0</ele>
      </trkpt>
      <trkpt lat="44.8513533" lon="5.5458567">
        <time>1970-01-01T00:00:00+00:00</time>
        <ele>1264.0</ele>
      </trkpt>
      <trkpt lat="44.8514983" lon="5.5459117">
        <time>1970-01-01T00:00:00+00:00</time>
        <ele>1264.0</ele>
      </trkpt>
      <trkpt lat="44.8514983" lon="5.5459117">
        <time>1970-01-01T00:00:00+00:00</time>
        <ele>1264.0</ele>
      </trkpt>
      <trkpt lat="44.85167782849158" lon="5.545927196632851">
        <time>1970-01-01T00:00:00+00:00</time>
        <ele>1263.0</ele>
      </trkpt>
      <trkpt lat="44.85173" lon="5.5459317">
        <time>1970-01-01T00:00:00+00:00</time>
        <ele>1262.0</ele>
      </trkpt>
      <trkpt lat="44.85173" lon="5.5459317">
        <time>1970-01-01T00:00:00+00:00</time>
        <ele>1262.0</ele>
      </trkpt>
      <trkpt lat="44.85190722291017" lon="5.545888378844179">
        <time>1970-01-01T00:00:00+00:00</time>
        <ele>1260.0</ele>
      </trkpt>
      <trkpt lat="44.851955" lon="5.5458767">
        <time>1970-01-01T00:00:00+00:00</time>
        <ele>1260.0</ele>
      </trkpt>
      <trkpt lat="44.851955" lon="5.5458767">
        <time>1970-01-01T00:00:00+00:00</time>
        <ele>1260.0</ele>
      </trkpt>
      <trkpt lat="44.85213387654019" lon="5.545850146771367">
        <time>1970-01-01T00:00:00+00:00</time>
        <ele>1259.0</ele>
      </trkpt>
      <trkpt lat="44.85218" lon="5.5458433">
        <time>1970-01-01T00:00:00+00:00</time>
        <ele>1258.0</ele>
      </trkpt>
      <trkpt lat="44.85218" lon="5.5458433">
        <time>1970-01-01T00:00:00+00:00</time>
        <ele>1258.0</ele>
      </trkpt>
      <trkpt lat="44.85235961145735" lon="5.545829851419972">
        <time>1970-01-01T00:00:00+00:00</time>
        <ele>1257.0</ele>
      </trkpt>
      <trkpt lat="44.8524017" lon="5.5458267">
        <time>1970-01-01T00:00:00+00:00</time>
        <ele>1257.0</ele>
      </trkpt>
      <trkpt lat="44.8524017" lon="5.5458267">
        <time>1970-01-01T00:00:00+00:00</time>
        <ele>1257.0</ele>
      </trkpt>
      <trkpt lat="44.85257918557447" lon="5.545867826426834">
        <time>1970-01-01T00:00:00+00:00</time>
        <ele>1255.0</ele>
      </trkpt>
      <trkpt lat="44.8526533" lon="5.545885">
        <time>1970-01-01T00:00:00+00:00</time>
        <ele>1255.0</ele>
      </trkpt>
      <trkpt lat="44.8526533" lon="5.545885">
        <time>1970-01-01T00:00:00+00:00</time>
        <ele>1255.0</ele>
      </trkpt>
      <trkpt lat="44.852833024189344" lon="5.545895013204835">
        <time>1970-01-01T00:00:00+00:00</time>
        <ele>1254.0</ele>
      </trkpt>
      <trkpt lat="44.8528633" lon="5.5458967">
        <time>1970-01-01T00:00:00+00:00</time>
        <ele>1253.0</ele>
      </trkpt>
      <trkpt lat="44.8528633" lon="5.5458967">
        <time>1970-01-01T00:00:00+00:00</time>
        <ele>1253.0</ele>
      </trkpt>
      <trkpt lat="44.8529133" lon="5.54596">
        <time>1970-01-01T00:00:00+00:00</time>
        <ele>1253.0</ele>
      </trkpt>
      <trkpt lat="44.8529133" lon="5.54596">
        <time>1970-01-01T00:00:00+00:00</time>
        <ele>1253.0</ele>
      </trkpt>
      <trkpt lat="44.8529617" lon="5.545985">
        <time>1970-01-01T00:00:00+00:00</time>
        <ele>1253.0</ele>
      </trkpt>
      <trkpt lat="44.8529617" lon="5.545985">
        <time>1970-01-01T00:00:00+00:00</time>
        <ele>1253.0</ele>
      </trkpt>
      <trkpt lat="44.85314147235376" lon="5.545976887529163">
        <time>1970-01-01T00:00:00+00:00</time>
        <ele>1250.0</ele>
      </trkpt>
      <trkpt lat="44.8531833" lon="5.545975">
        <time>1970-01-01T00:00:00+00:00</time>
        <ele>1249.0</ele>
      </trkpt>
      <trkpt lat="44.8531833" lon="5.545975">
        <time>1970-01-01T00:00:00+00:00</time>
        <ele>1249.0</ele>
      </trkpt>
      <trkpt lat="44.8533599424997" lon="5.546022806915057">
        <time>1970-01-01T00:00:00+00:00</time>
        <ele>1247.0</ele>
      </trkpt>
      <trkpt lat="44.8534667" lon="5.5460517">
        <time>1970-01-01T00:00:00+00:00</time>
        <ele>1245.0</ele>
      </trkpt>
      <trkpt lat="44.8534667" lon="5.5460517">
        <time>1970-01-01T00:00:00+00:00</time>
        <ele>1245.0</ele>
      </trkpt>
      <trkpt lat="44.85363623650852" lon="5.5461364372377036">
        <time>1970-01-01T00:00:00+00:00</time>
        <ele>1244.0</ele>
      </trkpt>
      <trkpt lat="44.85374" lon="5.5461883">
        <time>1970-01-01T00:00:00+00:00</time>
        <ele>1243.0</ele>
      </trkpt>
      <trkpt lat="44.85374" lon="5.5461883">
        <time>1970-01-01T00:00:00+00:00</time>
        <ele>1243.0</ele>
      </trkpt>
      <trkpt lat="44.853899099420815" lon="5.546306645492251">
        <time>1970-01-01T00:00:00+00:00</time>
        <ele>1240.0</ele>
      </trkpt>
      <trkpt lat="44.854" lon="5.5463817">
        <time>1970-01-01T00:00:00+00:00</time>
        <ele>1239.0</ele>
      </trkpt>
      <trkpt lat="44.854" lon="5.5463817">
        <time>1970-01-01T00:00:00+00:00</time>
        <ele>1239.0</ele>
      </trkpt>
      <trkpt lat="44.8541518739007" lon="5.54651762971277">
        <time>1970-01-01T00:00:00+00:00</time>
        <ele>1236.0</ele>
      </trkpt>
      <trkpt lat="44.8542067" lon="5.5465667">
        <time>1970-01-01T00:00:00+00:00</time>
        <ele>1235.0</ele>
      </trkpt>
      <trkpt lat="44.8542067" lon="5.5465667">
        <time>1970-01-01T00:00:00+00:00</time>
        <ele>1235.0</ele>
      </trkpt>
      <trkpt lat="44.85436952942029" lon="5.546674479577419">
        <time>1970-01-01T00:00:00+00:00</time>
        <ele>1232.0</ele>
      </trkpt>
      <trkpt lat="44.8544383" lon="5.54672">
        <time>1970-01-01T00:00:00+00:00</time>
        <ele>1231.0</ele>
      </trkpt>
      <trkpt lat="44.8544383" lon="5.54672">
        <time>1970-01-01T00:00:00+00:00</time>
        <ele>1231.0</ele>
      </trkpt>
      <trkpt lat="44.85461097876894" lon="5.546790998901581">
        <time>1970-01-01T00:00:00+00:00</time>
        <ele>1229.0</ele>
      </trkpt>
      <trkpt lat="44.8547017" lon="5.5468283">
        <time>1970-01-01T00:00:00+00:00</time>
        <ele>1228.0</ele>
      </trkpt>
      <trkpt lat="44.8547017" lon="5.5468283">
        <time>1970-01-01T00:00:00+00:00</time>
        <ele>1228.0</ele>
      </trkpt>
      <trkpt lat="44.854851159498004" lon="5.546969456192555">
        <time>1970-01-01T00:00:00+00:00</time>
        <ele>1226.0</ele>
      </trkpt>
      <trkpt lat="44.8548817" lon="5.5469983">
        <time>1970-01-01T00:00:00+00:00</time>
        <ele>1225.0</ele>
      </trkpt>
      <trkpt lat="44.8548817" lon="5.5469983">
        <time>1970-01-01T00:00:00+00:00</time>
        <ele>1225.0</ele>
      </trkpt>
      <trkpt lat="44.8549267" lon="5.5471633">
        <time>1970-01-01T00:00:00+00:00</time>
        <ele>1225.0</ele>
      </trkpt>
      <trkpt lat="44.8549267" lon="5.5471633">
        <time>1970-01-01T00:00:00+00:00</time>
        <ele>1225.0</ele>
      </trkpt>
      <trkpt lat="44.8549533" lon="5.5472533">
        <time>1970-01-01T00:00:00+00:00</time>
        <ele>1224.0</ele>
      </trkpt>
      <trkpt lat="44.8549533" lon="5.5472533">
        <time>1970-01-01T00:00:00+00:00</time>
        <ele>1224.0</ele>
      </trkpt>
      <trkpt lat="44.8549733" lon="5.5473217">
        <time>1970-01-01T00:00:00+00:00</time>
        <ele>1224.0</ele>
      </trkpt>
      <trkpt lat="44.8549733" lon="5.5473217">
        <time>1970-01-01T00:00:00+00:00</time>
        <ele>1224.0</ele>
      </trkpt>
      <trkpt lat="44.8550217" lon="5.5474317">
        <time>1970-01-01T00:00:00+00:00</time>
        <ele>1224.0</ele>
      </trkpt>
      <trkpt lat="44.8550217" lon="5.5474317">
        <time>1970-01-01T00:00:00+00:00</time>
        <ele>1224.0</ele>
      </trkpt>
      <trkpt lat="44.8551517" lon="5.5475283">
        <time>1970-01-01T00:00:00+00:00</time>
        <ele>1222.0</ele>
      </trkpt>
      <trkpt lat="44.8551517" lon="5.5475283">
        <time>1970-01-01T00:00:00+00:00</time>
        <ele>1222.0</ele>
      </trkpt>
      <trkpt lat="44.85530605036986" lon="5.547658563334062">
        <time>1970-01-01T00:00:00+00:00</time>
        <ele>1220.0</ele>
      </trkpt>
      <trkpt lat="44.8553433" lon="5.54769">
        <time>1970-01-01T00:00:00+00:00</time>
        <ele>1219.0</ele>
      </trkpt>
      <trkpt lat="44.8553433" lon="5.54769">
        <time>1970-01-01T00:00:00+00:00</time>
        <ele>1219.0</ele>
      </trkpt>
      <trkpt lat="44.855470197449904" lon="5.547869814499495">
        <time>1970-01-01T00:00:00+00:00</time>
        <ele>1217.0</ele>
      </trkpt>
      <trkpt lat="44.855515" lon="5.5479333">
        <time>1970-01-01T00:00:00+00:00</time>
        <ele>1216.0</ele>
      </trkpt>
      <trkpt lat="44.855515" lon="5.5479333">
        <time>1970-01-01T00:00:00+00:00</time>
        <ele>1216.0</ele>
      </trkpt>
      <trkpt lat="44.85556648148552" lon="5.548176412380927">
        <time>1970-01-01T00:00:00+00:00</time>
        <ele>1216.0</ele>
      </trkpt>
      <trkpt lat="44.8555683" lon="5.548185">
        <time>1970-01-01T00:00:00+00:00</time>
        <ele>1215.0</ele>
      </trkpt>
      <trkpt lat="44.8555683" lon="5.548185">
        <time>1970-01-01T00:00:00+00:00</time>
        <ele>1215.0</ele>
      </trkpt>
      <trkpt lat="44.85569" lon="5.5483483">
        <time>1970-01-01T00:00:00+00:00</time>
        <ele>1214.0</ele>
      </trkpt>
      <trkpt lat="44.85569" lon="5.5483483">
        <time>1970-01-01T00:00:00+00:00</time>
        <ele>1214.0</ele>
      </trkpt>
      <trkpt lat="44.855847948524186" lon="5.548469678389932">
        <time>1970-01-01T00:00:00+00:00</time>
        <ele>1212.0</ele>
      </trkpt>
      <trkpt lat="44.8558917" lon="5.5485033">
        <time>1970-01-01T00:00:00+00:00</time>
        <ele>1211.0</ele>
      </trkpt>
      <trkpt lat="44.8558917" lon="5.5485033">
        <time>1970-01-01T00:00:00+00:00</time>
        <ele>1211.0</ele>
      </trkpt>
      <trkpt lat="44.85598914145993" lon="5.548716569699694">
        <time>1970-01-01T00:00:00+00:00</time>
        <ele>1209.0</ele>
      </trkpt>
      <trkpt lat="44.8560067" lon="5.548755">
        <time>1970-01-01T00:00:00+00:00</time>
        <ele>1208.0</ele>
      </trkpt>
      <trkpt lat="44.8560067" lon="5.548755">
        <time>1970-01-01T00:00:00+00:00</time>
        <ele>1208.0</ele>
      </trkpt>
      <trkpt lat="44.8560544445119" lon="5.548999627357788">
        <time>1970-01-01T00:00:00+00:00</time>
        <ele>1207.0</ele>
      </trkpt>
      <trkpt lat="44.8560633" lon="5.549045">
        <time>1970-01-01T00:00:00+00:00</time>
        <ele>1207.0</ele>
      </trkpt>
      <trkpt lat="44.8560633" lon="5.549045">
        <time>1970-01-01T00:00:00+00:00</time>
        <ele>1207.0</ele>
      </trkpt>
      <trkpt lat="44.856096856279926" lon="5.549294275222305">
        <time>1970-01-01T00:00:00+00:00</time>
        <ele>1206.0</ele>
      </trkpt>
      <trkpt lat="44.8560983" lon="5.549305">
        <time>1970-01-01T00:00:00+00:00</time>
        <ele>1206.0</ele>
      </trkpt>
      <trkpt lat="44.8560983" lon="5.549305">
        <time>1970-01-01T00:00:00+00:00</time>
        <ele>1206.0</ele>
      </trkpt>
      <trkpt lat="44.8561167" lon="5.5494917">
        <time>1970-01-01T00:00:00+00:00</time>
        <ele>1205.0</ele>
      </trkpt>
      <trkpt lat="44.8561167" lon="5.5494917">
        <time>1970-01-01T00:00:00+00:00</time>
        <ele>1205.0</ele>
      </trkpt>
      <trkpt lat="44.8561217" lon="5.549695">
        <time>1970-01-01T00:00:00+00:00</time>
        <ele>1204.0</ele>
      </trkpt>
      <trkpt lat="44.8561217" lon="5.549695">
        <time>1970-01-01T00:00:00+00:00</time>
        <ele>1204.0</ele>
      </trkpt>
      <trkpt lat="44.8561217" lon="5.5498833">
        <time>1970-01-01T00:00:00+00:00</time>
        <ele>1203.0</ele>
      </trkpt>
      <trkpt lat="44.8561217" lon="5.5498833">
        <time>1970-01-01T00:00:00+00:00</time>
        <ele>1203.0</ele>
      </trkpt>
      <trkpt lat="44.8561333" lon="5.5500417">
        <time>1970-01-01T00:00:00+00:00</time>
        <ele>1202.0</ele>
      </trkpt>
      <trkpt lat="44.8561333" lon="5.5500417">
        <time>1970-01-01T00:00:00+00:00</time>
        <ele>1202.0</ele>
      </trkpt>
      <trkpt lat="44.8561333" lon="5.5502617">
        <time>1970-01-01T00:00:00+00:00</time>
        <ele>1202.0</ele>
      </trkpt>
      <trkpt lat="44.8561333" lon="5.5502617">
        <time>1970-01-01T00:00:00+00:00</time>
        <ele>1202.0</ele>
      </trkpt>
      <trkpt lat="44.8561433" lon="5.5505083">
        <time>1970-01-01T00:00:00+00:00</time>
        <ele>1201.0</ele>
      </trkpt>
      <trkpt lat="44.8561433" lon="5.5505083">
        <time>1970-01-01T00:00:00+00:00</time>
        <ele>1201.0</ele>
      </trkpt>
      <trkpt lat="44.85619425716137" lon="5.550751634759343">
        <time>1970-01-01T00:00:00+00:00</time>
        <ele>1198.0</ele>
      </trkpt>
      <trkpt lat="44.8561967" lon="5.5507633">
        <time>1970-01-01T00:00:00+00:00</time>
        <ele>1198.0</ele>
      </trkpt>
      <trkpt lat="44.8561967" lon="5.5507633">
        <time>1970-01-01T00:00:00+00:00</time>
        <ele>1198.0</ele>
      </trkpt>
      <trkpt lat="44.856206282961" lon="5.551016670184438">
        <time>1970-01-01T00:00:00+00:00</time>
        <ele>1196.0</ele>
      </trkpt>
      <trkpt lat="44.8562083" lon="5.55107">
        <time>1970-01-01T00:00:00+00:00</time>
        <ele>1196.0</ele>
      </trkpt>
      <trkpt lat="44.8562083" lon="5.55107">
        <time>1970-01-01T00:00:00+00:00</time>
        <ele>1196.0</ele>
      </trkpt>
      <trkpt lat="44.8562083" lon="5.551323730590024">
        <time>1970-01-01T00:00:00+00:00</time>
        <ele>1194.0</ele>
      </trkpt>
      <trkpt lat="44.8562083" lon="5.55142">
        <time>1970-01-01T00:00:00+00:00</time>
        <ele>1193.0</ele>
      </trkpt>
      <trkpt lat="44.8562083" lon="5.55142">
        <time>1970-01-01T00:00:00+00:00</time>
        <ele>1193.0</ele>
      </trkpt>
      <trkpt lat="44.85619739476052" lon="5.551673263758351">
        <time>1970-01-01T00:00:00+00:00</time>
        <ele>1191.0</ele>
      </trkpt>
      <trkpt lat="44.85619" lon="5.551845">
        <time>1970-01-01T00:00:00+00:00</time>
        <ele>1190.0</ele>
      </trkpt>
      <trkpt lat="44.85619" lon="5.551845">
        <time>1970-01-01T00:00:00+00:00</time>
        <ele>1190.0</ele>
      </trkpt>
      <trkpt lat="44.85621285769507" lon="5.552096673368487">
        <time>1970-01-01T00:00:00+00:00</time>
        <ele>1189.0</ele>
      </trkpt>
      <trkpt lat="44.8562283" lon="5.5522667">
        <time>1970-01-01T00:00:00+00:00</time>
        <ele>1188.0</ele>
      </trkpt>
      <trkpt lat="44.8562283" lon="5.5522667">
        <time>1970-01-01T00:00:00+00:00</time>
        <ele>1188.0</ele>
      </trkpt>
      <trkpt lat="44.85633778746114" lon="5.552468005911319">
        <time>1970-01-01T00:00:00+00:00</time>
        <ele>1185.0</ele>
      </trkpt>
      <trkpt lat="44.8563733" lon="5.5525333">
        <time>1970-01-01T00:00:00+00:00</time>
        <ele>1184.0</ele>
      </trkpt>
      <trkpt lat="44.8563733" lon="5.5525333">
        <time>1970-01-01T00:00:00+00:00</time>
        <ele>1184.0</ele>
      </trkpt>
      <trkpt lat="44.85649493934754" lon="5.552720209241338">
        <time>1970-01-01T00:00:00+00:00</time>
        <ele>1182.0</ele>
      </trkpt>
      <trkpt lat="44.8565783" lon="5.5528483">
        <time>1970-01-01T00:00:00+00:00</time>
        <ele>1180.0</ele>
      </trkpt>
      <trkpt lat="44.8565783" lon="5.5528483">
        <time>1970-01-01T00:00:00+00:00</time>
        <ele>1180.0</ele>
      </trkpt>
      <trkpt lat="44.8567073553996" lon="5.55302503564552">
        <time>1970-01-01T00:00:00+00:00</time>
        <ele>1177.0</ele>
      </trkpt>
      <trkpt lat="44.8567767" lon="5.55312">
        <time>1970-01-01T00:00:00+00:00</time>
        <ele>1176.0</ele>
      </trkpt>
      <trkpt lat="44.8567767" lon="5.55312">
        <time>1970-01-01T00:00:00+00:00</time>
        <ele>1176.0</ele>
      </trkpt>
      <trkpt lat="44.85690390300989" lon="5.5532993888601085">
        <time>1970-01-01T00:00:00+00:00</time>
        <ele>1173.0</ele>
      </trkpt>
      <trkpt lat="44.8569717" lon="5.553395">
        <time>1970-01-01T00:00:00+00:00</time>
        <ele>1171.0</ele>
      </trkpt>
      <trkpt lat="44.8569717" lon="5.553395">
        <time>1970-01-01T00:00:00+00:00</time>
        <ele>1171.0</ele>
      </trkpt>
      <trkpt lat="44.85707914245512" lon="5.553598489498342">
        <time>1970-01-01T00:00:00+00:00</time>
        <ele>1168.0</ele>
      </trkpt>
      <trkpt lat="44.8571433" lon="5.55372">
        <time>1970-01-01T00:00:00+00:00</time>
        <ele>1166.0</ele>
      </trkpt>
      <trkpt lat="44.8571433" lon="5.55372">
        <time>1970-01-01T00:00:00+00:00</time>
        <ele>1166.0</ele>
      </trkpt>
      <trkpt lat="44.85726340840142" lon="5.553908871685415">
        <time>1970-01-01T00:00:00+00:00</time>
        <ele>1163.0</ele>
      </trkpt>
      <trkpt lat="44.857315" lon="5.55399">
        <time>1970-01-01T00:00:00+00:00</time>
        <ele>1162.0</ele>
      </trkpt>
      <trkpt lat="44.857315" lon="5.55399">
        <time>1970-01-01T00:00:00+00:00</time>
        <ele>1162.0</ele>
      </trkpt>
      <trkpt lat="44.85746550717431" lon="5.55412892969937">
        <time>1970-01-01T00:00:00+00:00</time>
        <ele>1159.0</ele>
      </trkpt>
      <trkpt lat="44.85751" lon="5.55417">
        <time>1970-01-01T00:00:00+00:00</time>
        <ele>1158.0</ele>
      </trkpt>
      <trkpt lat="44.85751" lon="5.55417">
        <time>1970-01-01T00:00:00+00:00</time>
        <ele>1158.0</ele>
      </trkpt>
      <trkpt lat="44.85761964203764" lon="5.5543711429075495">
        <time>1970-01-01T00:00:00+00:00</time>
        <ele>1155.0</ele>
      </trkpt>
      <trkpt lat="44.8576617" lon="5.5544483">
        <time>1970-01-01T00:00:00+00:00</time>
        <ele>1154.0</ele>
      </trkpt>
      <trkpt lat="44.8576617" lon="5.5544483">
        <time>1970-01-01T00:00:00+00:00</time>
        <ele>1154.0</ele>
      </trkpt>
      <trkpt lat="44.85771535378292" lon="5.554690484921682">
        <time>1970-01-01T00:00:00+00:00</time>
        <ele>1151.0</ele>
      </trkpt>
      <trkpt lat="44.8577267" lon="5.5547417">
        <time>1970-01-01T00:00:00+00:00</time>
        <ele>1151.0</ele>
      </trkpt>
      <trkpt lat="44.8577267" lon="5.5547417">
        <time>1970-01-01T00:00:00+00:00</time>
        <ele>1151.0</ele>
      </trkpt>
      <trkpt lat="44.857816081635065" lon="5.554961889714901">
        <time>1970-01-01T00:00:00+00:00</time>
        <ele>1148.0</ele>
      </trkpt>
      <trkpt lat="44.8578417" lon="5.555025">
        <time>1970-01-01T00:00:00+00:00</time>
        <ele>1147.0</ele>
      </trkpt>
      <trkpt lat="44.8578417" lon="5.555025">
        <time>1970-01-01T00:00:00+00:00</time>
        <ele>1147.0</ele>
      </trkpt>
      <trkpt lat="44.85792720664207" lon="5.555248231693124">
        <time>1970-01-01T00:00:00+00:00</time>
        <ele>1145.0</ele>
      </trkpt>
      <trkpt lat="44.8579483" lon="5.5553033">
        <time>1970-01-01T00:00:00+00:00</time>
        <ele>1144.0</ele>
      </trkpt>
      <trkpt lat="44.8579483" lon="5.5553033">
        <time>1970-01-01T00:00:00+00:00</time>
        <ele>1144.0</ele>
      </trkpt>
      <trkpt lat="44.857975" lon="5.55545">
        <time>1970-01-01T00:00:00+00:00</time>
        <ele>1143.0</ele>
      </trkpt>
      <trkpt lat="44.857975" lon="5.55545">
        <time>1970-01-01T00:00:00+00:00</time>
        <ele>1143.0</ele>
      </trkpt>
      <trkpt lat="44.8580633" lon="5.5556083">
        <time>1970-01-01T00:00:00+00:00</time>
        <ele>1141.0</ele>
      </trkpt>
      <trkpt lat="44.8580633" lon="5.5556083">
        <time>1970-01-01T00:00:00+00:00</time>
        <ele>1141.0</ele>
      </trkpt>
      <trkpt lat="44.85812436536377" lon="5.555846967681316">
        <time>1970-01-01T00:00:00+00:00</time>
        <ele>1138.0</ele>
      </trkpt>
      <trkpt lat="44.858155" lon="5.5559667">
        <time>1970-01-01T00:00:00+00:00</time>
        <ele>1137.0</ele>
      </trkpt>
      <trkpt lat="44.858155" lon="5.5559667">
        <time>1970-01-01T00:00:00+00:00</time>
        <ele>1137.0</ele>
      </trkpt>
      <trkpt lat="44.858218423624855" lon="5.556204140898732">
        <time>1970-01-01T00:00:00+00:00</time>
        <ele>1135.0</ele>
      </trkpt>
      <trkpt lat="44.8582467" lon="5.55631">
        <time>1970-01-01T00:00:00+00:00</time>
        <ele>1134.0</ele>
      </trkpt>
      <trkpt lat="44.8582467" lon="5.55631">
        <time>1970-01-01T00:00:00+00:00</time>
        <ele>1134.0</ele>
      </trkpt>
      <trkpt lat="44.85833121957222" lon="5.5565339801602125">
        <time>1970-01-01T00:00:00+00:00</time>
        <ele>1131.0</ele>
      </trkpt>
      <trkpt lat="44.858375" lon="5.55665">
        <time>1970-01-01T00:00:00+00:00</time>
        <ele>1130.0</ele>
      </trkpt>
      <trkpt lat="44.858375" lon="5.55665">
        <time>1970-01-01T00:00:00+00:00</time>
        <ele>1130.0</ele>
      </trkpt>
      <trkpt lat="44.85843140938729" lon="5.556890938595478">
        <time>1970-01-01T00:00:00+00:00</time>
        <ele>1126.0</ele>
      </trkpt>
      <trkpt lat="44.858455" lon="5.5569917">
        <time>1970-01-01T00:00:00+00:00</time>
        <ele>1125.0</ele>
      </trkpt>
      <trkpt lat="44.858455" lon="5.5569917">
        <time>1970-01-01T00:00:00+00:00</time>
        <ele>1125.0</ele>
      </trkpt>
      <trkpt lat="44.85844068290673" lon="5.557244635314396">
        <time>1970-01-01T00:00:00+00:00</time>
        <ele>1121.0</ele>
      </trkpt>
      <trkpt lat="44.8584367" lon="5.557315">
        <time>1970-01-01T00:00:00+00:00</time>
        <ele>1120.0</ele>
      </trkpt>
      <trkpt lat="44.8584367" lon="5.557315">
        <time>1970-01-01T00:00:00+00:00</time>
        <ele>1120.0</ele>
      </trkpt>
      <trkpt lat="44.8585133" lon="5.5574">
        <time>1970-01-01T00:00:00+00:00</time>
        <ele>1119.0</ele>
      </trkpt>
      <trkpt lat="44.8585133" lon="5.5574">
        <time>1970-01-01T00:00:00+00:00</time>
        <ele>1119.0</ele>
      </trkpt>
      <trkpt lat="44.8585667" lon="5.5572417">
        <time>1970-01-01T00:00:00+00:00</time>
        <ele>1120.0</ele>
      </trkpt>
      <trkpt lat="44.8585667" lon="5.5572417">
        <time>1970-01-01T00:00:00+00:00</time>
        <ele>1120.0</ele>
      </trkpt>
      <trkpt lat="44.85864272488371" lon="5.557011739614156">
        <time>1970-01-01T00:00:00+00:00</time>
        <ele>1122.0</ele>
      </trkpt>
      <trkpt lat="44.8586433" lon="5.55701">
        <time>1970-01-01T00:00:00+00:00</time>
        <ele>1122.0</ele>
      </trkpt>
      <trkpt lat="44.8586433" lon="5.55701">
        <time>1970-01-01T00:00:00+00:00</time>
        <ele>1122.0</ele>
      </trkpt>
      <trkpt lat="44.858766525154564" lon="5.556825162268141">
        <time>1970-01-01T00:00:00+00:00</time>
        <ele>1121.0</ele>
      </trkpt>
      <trkpt lat="44.8588033" lon="5.55677">
        <time>1970-01-01T00:00:00+00:00</time>
        <ele>1121.0</ele>
      </trkpt>
      <trkpt lat="44.8588033" lon="5.55677">
        <time>1970-01-01T00:00:00+00:00</time>
        <ele>1121.0</ele>
      </trkpt>
      <trkpt lat="44.85898300737945" lon="5.556780597663002">
        <time>1970-01-01T00:00:00+00:00</time>
        <ele>1116.0</ele>
      </trkpt>
      <trkpt lat="44.8590017" lon="5.5567817">
        <time>1970-01-01T00:00:00+00:00</time>
        <ele>1115.0</ele>
      </trkpt>
      <trkpt lat="44.8590017" lon="5.5567817">
        <time>1970-01-01T00:00:00+00:00</time>
        <ele>1115.0</ele>
      </trkpt>
      <trkpt lat="44.859047584289" lon="5.557027047511578">
        <time>1970-01-01T00:00:00+00:00</time>
        <ele>1114.0</ele>
      </trkpt>
      <trkpt lat="44.859055" lon="5.5570667">
        <time>1970-01-01T00:00:00+00:00</time>
        <ele>1114.0</ele>
      </trkpt>
      <trkpt lat="44.859055" lon="5.5570667">
        <time>1970-01-01T00:00:00+00:00</time>
        <ele>1114.0</ele>
      </trkpt>
      <trkpt lat="44.85912096183096" lon="5.557302764237445">
        <time>1970-01-01T00:00:00+00:00</time>
        <ele>1111.0</ele>
      </trkpt>
      <trkpt lat="44.8591267" lon="5.5573233">
        <time>1970-01-01T00:00:00+00:00</time>
        <ele>1110.0</ele>
      </trkpt>
      <trkpt lat="44.8591267" lon="5.5573233">
        <time>1970-01-01T00:00:00+00:00</time>
        <ele>1110.0</ele>
      </trkpt>
      <trkpt lat="44.85920675332379" lon="5.557550525591534">
        <time>1970-01-01T00:00:00+00:00</time>
        <ele>1108.0</ele>
      </trkpt>
      <trkpt lat="44.8592183" lon="5.5575833">
        <time>1970-01-01T00:00:00+00:00</time>
        <ele>1107.0</ele>
      </trkpt>
      <trkpt lat="44.8592183" lon="5.5575833">
        <time>1970-01-01T00:00:00+00:00</time>
        <ele>1107.0</ele>
      </trkpt>
      <trkpt lat="44.85926906308054" lon="5.557826728495463">
        <time>1970-01-01T00:00:00+00:00</time>
        <ele>1105.0</ele>
      </trkpt>
      <trkpt lat="44.8592833" lon="5.557895">
        <time>1970-01-01T00:00:00+00:00</time>
        <ele>1104.0</ele>
      </trkpt>
      <trkpt lat="44.8592833" lon="5.557895">
        <time>1970-01-01T00:00:00+00:00</time>
        <ele>1104.0</ele>
      </trkpt>
      <trkpt lat="44.85935946665683" lon="5.558124869874367">
        <time>1970-01-01T00:00:00+00:00</time>
        <ele>1101.0</ele>
      </trkpt>
      <trkpt lat="44.8593667" lon="5.5581467">
        <time>1970-01-01T00:00:00+00:00</time>
        <ele>1101.0</ele>
      </trkpt>
      <trkpt lat="44.8593667" lon="5.5581467">
        <time>1970-01-01T00:00:00+00:00</time>
        <ele>1101.0</ele>
      </trkpt>
      <trkpt lat="44.8594783" lon="5.5582583">
        <time>1970-01-01T00:00:00+00:00</time>
        <ele>1100.0</ele>
      </trkpt>
      <trkpt lat="44.8594783" lon="5.5582583">
        <time>1970-01-01T00:00:00+00:00</time>
        <ele>1100.0</ele>
      </trkpt>
      <trkpt lat="44.8595383" lon="5.5583483">
        <time>1970-01-01T00:00:00+00:00</time>
        <ele>1098.0</ele>
      </trkpt>
      <trkpt lat="44.8595383" lon="5.5583483">
        <time>1970-01-01T00:00:00+00:00</time>
        <ele>1098.0</ele>
      </trkpt>
      <trkpt lat="44.859565" lon="5.5584067">
        <time>1970-01-01T00:00:00+00:00</time>
        <ele>1098.0</ele>
      </trkpt>
    </trkseg>
  </trk>
</gpx>
